Darstellungsparameter: Aktuell verwendete Einstellungen:
Skalierung der Graphiken ... ?
xyx+y,   Skalierungsfaktor:      Skalierung: Modus: x, Faktor: 1
Darstellungszeitraum ... ?
Vom - - bis: - -   Zeitraum: 01.09.2016 - 14.09.2016
Min/Max/Avg-Anzeige ... ?
Zeige MMA aktuell
Zeige MMA Monat
Zeige MMA alles
Zeige --A aktuell
Zeige --A Monat
Zeige --A alles
Keine MMA-Anzeige
MMA:
Keine MMA-Graphiken
MMA-Basis: 01.09.2016 - 14.09.2016
Quicknavigation für Darstellung... ?
Tage:      1T, 2T, 3T, 5T -1T -2T -3T -5T +1T +2T +3T +5T
Wochen: 1W, 2W, 3W -1W -2W -3W +1W +2W +3W
Monate: 1M, 3M, 6M -1M -3M -6M +1M +3M +6M
Jahre:    1J, 3J, 5J, 10J -1J -3J -5J -10J +1J +3J +5J +10J
Nutze für die Darstellung ... ?
Originaldaten oder Mittelwerte auf ...
Stundenbasis Tagesbasis Wochenbasis
Monatsbasis Jahresbasis      Datenbasis: Original-Daten
Darstellen als:
Statistik (Auto) Statistik J:M      Darstellung:
Zur Graphik,    zurück zur Übersicht aller Sensoren.
 
Tabellarische Datenbersicht: ?
 
Sensor: Nr:Datum:Temp:Feuchte:Taupunkt:
Aussen-T/F 1 01-09-2016 00:00:00 19.1 C 78 % 15.18 C
2 01-09-2016 00:05:00 19 C 79 % 15.28 C
3 01-09-2016 00:10:00 18.9 C 79 % 15.18 C
4 01-09-2016 00:15:00 18.8 C 79 % 15.08 C
5 01-09-2016 00:20:00 18.7 C 79 % 14.99 C
6 01-09-2016 00:25:00 18.7 C 79 % 14.99 C
7 01-09-2016 00:30:00 18.6 C 79 % 14.89 C
8 01-09-2016 00:35:00 18.5 C 79 % 14.79 C
9 01-09-2016 00:40:00 18.4 C 79 % 14.69 C
10 01-09-2016 00:45:00 18.4 C 79 % 14.69 C
11 01-09-2016 00:50:00 18.4 C 79 % 14.69 C
12 01-09-2016 00:55:00 18.3 C 80 % 14.79 C
13 01-09-2016 01:00:00 18.3 C 80 % 14.79 C
14 01-09-2016 01:05:00 18.2 C 81 % 14.89 C
15 01-09-2016 01:10:00 18.1 C 81 % 14.79 C
16 01-09-2016 01:15:00 17.8 C 82 % 14.69 C
17 01-09-2016 01:20:00 17.7 C 82 % 14.59 C
18 01-09-2016 01:25:00 17.5 C 83 % 14.58 C
19 01-09-2016 01:30:00 17.3 C 82 % 14.2 C
20 01-09-2016 01:35:00 17.1 C 83 % 14.19 C
21 01-09-2016 01:40:00 17 C 84 % 14.28 C
22 01-09-2016 01:45:00 16.9 C 85 % 14.36 C
23 01-09-2016 01:50:00 16.9 C 86 % 14.54 C
24 01-09-2016 01:55:00 16.9 C 86 % 14.54 C
25 01-09-2016 02:00:00 16.9 C 86 % 14.54 C
Sensor: Nr:Datum:Temp:Feuchte:Taupunkt:
Aussen-T/F 26 01-09-2016 02:05:00 16.9 C 87 % 14.72 C
27 01-09-2016 02:10:00 16.9 C 86 % 14.54 C
28 01-09-2016 02:15:00 16.8 C 86 % 14.45 C
29 01-09-2016 02:20:00 16.8 C 87 % 14.62 C
30 01-09-2016 02:25:00 16.7 C 87 % 14.53 C
31 01-09-2016 02:30:00 16.7 C 87 % 14.53 C
32 01-09-2016 02:35:00 16.7 C 87 % 14.53 C
33 01-09-2016 02:40:00 16.6 C 87 % 14.43 C
34 01-09-2016 02:45:00 16.6 C 87 % 14.43 C
35 01-09-2016 02:50:00 16.6 C 87 % 14.43 C
36 01-09-2016 02:55:00 16.6 C 87 % 14.43 C
37 01-09-2016 03:00:00 16.6 C 87 % 14.43 C
38 01-09-2016 03:05:00 16.6 C 87 % 14.43 C
39 01-09-2016 03:10:00 16.6 C 87 % 14.43 C
40 01-09-2016 03:15:00 16.6 C 87 % 14.43 C
41 01-09-2016 03:20:00 16.5 C 87 % 14.33 C
42 01-09-2016 03:25:00 16.5 C 87 % 14.33 C
43 01-09-2016 03:30:00 16.6 C 88 % 14.6 C
44 01-09-2016 03:35:00 16.6 C 88 % 14.6 C
45 01-09-2016 03:40:00 16.6 C 88 % 14.6 C
46 01-09-2016 03:45:00 16.6 C 87 % 14.43 C
47 01-09-2016 03:50:00 16.5 C 87 % 14.33 C
48 01-09-2016 03:55:00 16.4 C 87 % 14.23 C
49 01-09-2016 04:00:00 16.4 C 87 % 14.23 C
50 01-09-2016 04:05:00 16.3 C 87 % 14.13 C
Sensor: Nr:Datum:Temp:Feuchte:Taupunkt:
Aussen-T/F 51 01-09-2016 04:10:00 16.2 C 88 % 14.21 C
52 01-09-2016 04:15:00 16.1 C 88 % 14.11 C
53 01-09-2016 04:20:00 16 C 88 % 14.01 C
54 01-09-2016 04:25:00 16 C 89 % 14.19 C
55 01-09-2016 04:30:00 16 C 89 % 14.19 C
56 01-09-2016 04:35:00 16 C 89 % 14.19 C
57 01-09-2016 04:40:00 16 C 89 % 14.19 C
58 01-09-2016 04:45:00 15.9 C 89 % 14.09 C
59 01-09-2016 04:50:00 15.8 C 89 % 13.99 C
60 01-09-2016 04:55:00 15.8 C 89 % 13.99 C
61 01-09-2016 05:00:00 15.7 C 89 % 13.89 C
62 01-09-2016 05:05:00 15.7 C 89 % 13.89 C
63 01-09-2016 05:10:00 15.7 C 89 % 13.89 C
64 01-09-2016 05:15:00 15.7 C 90 % 14.06 C
65 01-09-2016 05:20:00 15.7 C 89 % 13.89 C
66 01-09-2016 05:25:00 15.6 C 89 % 13.79 C
67 01-09-2016 05:30:00 15.4 C 89 % 13.6 C
68 01-09-2016 05:35:00 15.4 C 90 % 13.77 C
69 01-09-2016 05:40:00 15.4 C 90 % 13.77 C
70 01-09-2016 05:45:00 15.4 C 90 % 13.77 C
71 01-09-2016 05:50:00 15.4 C 90 % 13.77 C
72 01-09-2016 05:55:00 15.3 C 90 % 13.67 C
73 01-09-2016 06:00:00 15.3 C 90 % 13.67 C
74 01-09-2016 06:05:00 15.2 C 90 % 13.57 C
75 01-09-2016 06:10:00 15.1 C 90 % 13.47 C
Sensor: Nr:Datum:Temp:Feuchte:Taupunkt:
Aussen-T/F 76 01-09-2016 06:15:00 15 C 90 % 13.37 C
77 01-09-2016 06:20:00 14.8 C 90 % 13.18 C
78 01-09-2016 06:25:00 14.7 C 90 % 13.08 C
79 01-09-2016 06:30:00 14.6 C 90 % 12.98 C
80 01-09-2016 06:35:00 14.4 C 90 % 12.78 C
81 01-09-2016 06:40:00 14.3 C 90 % 12.68 C
82 01-09-2016 06:45:00 14.3 C 91 % 12.85 C
83 01-09-2016 06:50:00 14.2 C 91 % 12.75 C
84 01-09-2016 06:55:00 14.2 C 91 % 12.75 C
85 01-09-2016 07:00:00 14.1 C 91 % 12.65 C
86 01-09-2016 07:05:00 14.1 C 91 % 12.65 C
87 01-09-2016 07:10:00 14 C 91 % 12.56 C
88 01-09-2016 07:15:00 14 C 92 % 12.72 C
89 01-09-2016 07:20:00 14 C 92 % 12.72 C
90 01-09-2016 07:25:00 13.9 C 92 % 12.62 C
91 01-09-2016 07:30:00 13.9 C 92 % 12.62 C
92 01-09-2016 07:35:00 13.9 C 92 % 12.62 C
93 01-09-2016 07:40:00 13.9 C 92 % 12.62 C
94 01-09-2016 07:45:00 14 C 93 % 12.89 C
95 01-09-2016 07:50:00 14.1 C 93 % 12.99 C
96 01-09-2016 07:55:00 14.2 C 93 % 13.08 C
97 01-09-2016 08:00:00 14.3 C 93 % 13.18 C
98 01-09-2016 08:05:00 14.3 C 93 % 13.18 C
99 01-09-2016 08:10:00 14.4 C 93 % 13.28 C
100 01-09-2016 08:15:00 14.6 C 93 % 13.48 C
Sensor: Nr:Datum:Temp:Feuchte:Taupunkt:
Aussen-T/F 101 01-09-2016 08:20:00 14.7 C 93 % 13.58 C
102 01-09-2016 08:25:00 14.8 C 94 % 13.84 C
103 01-09-2016 08:30:00 14.9 C 94 % 13.94 C
104 01-09-2016 08:35:00 15 C 93 % 13.88 C
105 01-09-2016 08:40:00 15.1 C 93 % 13.98 C
106 01-09-2016 08:45:00 15.1 C 93 % 13.98 C
107 01-09-2016 08:50:00 15.2 C 93 % 14.08 C
108 01-09-2016 08:55:00 15.2 C 93 % 14.08 C
109 01-09-2016 09:00:00 15.3 C 93 % 14.18 C
110 01-09-2016 09:05:00 15.4 C 93 % 14.27 C
111 01-09-2016 09:10:00 15.4 C 93 % 14.27 C
112 01-09-2016 09:15:00 15.6 C 93 % 14.47 C
113 01-09-2016 09:20:00 15.8 C 93 % 14.67 C
114 01-09-2016 09:25:00 15.8 C 93 % 14.67 C
115 01-09-2016 09:30:00 15.9 C 93 % 14.77 C
116 01-09-2016 09:35:00 16.1 C 93 % 14.97 C
117 01-09-2016 09:40:00 16.2 C 92 % 14.9 C
118 01-09-2016 09:45:00 16.3 C 92 % 15 C
119 01-09-2016 09:50:00 16.4 C 92 % 15.1 C
120 01-09-2016 09:55:00 16.6 C 91 % 15.13 C
121 01-09-2016 10:00:00 16.7 C 91 % 15.22 C
122 01-09-2016 10:05:00 16.9 C 90 % 15.25 C
123 01-09-2016 10:10:00 17.2 C 88 % 15.2 C
124 01-09-2016 10:15:00 17.4 C 88 % 15.39 C
125 01-09-2016 10:20:00 17.7 C 88 % 15.69 C
Sensor: Nr:Datum:Temp:Feuchte:Taupunkt:
Aussen-T/F 126 01-09-2016 10:25:00 17.8 C 86 % 15.43 C
127 01-09-2016 10:30:00 17.9 C 85 % 15.34 C
128 01-09-2016 10:35:00 18.1 C 85 % 15.54 C
129 01-09-2016 10:40:00 18.2 C 85 % 15.64 C
130 01-09-2016 10:45:00 18.3 C 84 % 15.55 C
131 01-09-2016 10:50:00 18.5 C 82 % 15.37 C
132 01-09-2016 10:55:00 18.7 C 82 % 15.57 C
133 01-09-2016 11:00:00 18.8 C 81 % 15.47 C
134 01-09-2016 11:05:00 19 C 81 % 15.67 C
135 01-09-2016 11:10:00 19.1 C 78 % 15.18 C
136 01-09-2016 11:15:00 19.2 C 79 % 15.47 C
137 01-09-2016 11:20:00 19.3 C 79 % 15.57 C
138 01-09-2016 11:25:00 19.6 C 78 % 15.66 C
139 01-09-2016 11:30:00 19.7 C 79 % 15.96 C
140 01-09-2016 11:35:00 19.8 C 78 % 15.85 C
141 01-09-2016 11:40:00 20 C 76 % 15.64 C
142 01-09-2016 11:45:00 20.3 C 74 % 15.51 C
143 01-09-2016 11:50:00 20.4 C 72 % 15.18 C
144 01-09-2016 11:55:00 20.6 C 73 % 15.59 C
145 01-09-2016 12:00:00 20.8 C 73 % 15.78 C
146 01-09-2016 12:05:00 20.9 C 74 % 16.09 C
147 01-09-2016 12:10:00 20.9 C 73 % 15.88 C
148 01-09-2016 12:15:00 20.9 C 74 % 16.09 C
149 01-09-2016 12:20:00 20.9 C 74 % 16.09 C
150 01-09-2016 12:25:00 20.9 C 72 % 15.66 C
Sensor: Nr:Datum:Temp:Feuchte:Taupunkt:
Aussen-T/F 151 01-09-2016 12:30:00 21 C 70 % 15.32 C
152 01-09-2016 12:35:00 21.1 C 70 % 15.42 C
153 01-09-2016 12:40:00 21.2 C 72 % 15.95 C
154 01-09-2016 12:45:00 21.2 C 73 % 16.17 C
155 01-09-2016 12:50:00 21.2 C 70 % 15.51 C
156 01-09-2016 12:55:00 21.3 C 69 % 15.38 C
157 01-09-2016 13:00:00 21.5 C 68 % 15.35 C
158 01-09-2016 13:05:00 21.7 C 68 % 15.54 C
159 01-09-2016 13:10:00 21.8 C 68 % 15.63 C
160 01-09-2016 13:15:00 22 C 67 % 15.59 C
161 01-09-2016 13:20:00 22.1 C 66 % 15.45 C
162 01-09-2016 13:25:00 22.2 C 66 % 15.55 C
163 01-09-2016 13:30:00 22.3 C 66 % 15.64 C
164 01-09-2016 13:35:00 22.4 C 66 % 15.74 C
165 01-09-2016 13:40:00 22.5 C 65 % 15.59 C
166 01-09-2016 13:45:00 22.7 C 65 % 15.78 C
167 01-09-2016 13:50:00 22.9 C 64 % 15.73 C
168 01-09-2016 13:55:00 23 C 64 % 15.82 C
169 01-09-2016 14:00:00 23.2 C 63 % 15.77 C
170 01-09-2016 14:05:00 23.3 C 62 % 15.61 C
171 01-09-2016 14:10:00 23.4 C 62 % 15.71 C
172 01-09-2016 14:15:00 23.5 C 62 % 15.8 C
173 01-09-2016 14:20:00 23.7 C 61 % 15.73 C
174 01-09-2016 14:25:00 23.9 C 61 % 15.92 C
175 01-09-2016 14:30:00 24 C 60 % 15.76 C
Sensor: Nr:Datum:Temp:Feuchte:Taupunkt:
Aussen-T/F 176 01-09-2016 14:35:00 24.1 C 60 % 15.85 C
177 01-09-2016 14:40:00 24.1 C 60 % 15.85 C
178 01-09-2016 14:45:00 24.2 C 59 % 15.68 C
179 01-09-2016 14:50:00 24.2 C 59 % 15.68 C
180 01-09-2016 14:55:00 24.3 C 60 % 16.04 C
181 01-09-2016 15:00:00 24.4 C 59 % 15.87 C
182 01-09-2016 15:05:00 24.6 C 56 % 15.24 C
183 01-09-2016 15:10:00 24.6 C 57 % 15.52 C
184 01-09-2016 15:15:00 24.7 C 57 % 15.61 C
185 01-09-2016 15:20:00 24.8 C 55 % 15.15 C
186 01-09-2016 15:25:00 24.9 C 57 % 15.8 C
187 01-09-2016 15:30:00 24.9 C 56 % 15.52 C
188 01-09-2016 15:35:00 25 C 56 % 15.61 C
189 01-09-2016 15:40:00 25.1 C 55 % 15.43 C
190 01-09-2016 15:45:00 25.2 C 55 % 15.52 C
191 01-09-2016 15:50:00 25.3 C 54 % 15.33 C
192 01-09-2016 15:55:00 25.3 C 55 % 15.61 C
193 01-09-2016 16:00:00 25.3 C 53 % 15.03 C
194 01-09-2016 16:05:00 25.4 C 54 % 15.42 C
195 01-09-2016 16:10:00 25.6 C 54 % 15.6 C
196 01-09-2016 16:15:00 25.7 C 53 % 15.4 C
197 01-09-2016 16:20:00 25.8 C 53 % 15.5 C
198 01-09-2016 16:25:00 25.8 C 52 % 15.2 C
199 01-09-2016 16:30:00 25.8 C 52 % 15.2 C
200 01-09-2016 16:35:00 25.8 C 56 % 16.36 C
Sensor: Nr:Datum:Temp:Feuchte:Taupunkt:
Aussen-T/F 201 01-09-2016 16:40:00 25.7 C 52 % 15.11 C
202 01-09-2016 16:45:00 25.8 C 53 % 15.5 C
203 01-09-2016 16:50:00 26.1 C 53 % 15.77 C
204 01-09-2016 16:55:00 26.5 C 51 % 15.54 C
205 01-09-2016 17:00:00 26.4 C 51 % 15.45 C
206 01-09-2016 17:05:00 26.3 C 50 % 15.05 C
207 01-09-2016 17:10:00 26 C 51 % 15.08 C
208 01-09-2016 17:15:00 26 C 51 % 15.08 C
209 01-09-2016 17:20:00 26.1 C 50 % 14.87 C
210 01-09-2016 17:25:00 25.9 C 51 % 14.99 C
211 01-09-2016 17:30:00 25.7 C 51 % 14.81 C
212 01-09-2016 17:35:00 25.7 C 52 % 15.11 C
213 01-09-2016 17:40:00 25.7 C 52 % 15.11 C
214 01-09-2016 17:45:00 25.7 C 57 % 16.54 C
215 01-09-2016 17:50:00 25.5 C 59 % 16.9 C
216 01-09-2016 17:55:00 25.1 C 62 % 17.31 C
217 01-09-2016 18:00:00 24.6 C 60 % 16.32 C
218 01-09-2016 18:05:00 24.4 C 57 % 15.33 C
219 01-09-2016 18:10:00 24.7 C 54 % 14.77 C
220 01-09-2016 18:15:00 25.2 C 53 % 14.94 C
221 01-09-2016 18:20:00 25.7 C 53 % 15.4 C
222 01-09-2016 18:25:00 26 C 51 % 15.08 C
223 01-09-2016 18:30:00 26.1 C 50 % 14.87 C
224 01-09-2016 18:35:00 26.2 C 50 % 14.96 C
225 01-09-2016 18:40:00 25.9 C 50 % 14.68 C
Sensor: Nr:Datum:Temp:Feuchte:Taupunkt:
Aussen-T/F 226 01-09-2016 18:45:00 25.6 C 50 % 14.41 C
227 01-09-2016 18:50:00 25.2 C 52 % 14.65 C
228 01-09-2016 18:55:00 24.9 C 53 % 14.66 C
229 01-09-2016 19:00:00 24.7 C 55 % 15.05 C
230 01-09-2016 19:05:00 24.7 C 55 % 15.05 C
231 01-09-2016 19:10:00 24.8 C 55 % 15.15 C
232 01-09-2016 19:15:00 24.9 C 55 % 15.24 C
233 01-09-2016 19:20:00 24.9 C 56 % 15.52 C
234 01-09-2016 19:25:00 24.8 C 56 % 15.43 C
235 01-09-2016 19:30:00 24.5 C 55 % 14.87 C
236 01-09-2016 19:35:00 24.3 C 56 % 14.96 C
237 01-09-2016 19:40:00 24.2 C 56 % 14.87 C
238 01-09-2016 19:45:00 24.1 C 57 % 15.05 C
239 01-09-2016 19:50:00 23.9 C 58 % 15.14 C
240 01-09-2016 19:55:00 23.7 C 60 % 15.48 C
241 01-09-2016 20:00:00 23.3 C 59 % 14.84 C
242 01-09-2016 20:05:00 23.1 C 62 % 15.42 C
243 01-09-2016 20:10:00 22.8 C 61 % 14.89 C
244 01-09-2016 20:15:00 22.4 C 63 % 15.01 C
245 01-09-2016 20:20:00 22.1 C 64 % 14.97 C
246 01-09-2016 20:25:00 22 C 65 % 15.12 C
247 01-09-2016 20:30:00 21.9 C 65 % 15.02 C
248 01-09-2016 20:35:00 21.9 C 65 % 15.02 C
249 01-09-2016 20:40:00 22 C 65 % 15.12 C
250 01-09-2016 20:45:00 22 C 66 % 15.36 C
Sensor: Nr:Datum:Temp:Feuchte:Taupunkt:
Aussen-T/F 251 01-09-2016 20:50:00 22 C 67 % 15.59 C
252 01-09-2016 20:55:00 21.9 C 68 % 15.73 C
253 01-09-2016 21:00:00 21.7 C 68 % 15.54 C
254 01-09-2016 21:05:00 21.5 C 69 % 15.57 C
255 01-09-2016 21:10:00 21.3 C 70 % 15.61 C
256 01-09-2016 21:15:00 21 C 71 % 15.54 C
257 01-09-2016 21:20:00 20.8 C 72 % 15.57 C
258 01-09-2016 21:25:00 20.4 C 74 % 15.61 C
259 01-09-2016 21:30:00 20.1 C 75 % 15.53 C
260 01-09-2016 21:35:00 19.8 C 76 % 15.45 C
261 01-09-2016 21:40:00 19.6 C 77 % 15.46 C
262 01-09-2016 21:45:00 19.4 C 78 % 15.47 C
263 01-09-2016 21:50:00 19.4 C 78 % 15.47 C
264 01-09-2016 21:55:00 19.4 C 78 % 15.47 C
265 01-09-2016 22:00:00 19.4 C 79 % 15.66 C
266 01-09-2016 22:05:00 19.3 C 79 % 15.57 C
267 01-09-2016 22:10:00 19.2 C 79 % 15.47 C
268 01-09-2016 22:15:00 19.1 C 80 % 15.57 C
269 01-09-2016 22:20:00 18.9 C 80 % 15.38 C
270 01-09-2016 22:25:00 18.9 C 80 % 15.38 C
271 01-09-2016 22:30:00 18.8 C 80 % 15.28 C
272 01-09-2016 22:35:00 18.7 C 81 % 15.37 C
273 01-09-2016 22:40:00 18.7 C 81 % 15.37 C
274 01-09-2016 22:45:00 18.6 C 81 % 15.28 C
275 01-09-2016 22:50:00 18.5 C 81 % 15.18 C
Sensor: Nr:Datum:Temp:Feuchte:Taupunkt:
Aussen-T/F 276 01-09-2016 22:55:00 18.4 C 82 % 15.27 C
277 01-09-2016 23:00:00 18.4 C 83 % 15.46 C
278 01-09-2016 23:05:00 18.4 C 83 % 15.46 C
279 01-09-2016 23:10:00 18.4 C 83 % 15.46 C
280 01-09-2016 23:15:00 18.4 C 83 % 15.46 C
281 01-09-2016 23:20:00 18.3 C 82 % 15.17 C
282 01-09-2016 23:25:00 18.3 C 82 % 15.17 C
283 01-09-2016 23:30:00 18.2 C 82 % 15.08 C
284 01-09-2016 23:35:00 18.2 C 82 % 15.08 C
285 01-09-2016 23:40:00 18.1 C 83 % 15.17 C
286 01-09-2016 23:45:00 18 C 83 % 15.07 C
287 01-09-2016 23:50:00 17.9 C 83 % 14.97 C
288 01-09-2016 23:55:00 17.7 C 84 % 14.96 C
289 02-09-2016 00:00:00 17.7 C 84 % 14.96 C
290 02-09-2016 00:05:00 17.6 C 85 % 15.05 C
291 02-09-2016 00:10:00 17.5 C 85 % 14.95 C
292 02-09-2016 00:15:00 17.5 C 85 % 14.95 C
293 02-09-2016 00:20:00 17.4 C 85 % 14.85 C
294 02-09-2016 00:25:00 17.4 C 85 % 14.85 C
295 02-09-2016 00:30:00 17.4 C 85 % 14.85 C
296 02-09-2016 00:35:00 17.3 C 85 % 14.76 C
297 02-09-2016 00:40:00 17.2 C 85 % 14.66 C
298 02-09-2016 00:45:00 17.1 C 85 % 14.56 C
299 02-09-2016 00:50:00 16.9 C 86 % 14.54 C
300 02-09-2016 00:55:00 16.8 C 86 % 14.45 C
Sensor: Nr:Datum:Temp:Feuchte:Taupunkt:
Aussen-T/F 301 02-09-2016 01:00:00 16.7 C 86 % 14.35 C
302 02-09-2016 01:05:00 16.6 C 87 % 14.43 C
303 02-09-2016 01:10:00 16.6 C 88 % 14.6 C
304 02-09-2016 01:15:00 16.5 C 88 % 14.51 C
305 02-09-2016 01:20:00 16.4 C 88 % 14.41 C
306 02-09-2016 01:25:00 16.4 C 88 % 14.41 C
307 02-09-2016 01:30:00 16.3 C 88 % 14.31 C
308 02-09-2016 01:35:00 16.2 C 88 % 14.21 C
309 02-09-2016 01:40:00 16.2 C 88 % 14.21 C
310 02-09-2016 01:45:00 16 C 89 % 14.19 C
311 02-09-2016 01:50:00 15.9 C 88 % 13.92 C
312 02-09-2016 01:55:00 15.8 C 89 % 13.99 C
313 02-09-2016 02:00:00 15.7 C 89 % 13.89 C
314 02-09-2016 02:05:00 15.6 C 90 % 13.97 C
315 02-09-2016 02:10:00 15.6 C 90 % 13.97 C
316 02-09-2016 02:15:00 15.6 C 90 % 13.97 C
317 02-09-2016 02:20:00 15.5 C 90 % 13.87 C
318 02-09-2016 02:25:00 15.4 C 90 % 13.77 C
319 02-09-2016 02:30:00 15.3 C 91 % 13.84 C
320 02-09-2016 02:35:00 15.3 C 90 % 13.67 C
321 02-09-2016 02:40:00 15.1 C 90 % 13.47 C
322 02-09-2016 02:45:00 15.1 C 91 % 13.64 C
323 02-09-2016 02:50:00 15.1 C 91 % 13.64 C
324 02-09-2016 02:55:00 15.1 C 92 % 13.81 C
325 02-09-2016 03:00:00 15 C 91 % 13.54 C
Sensor: Nr:Datum:Temp:Feuchte:Taupunkt:
Aussen-T/F 326 02-09-2016 03:05:00 14.9 C 91 % 13.44 C
327 02-09-2016 03:10:00 14.8 C 92 % 13.51 C
328 02-09-2016 03:15:00 14.8 C 92 % 13.51 C
329 02-09-2016 03:20:00 14.8 C 92 % 13.51 C
330 02-09-2016 03:25:00 14.9 C 93 % 13.78 C
331 02-09-2016 03:30:00 14.8 C 92 % 13.51 C
332 02-09-2016 03:35:00 14.8 C 92 % 13.51 C
333 02-09-2016 03:40:00 14.7 C 92 % 13.41 C
334 02-09-2016 03:45:00 14.7 C 92 % 13.41 C
335 02-09-2016 03:50:00 14.6 C 92 % 13.32 C
336 02-09-2016 03:55:00 14.5 C 92 % 13.22 C
337 02-09-2016 04:00:00 14.5 C 93 % 13.38 C
338 02-09-2016 04:05:00 14.4 C 93 % 13.28 C
339 02-09-2016 04:10:00 14.4 C 93 % 13.28 C
340 02-09-2016 04:15:00 14.4 C 93 % 13.28 C
341 02-09-2016 04:20:00 14.3 C 93 % 13.18 C
342 02-09-2016 04:25:00 14.2 C 93 % 13.08 C
343 02-09-2016 04:30:00 14.2 C 93 % 13.08 C
344 02-09-2016 04:35:00 14.1 C 93 % 12.99 C
345 02-09-2016 04:40:00 14.1 C 93 % 12.99 C
346 02-09-2016 04:45:00 14.1 C 93 % 12.99 C
347 02-09-2016 04:50:00 14.1 C 93 % 12.99 C
348 02-09-2016 04:55:00 14 C 93 % 12.89 C
349 02-09-2016 05:00:00 13.9 C 93 % 12.79 C
350 02-09-2016 05:05:00 13.9 C 93 % 12.79 C
Sensor: Nr:Datum:Temp:Feuchte:Taupunkt:
Aussen-T/F 351 02-09-2016 05:10:00 13.9 C 94 % 12.95 C
352 02-09-2016 05:15:00 13.9 C 93 % 12.79 C
353 02-09-2016 05:20:00 13.8 C 93 % 12.69 C
354 02-09-2016 05:25:00 13.7 C 94 % 12.75 C
355 02-09-2016 05:30:00 13.7 C 94 % 12.75 C
356 02-09-2016 05:35:00 13.7 C 93 % 12.59 C
357 02-09-2016 05:40:00 13.6 C 94 % 12.65 C
358 02-09-2016 05:45:00 13.6 C 93 % 12.49 C
359 02-09-2016 05:50:00 13.5 C 94 % 12.55 C
360 02-09-2016 05:55:00 13.4 C 94 % 12.45 C
361 02-09-2016 06:00:00 13.4 C 94 % 12.45 C
362 02-09-2016 06:05:00 13.4 C 94 % 12.45 C
363 02-09-2016 06:10:00 13.4 C 94 % 12.45 C
364 02-09-2016 06:15:00 13.3 C 94 % 12.36 C
365 02-09-2016 06:20:00 13.3 C 94 % 12.36 C
366 02-09-2016 06:25:00 13.3 C 94 % 12.36 C
367 02-09-2016 06:30:00 13.3 C 94 % 12.36 C
368 02-09-2016 06:35:00 13.3 C 94 % 12.36 C
369 02-09-2016 06:40:00 13.2 C 94 % 12.26 C
370 02-09-2016 06:45:00 13.1 C 94 % 12.16 C
371 02-09-2016 06:50:00 13.1 C 94 % 12.16 C
372 02-09-2016 06:55:00 13 C 94 % 12.06 C
373 02-09-2016 07:00:00 13.1 C 94 % 12.16 C
374 02-09-2016 07:05:00 13 C 94 % 12.06 C
375 02-09-2016 07:10:00 13 C 94 % 12.06 C
Sensor: Nr:Datum:Temp:Feuchte:Taupunkt:
Aussen-T/F 376 02-09-2016 07:15:00 13 C 95 % 12.22 C
377 02-09-2016 07:20:00 13.1 C 95 % 12.32 C
378 02-09-2016 07:25:00 13.1 C 95 % 12.32 C
379 02-09-2016 07:30:00 13.2 C 95 % 12.42 C
380 02-09-2016 07:35:00 13.3 C 95 % 12.52 C
381 02-09-2016 07:40:00 13.4 C 95 % 12.62 C
382 02-09-2016 07:45:00 13.4 C 95 % 12.62 C
383 02-09-2016 07:50:00 13.6 C 95 % 12.81 C
384 02-09-2016 07:55:00 13.6 C 95 % 12.81 C
385 02-09-2016 08:00:00 13.7 C 95 % 12.91 C
386 02-09-2016 08:05:00 13.7 C 95 % 12.91 C
387 02-09-2016 08:10:00 13.7 C 95 % 12.91 C
388 02-09-2016 08:15:00 13.7 C 95 % 12.91 C
389 02-09-2016 08:20:00 13.7 C 95 % 12.91 C
390 02-09-2016 08:25:00 13.7 C 95 % 12.91 C
391 02-09-2016 08:30:00 13.7 C 95 % 12.91 C
392 02-09-2016 08:35:00 13.7 C 95 % 12.91 C
393 02-09-2016 08:40:00 13.8 C 95 % 13.01 C
394 02-09-2016 08:45:00 13.8 C 95 % 13.01 C
395 02-09-2016 08:50:00 13.8 C 95 % 13.01 C
396 02-09-2016 08:55:00 13.8 C 95 % 13.01 C
397 02-09-2016 09:00:00 13.8 C 95 % 13.01 C
398 02-09-2016 09:05:00 13.9 C 95 % 13.11 C
399 02-09-2016 09:10:00 13.9 C 95 % 13.11 C
400 02-09-2016 09:15:00 14 C 95 % 13.21 C
Sensor: Nr:Datum:Temp:Feuchte:Taupunkt:
Aussen-T/F 401 02-09-2016 09:20:00 14.1 C 95 % 13.31 C
402 02-09-2016 09:25:00 14.2 C 95 % 13.41 C
403 02-09-2016 09:30:00 14.2 C 95 % 13.41 C
404 02-09-2016 09:35:00 14.3 C 95 % 13.51 C
405 02-09-2016 09:40:00 14.4 C 96 % 13.77 C
406 02-09-2016 09:45:00 14.6 C 95 % 13.81 C
407 02-09-2016 09:50:00 14.7 C 95 % 13.91 C
408 02-09-2016 09:55:00 14.8 C 96 % 14.17 C
409 02-09-2016 10:00:00 14.9 C 96 % 14.27 C
410 02-09-2016 10:05:00 15 C 95 % 14.21 C
411 02-09-2016 10:10:00 15.2 C 96 % 14.57 C
412 02-09-2016 10:15:00 15.3 C 96 % 14.67 C
413 02-09-2016 10:20:00 15.4 C 96 % 14.77 C
414 02-09-2016 10:25:00 15.5 C 96 % 14.86 C
415 02-09-2016 10:30:00 15.6 C 95 % 14.8 C
416 02-09-2016 10:35:00 15.8 C 95 % 15 C
417 02-09-2016 10:40:00 16.1 C 95 % 15.3 C
418 02-09-2016 10:45:00 16.2 C 95 % 15.4 C
419 02-09-2016 10:50:00 16.4 C 95 % 15.6 C
420 02-09-2016 10:55:00 16.7 C 95 % 15.9 C
421 02-09-2016 11:00:00 16.8 C 95 % 15.99 C
422 02-09-2016 11:05:00 17 C 94 % 16.03 C
423 02-09-2016 11:10:00 17.3 C 94 % 16.33 C
424 02-09-2016 11:15:00 17.5 C 93 % 16.36 C
425 02-09-2016 11:20:00 17.7 C 92 % 16.38 C
Sensor: Nr:Datum:Temp:Feuchte:Taupunkt:
Aussen-T/F 426 02-09-2016 11:25:00 18 C 91 % 16.51 C
427 02-09-2016 11:30:00 18.3 C 90 % 16.63 C
428 02-09-2016 11:35:00 18.6 C 89 % 16.75 C
429 02-09-2016 11:40:00 18.9 C 86 % 16.51 C
430 02-09-2016 11:45:00 19.4 C 81 % 16.06 C
431 02-09-2016 11:50:00 19.8 C 79 % 16.05 C
432 02-09-2016 11:55:00 20.1 C 81 % 16.74 C
433 02-09-2016 12:00:00 20.3 C 79 % 16.54 C
434 02-09-2016 12:05:00 20.5 C 75 % 15.92 C
435 02-09-2016 12:10:00 20.7 C 77 % 16.52 C
436 02-09-2016 12:15:00 20.8 C 77 % 16.62 C
437 02-09-2016 12:20:00 21.1 C 73 % 16.07 C
438 02-09-2016 12:25:00 21.4 C 71 % 15.93 C
439 02-09-2016 12:30:00 21.8 C 70 % 16.09 C
440 02-09-2016 12:35:00 22 C 72 % 16.72 C
441 02-09-2016 12:40:00 22.1 C 71 % 16.6 C
442 02-09-2016 12:45:00 22.2 C 67 % 15.78 C
443 02-09-2016 12:50:00 22.3 C 72 % 17.01 C
444 02-09-2016 12:55:00 22.5 C 67 % 16.07 C
445 02-09-2016 13:00:00 22.6 C 65 % 15.69 C
446 02-09-2016 13:05:00 22.6 C 73 % 17.51 C
447 02-09-2016 13:10:00 22.6 C 71 % 17.07 C
448 02-09-2016 13:15:00 22.4 C 66 % 15.74 C
449 02-09-2016 13:20:00 22.4 C 65 % 15.5 C
450 02-09-2016 13:25:00 22.4 C 66 % 15.74 C
Sensor: Nr:Datum:Temp:Feuchte:Taupunkt:
Aussen-T/F 451 02-09-2016 13:30:00 22.5 C 68 % 16.3 C
452 02-09-2016 13:35:00 22.6 C 62 % 14.95 C
453 02-09-2016 13:40:00 22.7 C 62 % 15.05 C
454 02-09-2016 13:45:00 22.9 C 59 % 14.47 C
455 02-09-2016 13:50:00 23.2 C 59 % 14.75 C
456 02-09-2016 13:55:00 23.3 C 64 % 16.11 C
457 02-09-2016 14:00:00 23.4 C 65 % 16.45 C
458 02-09-2016 14:05:00 23.4 C 62 % 15.71 C
459 02-09-2016 14:10:00 23.5 C 62 % 15.8 C
460 02-09-2016 14:15:00 23.6 C 60 % 15.38 C
461 02-09-2016 14:20:00 23.7 C 58 % 14.95 C
462 02-09-2016 14:25:00 23.9 C 64 % 16.68 C
463 02-09-2016 14:30:00 23.9 C 58 % 15.14 C
464 02-09-2016 14:35:00 24 C 59 % 15.5 C
465 02-09-2016 14:40:00 24.1 C 58 % 15.32 C
466 02-09-2016 14:45:00 24.3 C 59 % 15.78 C
467 02-09-2016 14:50:00 24.4 C 58 % 15.6 C
468 02-09-2016 14:55:00 24.6 C 56 % 15.24 C
469 02-09-2016 15:00:00 24.8 C 56 % 15.43 C
470 02-09-2016 15:05:00 24.8 C 58 % 15.98 C
471 02-09-2016 15:10:00 24.7 C 56 % 15.33 C
472 02-09-2016 15:15:00 24.6 C 55 % 14.96 C
473 02-09-2016 15:20:00 24.6 C 57 % 15.52 C
474 02-09-2016 15:25:00 24.6 C 57 % 15.52 C
475 02-09-2016 15:30:00 24.7 C 59 % 16.15 C
Sensor: Nr:Datum:Temp:Feuchte:Taupunkt:
Aussen-T/F 476 02-09-2016 15:35:00 24.8 C 56 % 15.43 C
477 02-09-2016 15:40:00 24.9 C 54 % 14.95 C
478 02-09-2016 15:45:00 25.1 C 56 % 15.71 C
479 02-09-2016 15:50:00 25.1 C 55 % 15.43 C
480 02-09-2016 15:55:00 25.2 C 55 % 15.52 C
481 02-09-2016 16:00:00 25.3 C 51 % 14.44 C
482 02-09-2016 16:05:00 25.7 C 54 % 15.7 C
483 02-09-2016 16:10:00 25.9 C 53 % 15.59 C
484 02-09-2016 16:15:00 25.9 C 58 % 17 C
485 02-09-2016 16:20:00 25.8 C 57 % 16.64 C
486 02-09-2016 16:25:00 25.8 C 54 % 15.79 C
487 02-09-2016 16:30:00 26 C 56 % 16.54 C
488 02-09-2016 16:35:00 26.2 C 55 % 16.45 C
489 02-09-2016 16:40:00 26.4 C 52 % 15.75 C
490 02-09-2016 16:45:00 26.8 C 50 % 15.51 C
491 02-09-2016 16:50:00 26.9 C 54 % 16.81 C
492 02-09-2016 16:55:00 27.2 C 52 % 16.49 C
493 02-09-2016 17:00:00 27.5 C 46 % 14.85 C
494 02-09-2016 17:05:00 27.7 C 48 % 15.69 C
495 02-09-2016 17:10:00 27.8 C 54 % 17.64 C
496 02-09-2016 17:15:00 27.6 C 53 % 17.16 C
497 02-09-2016 17:20:00 27.2 C 51 % 16.18 C
498 02-09-2016 17:25:00 26.7 C 55 % 16.91 C
499 02-09-2016 17:30:00 26.3 C 57 % 17.1 C
500 02-09-2016 17:35:00 25.8 C 58 % 16.91 C
Sensor: Nr:Datum:Temp:Feuchte:Taupunkt:
Aussen-T/F 501 02-09-2016 17:40:00 25.4 C 61 % 17.33 C
502 02-09-2016 17:45:00 25.1 C 62 % 17.31 C
503 02-09-2016 17:50:00 24.8 C 62 % 17.02 C
504 02-09-2016 17:55:00 24.6 C 62 % 16.84 C
505 02-09-2016 18:00:00 24.4 C 63 % 16.9 C
506 02-09-2016 18:05:00 24.3 C 64 % 17.05 C
507 02-09-2016 18:10:00 24.3 C 64 % 17.05 C
508 02-09-2016 18:15:00 24.2 C 65 % 17.2 C
509 02-09-2016 18:20:00 24.1 C 64 % 16.86 C
510 02-09-2016 18:25:00 24 C 64 % 16.77 C
511 02-09-2016 18:30:00 23.9 C 65 % 16.92 C
512 02-09-2016 18:35:00 23.8 C 65 % 16.83 C
513 02-09-2016 18:40:00 23.6 C 65 % 16.64 C
514 02-09-2016 18:45:00 23.3 C 66 % 16.59 C
515 02-09-2016 18:50:00 23.1 C 66 % 16.4 C
516 02-09-2016 18:55:00 22.8 C 66 % 16.12 C
517 02-09-2016 19:00:00 22.6 C 67 % 16.16 C
518 02-09-2016 19:05:00 22.3 C 67 % 15.88 C
519 02-09-2016 19:10:00 22.1 C 67 % 15.69 C
520 02-09-2016 19:15:00 21.9 C 67 % 15.5 C
521 02-09-2016 19:20:00 21.8 C 67 % 15.4 C
522 02-09-2016 19:25:00 21.6 C 67 % 15.21 C
523 02-09-2016 19:30:00 21.4 C 67 % 15.02 C
524 02-09-2016 19:35:00 21.3 C 68 % 15.16 C
525 02-09-2016 19:40:00 21.2 C 68 % 15.06 C
Sensor: Nr:Datum:Temp:Feuchte:Taupunkt:
Aussen-T/F 526 02-09-2016 19:45:00 21.2 C 68 % 15.06 C
527 02-09-2016 19:50:00 21.1 C 67 % 14.74 C
528 02-09-2016 19:55:00 21.1 C 67 % 14.74 C
529 02-09-2016 20:00:00 21 C 66 % 14.41 C
530 02-09-2016 20:05:00 20.9 C 66 % 14.31 C
531 02-09-2016 20:10:00 20.9 C 66 % 14.31 C
532 02-09-2016 20:15:00 20.9 C 67 % 14.55 C
533 02-09-2016 20:20:00 20.9 C 65 % 14.08 C
534 02-09-2016 20:25:00 20.8 C 68 % 14.68 C
535 02-09-2016 20:30:00 20.8 C 67 % 14.45 C
536 02-09-2016 20:35:00 20.7 C 68 % 14.58 C
537 02-09-2016 20:40:00 20.6 C 69 % 14.71 C
538 02-09-2016 20:45:00 20.4 C 68 % 14.3 C
539 02-09-2016 20:50:00 20.3 C 70 % 14.65 C
540 02-09-2016 20:55:00 20.2 C 69 % 14.33 C
541 02-09-2016 21:00:00 20.2 C 69 % 14.33 C
542 02-09-2016 21:05:00 20.2 C 70 % 14.56 C
543 02-09-2016 21:10:00 20.2 C 70 % 14.56 C
544 02-09-2016 21:15:00 20.1 C 70 % 14.46 C
545 02-09-2016 21:20:00 20 C 71 % 14.58 C
546 02-09-2016 21:25:00 19.9 C 71 % 14.49 C
547 02-09-2016 21:30:00 19.9 C 71 % 14.49 C
548 02-09-2016 21:35:00 19.9 C 70 % 14.27 C
549 02-09-2016 21:40:00 19.9 C 69 % 14.05 C
550 02-09-2016 21:45:00 19.9 C 70 % 14.27 C
Sensor: Nr:Datum:Temp:Feuchte:Taupunkt:
Aussen-T/F 551 02-09-2016 21:50:00 20 C 70 % 14.36 C
552 02-09-2016 21:55:00 20.1 C 71 % 14.68 C
553 02-09-2016 22:00:00 20.1 C 70 % 14.46 C
554 02-09-2016 22:05:00 20.1 C 71 % 14.68 C
555 02-09-2016 22:10:00 20.1 C 71 % 14.68 C
556 02-09-2016 22:15:00 20.1 C 72 % 14.9 C
557 02-09-2016 22:20:00 20.1 C 73 % 15.11 C
558 02-09-2016 22:25:00 20 C 73 % 15.01 C
559 02-09-2016 22:30:00 19.9 C 74 % 15.13 C
560 02-09-2016 22:35:00 19.9 C 74 % 15.13 C
561 02-09-2016 22:40:00 19.8 C 75 % 15.24 C
562 02-09-2016 22:45:00 19.8 C 76 % 15.45 C
563 02-09-2016 22:50:00 19.7 C 76 % 15.35 C
564 02-09-2016 22:55:00 19.7 C 76 % 15.35 C
565 02-09-2016 23:00:00 19.6 C 77 % 15.46 C
566 02-09-2016 23:05:00 19.6 C 77 % 15.46 C
567 02-09-2016 23:10:00 19.6 C 77 % 15.46 C
568 02-09-2016 23:15:00 19.5 C 78 % 15.56 C
569 02-09-2016 23:20:00 19.4 C 78 % 15.47 C
570 02-09-2016 23:25:00 19.3 C 78 % 15.37 C
571 02-09-2016 23:30:00 19.2 C 78 % 15.27 C
572 02-09-2016 23:35:00 19.1 C 80 % 15.57 C
573 02-09-2016 23:40:00 19 C 79 % 15.28 C
574 02-09-2016 23:45:00 18.9 C 80 % 15.38 C
575 02-09-2016 23:50:00 18.9 C 80 % 15.38 C
Sensor: Nr:Datum:Temp:Feuchte:Taupunkt:
Aussen-T/F 576 02-09-2016 23:55:00 18.8 C 81 % 15.47 C
577 03-09-2016 00:00:00 18.7 C 81 % 15.37 C
578 03-09-2016 00:05:00 18.7 C 81 % 15.37 C
579 03-09-2016 00:10:00 18.6 C 82 % 15.47 C
580 03-09-2016 00:15:00 18.6 C 82 % 15.47 C
581 03-09-2016 00:20:00 18.5 C 82 % 15.37 C
582 03-09-2016 00:25:00 18.4 C 82 % 15.27 C
583 03-09-2016 00:30:00 18.3 C 82 % 15.17 C
584 03-09-2016 00:35:00 18.2 C 82 % 15.08 C
585 03-09-2016 00:40:00 18.1 C 83 % 15.17 C
586 03-09-2016 00:45:00 18.1 C 83 % 15.17 C
587 03-09-2016 00:50:00 18 C 83 % 15.07 C
588 03-09-2016 00:55:00 18 C 84 % 15.26 C
589 03-09-2016 01:00:00 17.9 C 83 % 14.97 C
590 03-09-2016 01:05:00 17.9 C 84 % 15.16 C
591 03-09-2016 01:10:00 17.9 C 84 % 15.16 C
592 03-09-2016 01:15:00 17.9 C 84 % 15.16 C
593 03-09-2016 01:20:00 17.8 C 84 % 15.06 C
594 03-09-2016 01:25:00 17.8 C 84 % 15.06 C
595 03-09-2016 01:30:00 17.8 C 85 % 15.25 C
596 03-09-2016 01:35:00 17.8 C 84 % 15.06 C
597 03-09-2016 01:40:00 17.8 C 84 % 15.06 C
598 03-09-2016 01:45:00 17.8 C 84 % 15.06 C
599 03-09-2016 01:50:00 17.8 C 85 % 15.25 C
600 03-09-2016 01:55:00 17.8 C 86 % 15.43 C
Sensor: Nr:Datum:Temp:Feuchte:Taupunkt:
Aussen-T/F 601 03-09-2016 02:00:00 17.8 C 86 % 15.43 C
602 03-09-2016 02:05:00 17.7 C 86 % 15.33 C
603 03-09-2016 02:10:00 17.6 C 86 % 15.23 C
604 03-09-2016 02:15:00 17.5 C 86 % 15.13 C
605 03-09-2016 02:20:00 17.4 C 86 % 15.03 C
606 03-09-2016 02:25:00 17.4 C 86 % 15.03 C
607 03-09-2016 02:30:00 17.4 C 87 % 15.21 C
608 03-09-2016 02:35:00 17.4 C 87 % 15.21 C
609 03-09-2016 02:40:00 17.3 C 87 % 15.12 C
610 03-09-2016 02:45:00 17.3 C 87 % 15.12 C
611 03-09-2016 02:50:00 17.4 C 86 % 15.03 C
612 03-09-2016 02:55:00 17.4 C 86 % 15.03 C
613 03-09-2016 03:00:00 17.5 C 86 % 15.13 C
614 03-09-2016 03:05:00 17.5 C 86 % 15.13 C
615 03-09-2016 03:10:00 17.5 C 86 % 15.13 C
616 03-09-2016 03:15:00 17.4 C 86 % 15.03 C
617 03-09-2016 03:20:00 17.4 C 86 % 15.03 C
618 03-09-2016 03:25:00 17.4 C 86 % 15.03 C
619 03-09-2016 03:30:00 17.4 C 86 % 15.03 C
620 03-09-2016 03:35:00 17.3 C 85 % 14.76 C
621 03-09-2016 03:40:00 17.2 C 85 % 14.66 C
622 03-09-2016 03:45:00 17.1 C 85 % 14.56 C
623 03-09-2016 03:50:00 16.8 C 86 % 14.45 C
624 03-09-2016 03:55:00 16.7 C 86 % 14.35 C
625 03-09-2016 04:00:00 16.7 C 87 % 14.53 C
Sensor: Nr:Datum:Temp:Feuchte:Taupunkt:
Aussen-T/F 626 03-09-2016 04:05:00 16.7 C 87 % 14.53 C
627 03-09-2016 04:10:00 16.7 C 87 % 14.53 C
628 03-09-2016 04:15:00 16.6 C 87 % 14.43 C
629 03-09-2016 04:20:00 16.5 C 87 % 14.33 C
630 03-09-2016 04:25:00 16.4 C 88 % 14.41 C
631 03-09-2016 04:30:00 16.4 C 88 % 14.41 C
632 03-09-2016 04:35:00 16.4 C 88 % 14.41 C
633 03-09-2016 04:40:00 16.4 C 88 % 14.41 C
634 03-09-2016 04:45:00 16.3 C 88 % 14.31 C
635 03-09-2016 04:50:00 16.3 C 89 % 14.48 C
636 03-09-2016 04:55:00 16.2 C 89 % 14.39 C
637 03-09-2016 05:00:00 16.2 C 89 % 14.39 C
638 03-09-2016 05:05:00 16.2 C 89 % 14.39 C
639 03-09-2016 05:10:00 16.1 C 89 % 14.29 C
640 03-09-2016 05:15:00 16 C 89 % 14.19 C
641 03-09-2016 05:20:00 15.9 C 89 % 14.09 C
642 03-09-2016 05:25:00 15.8 C 89 % 13.99 C
643 03-09-2016 05:30:00 15.7 C 89 % 13.89 C
644 03-09-2016 05:35:00 15.6 C 89 % 13.79 C
645 03-09-2016 05:40:00 15.6 C 89 % 13.79 C
646 03-09-2016 05:45:00 15.4 C 89 % 13.6 C
647 03-09-2016 05:50:00 15.3 C 89 % 13.5 C
648 03-09-2016 05:55:00 15.2 C 90 % 13.57 C
649 03-09-2016 06:00:00 15.1 C 90 % 13.47 C
650 03-09-2016 06:05:00 15.1 C 90 % 13.47 C
Sensor: Nr:Datum:Temp:Feuchte:Taupunkt:
Aussen-T/F 651 03-09-2016 06:10:00 14.9 C 90 % 13.28 C
652 03-09-2016 06:15:00 14.9 C 91 % 13.44 C
653 03-09-2016 06:20:00 14.8 C 91 % 13.35 C
654 03-09-2016 06:25:00 14.8 C 91 % 13.35 C
655 03-09-2016 06:30:00 14.7 C 91 % 13.25 C
656 03-09-2016 06:35:00 14.6 C 91 % 13.15 C
657 03-09-2016 06:40:00 14.5 C 91 % 13.05 C
658 03-09-2016 06:45:00 14.4 C 92 % 13.12 C
659 03-09-2016 06:50:00 14.4 C 92 % 13.12 C
660 03-09-2016 06:55:00 14.3 C 92 % 13.02 C
661 03-09-2016 07:00:00 14.3 C 92 % 13.02 C
662 03-09-2016 07:05:00 14.3 C 92 % 13.02 C
663 03-09-2016 07:10:00 14.3 C 92 % 13.02 C
664 03-09-2016 07:15:00 14.3 C 93 % 13.18 C
665 03-09-2016 07:20:00 14.3 C 93 % 13.18 C
666 03-09-2016 07:25:00 14.3 C 93 % 13.18 C
667 03-09-2016 07:30:00 14.4 C 93 % 13.28 C
668 03-09-2016 07:35:00 14.4 C 93 % 13.28 C
669 03-09-2016 07:40:00 14.6 C 93 % 13.48 C
670 03-09-2016 07:45:00 14.7 C 93 % 13.58 C
671 03-09-2016 07:50:00 14.7 C 93 % 13.58 C
672 03-09-2016 07:55:00 14.8 C 94 % 13.84 C
673 03-09-2016 08:00:00 14.9 C 94 % 13.94 C
674 03-09-2016 08:05:00 15.1 C 93 % 13.98 C
675 03-09-2016 08:10:00 15.2 C 93 % 14.08 C
Sensor: Nr:Datum:Temp:Feuchte:Taupunkt:
Aussen-T/F 676 03-09-2016 08:15:00 15.2 C 93 % 14.08 C
677 03-09-2016 08:20:00 15.3 C 93 % 14.18 C
678 03-09-2016 08:25:00 15.3 C 93 % 14.18 C
679 03-09-2016 08:30:00 15.4 C 93 % 14.27 C
680 03-09-2016 08:35:00 15.5 C 93 % 14.37 C
681 03-09-2016 08:40:00 15.6 C 93 % 14.47 C
682 03-09-2016 08:45:00 15.7 C 92 % 14.4 C
683 03-09-2016 08:50:00 15.8 C 92 % 14.5 C
684 03-09-2016 08:55:00 15.9 C 91 % 14.43 C
685 03-09-2016 09:00:00 16 C 91 % 14.53 C
686 03-09-2016 09:05:00 16.1 C 91 % 14.63 C
687 03-09-2016 09:10:00 16.3 C 91 % 14.83 C
688 03-09-2016 09:15:00 16.3 C 90 % 14.66 C
689 03-09-2016 09:20:00 16.4 C 90 % 14.76 C
690 03-09-2016 09:25:00 16.5 C 89 % 14.68 C
691 03-09-2016 09:30:00 16.6 C 90 % 14.95 C
692 03-09-2016 09:35:00 16.7 C 90 % 15.05 C
693 03-09-2016 09:40:00 16.8 C 89 % 14.98 C
694 03-09-2016 09:45:00 16.8 C 90 % 15.15 C
695 03-09-2016 09:50:00 17 C 90 % 15.35 C
696 03-09-2016 09:55:00 17.1 C 90 % 15.45 C
697 03-09-2016 10:00:00 17.2 C 91 % 15.72 C
698 03-09-2016 10:05:00 17.3 C 90 % 15.64 C
699 03-09-2016 10:10:00 17.3 C 89 % 15.47 C
700 03-09-2016 10:15:00 17.5 C 90 % 15.84 C
Sensor: Nr:Datum:Temp:Feuchte:Taupunkt:
Aussen-T/F 701 03-09-2016 10:20:00 17.6 C 89 % 15.77 C
702 03-09-2016 10:25:00 17.8 C 89 % 15.96 C
703 03-09-2016 10:30:00 18 C 88 % 15.98 C
704 03-09-2016 10:35:00 18.2 C 88 % 16.18 C
705 03-09-2016 10:40:00 18.4 C 87 % 16.2 C
706 03-09-2016 10:45:00 18.7 C 84 % 15.94 C
707 03-09-2016 10:50:00 19 C 84 % 16.24 C
708 03-09-2016 10:55:00 19.3 C 83 % 16.34 C
709 03-09-2016 11:00:00 19.6 C 81 % 16.25 C
710 03-09-2016 11:05:00 19.9 C 80 % 16.35 C
711 03-09-2016 11:10:00 20.2 C 81 % 16.84 C
712 03-09-2016 11:15:00 20.5 C 81 % 17.13 C
713 03-09-2016 11:20:00 20.8 C 81 % 17.42 C
714 03-09-2016 11:25:00 20.9 C 78 % 16.92 C
715 03-09-2016 11:30:00 21.1 C 80 % 17.51 C
716 03-09-2016 11:35:00 21.2 C 79 % 17.41 C
717 03-09-2016 11:40:00 21.3 C 80 % 17.71 C
718 03-09-2016 11:45:00 21.4 C 81 % 18 C
719 03-09-2016 11:50:00 21.6 C 80 % 18 C
720 03-09-2016 11:55:00 21.8 C 80 % 18.2 C
721 03-09-2016 12:00:00 21.9 C 73 % 16.84 C
722 03-09-2016 12:05:00 22.2 C 71 % 16.69 C
723 03-09-2016 12:10:00 22.4 C 69 % 16.43 C
724 03-09-2016 12:15:00 22.6 C 68 % 16.39 C
725 03-09-2016 12:20:00 22.7 C 72 % 17.39 C
Sensor: Nr:Datum:Temp:Feuchte:Taupunkt:
Aussen-T/F 726 03-09-2016 12:25:00 22.8 C 69 % 16.82 C
727 03-09-2016 12:30:00 23.1 C 75 % 18.43 C
728 03-09-2016 12:35:00 23.3 C 72 % 17.97 C
729 03-09-2016 12:40:00 23.4 C 69 % 17.39 C
730 03-09-2016 12:45:00 23.7 C 67 % 17.21 C
731 03-09-2016 12:50:00 23.8 C 67 % 17.3 C
732 03-09-2016 12:55:00 23.9 C 66 % 17.16 C
733 03-09-2016 13:00:00 23.9 C 67 % 17.4 C
734 03-09-2016 13:05:00 24 C 66 % 17.26 C
735 03-09-2016 13:10:00 24.1 C 66 % 17.35 C
736 03-09-2016 13:15:00 24.1 C 65 % 17.11 C
737 03-09-2016 13:20:00 24.2 C 64 % 16.96 C
738 03-09-2016 13:25:00 24.2 C 66 % 17.45 C
739 03-09-2016 13:30:00 24.3 C 62 % 16.55 C
740 03-09-2016 13:35:00 24.5 C 64 % 17.24 C
741 03-09-2016 13:40:00 24.6 C 59 % 16.06 C
742 03-09-2016 13:45:00 24.8 C 67 % 18.25 C
743 03-09-2016 13:50:00 24.8 C 62 % 17.02 C
744 03-09-2016 13:55:00 24.9 C 68 % 18.59 C
745 03-09-2016 14:00:00 24.9 C 60 % 16.6 C
746 03-09-2016 14:05:00 25.2 C 56 % 15.8 C
747 03-09-2016 14:10:00 25.5 C 55 % 15.8 C
748 03-09-2016 14:15:00 25.7 C 57 % 16.54 C
749 03-09-2016 14:20:00 25.9 C 57 % 16.73 C
750 03-09-2016 14:25:00 26.1 C 56 % 16.64 C
Sensor: Nr:Datum:Temp:Feuchte:Taupunkt:
Aussen-T/F 751 03-09-2016 14:30:00 26.3 C 54 % 16.25 C
752 03-09-2016 14:35:00 26.4 C 52 % 15.75 C
753 03-09-2016 14:40:00 26.5 C 53 % 16.14 C
754 03-09-2016 14:45:00 26.6 C 51 % 15.63 C
755 03-09-2016 14:50:00 26.6 C 53 % 16.23 C
756 03-09-2016 14:55:00 26.7 C 52 % 16.03 C
757 03-09-2016 15:00:00 26.8 C 51 % 15.82 C
758 03-09-2016 15:05:00 26.8 C 56 % 17.29 C
759 03-09-2016 15:10:00 26.9 C 53 % 16.51 C
760 03-09-2016 15:15:00 26.9 C 50 % 15.6 C
761 03-09-2016 15:20:00 27 C 50 % 15.69 C
762 03-09-2016 15:25:00 26.9 C 51 % 15.91 C
763 03-09-2016 15:30:00 26.9 C 52 % 16.21 C
764 03-09-2016 15:35:00 26.9 C 52 % 16.21 C
765 03-09-2016 15:40:00 26.8 C 53 % 16.42 C
766 03-09-2016 15:45:00 26.9 C 52 % 16.21 C
767 03-09-2016 15:50:00 27 C 49 % 15.38 C
768 03-09-2016 15:55:00 27.1 C 49 % 15.47 C
769 03-09-2016 16:00:00 27.2 C 50 % 15.87 C
770 03-09-2016 16:05:00 27.2 C 49 % 15.56 C
771 03-09-2016 16:10:00 27.2 C 52 % 16.49 C
772 03-09-2016 16:15:00 27.3 C 48 % 15.33 C
773 03-09-2016 16:20:00 27.4 C 50 % 16.06 C
774 03-09-2016 16:25:00 27.5 C 52 % 16.76 C
775 03-09-2016 16:30:00 27.7 C 49 % 16.01 C
Sensor: Nr:Datum:Temp:Feuchte:Taupunkt:
Aussen-T/F 776 03-09-2016 16:35:00 28.2 C 47 % 15.82 C
777 03-09-2016 16:40:00 28.6 C 46 % 15.85 C
778 03-09-2016 16:45:00 28.7 C 46 % 15.94 C
779 03-09-2016 16:50:00 28.9 C 49 % 17.11 C
780 03-09-2016 16:55:00 29.1 C 44 % 15.6 C
781 03-09-2016 17:00:00 29.2 C 47 % 16.73 C
782 03-09-2016 17:05:00 29.4 C 43 % 15.51 C
783 03-09-2016 17:10:00 29.6 C 43 % 15.69 C
784 03-09-2016 17:15:00 29.7 C 42 % 15.42 C
785 03-09-2016 17:20:00 29.8 C 46 % 16.93 C
786 03-09-2016 17:25:00 29.8 C 42 % 15.51 C
787 03-09-2016 17:30:00 29.7 C 41 % 15.04 C
788 03-09-2016 17:35:00 29.4 C 42 % 15.15 C
789 03-09-2016 17:40:00 29.4 C 45 % 16.23 C
790 03-09-2016 17:45:00 29.3 C 47 % 16.82 C
791 03-09-2016 17:50:00 29.2 C 48 % 17.06 C
792 03-09-2016 17:55:00 29 C 46 % 16.21 C
793 03-09-2016 18:00:00 28.8 C 47 % 16.36 C
794 03-09-2016 18:05:00 28.9 C 47 % 16.45 C
795 03-09-2016 18:10:00 29.1 C 46 % 16.3 C
796 03-09-2016 18:15:00 29.3 C 47 % 16.82 C
797 03-09-2016 18:20:00 29.4 C 45 % 16.23 C
798 03-09-2016 18:25:00 29.4 C 50 % 17.89 C
799 03-09-2016 18:30:00 29.1 C 45 % 15.95 C
800 03-09-2016 18:35:00 28.9 C 48 % 16.79 C
Sensor: Nr:Datum:Temp:Feuchte:Taupunkt:
Aussen-T/F 801 03-09-2016 18:40:00 28.6 C 51 % 17.47 C
802 03-09-2016 18:45:00 28.1 C 53 % 17.62 C
803 03-09-2016 18:50:00 27.4 C 54 % 17.27 C
804 03-09-2016 18:55:00 26.8 C 55 % 17 C
805 03-09-2016 19:00:00 26.6 C 54 % 16.53 C
806 03-09-2016 19:05:00 26.7 C 52 % 16.03 C
807 03-09-2016 19:10:00 26.9 C 56 % 17.38 C
808 03-09-2016 19:15:00 26.9 C 54 % 16.81 C
809 03-09-2016 19:20:00 26.8 C 55 % 17 C
810 03-09-2016 19:25:00 26.5 C 55 % 16.72 C
811 03-09-2016 19:30:00 26.2 C 55 % 16.45 C
812 03-09-2016 19:35:00 25.8 C 57 % 16.64 C
813 03-09-2016 19:40:00 25.4 C 58 % 16.54 C
814 03-09-2016 19:45:00 25 C 59 % 16.43 C
815 03-09-2016 19:50:00 24.6 C 60 % 16.32 C
816 03-09-2016 19:55:00 24.2 C 62 % 16.46 C
817 03-09-2016 20:00:00 23.8 C 62 % 16.08 C
818 03-09-2016 20:05:00 23.4 C 63 % 15.96 C
819 03-09-2016 20:10:00 23.1 C 65 % 16.16 C
820 03-09-2016 20:15:00 22.8 C 66 % 16.12 C
821 03-09-2016 20:20:00 22.5 C 66 % 15.83 C
822 03-09-2016 20:25:00 22.3 C 67 % 15.88 C
823 03-09-2016 20:30:00 22.1 C 67 % 15.69 C
824 03-09-2016 20:35:00 22 C 67 % 15.59 C
825 03-09-2016 20:40:00 21.9 C 67 % 15.5 C
Sensor: Nr:Datum:Temp:Feuchte:Taupunkt:
Aussen-T/F 826 03-09-2016 20:45:00 21.9 C 67 % 15.5 C
827 03-09-2016 20:50:00 21.9 C 67 % 15.5 C
828 03-09-2016 20:55:00 21.8 C 68 % 15.63 C
829 03-09-2016 21:00:00 21.7 C 69 % 15.77 C
830 03-09-2016 21:05:00 21.6 C 68 % 15.44 C
831 03-09-2016 21:10:00 21.5 C 68 % 15.35 C
832 03-09-2016 21:15:00 21.4 C 69 % 15.48 C
833 03-09-2016 21:20:00 21.2 C 67 % 14.83 C
834 03-09-2016 21:25:00 21.2 C 69 % 15.29 C
835 03-09-2016 21:30:00 21.1 C 69 % 15.19 C
836 03-09-2016 21:35:00 21 C 69 % 15.1 C
837 03-09-2016 21:40:00 20.9 C 69 % 15 C
838 03-09-2016 21:45:00 20.8 C 69 % 14.91 C
839 03-09-2016 21:50:00 20.6 C 70 % 14.94 C
840 03-09-2016 21:55:00 20.4 C 70 % 14.75 C
841 03-09-2016 22:00:00 20.2 C 70 % 14.56 C
842 03-09-2016 22:05:00 20 C 70 % 14.36 C
843 03-09-2016 22:10:00 19.9 C 70 % 14.27 C
844 03-09-2016 22:15:00 19.7 C 70 % 14.08 C
845 03-09-2016 22:20:00 19.6 C 70 % 13.98 C
846 03-09-2016 22:25:00 19.6 C 70 % 13.98 C
847 03-09-2016 22:30:00 19.4 C 71 % 14.01 C
848 03-09-2016 22:35:00 19.3 C 71 % 13.91 C
849 03-09-2016 22:40:00 19.2 C 71 % 13.82 C
850 03-09-2016 22:45:00 19.2 C 71 % 13.82 C
Sensor: Nr:Datum:Temp:Feuchte:Taupunkt:
Aussen-T/F 851 03-09-2016 22:50:00 19.1 C 71 % 13.72 C
852 03-09-2016 22:55:00 19 C 71 % 13.63 C
853 03-09-2016 23:00:00 18.9 C 71 % 13.53 C
854 03-09-2016 23:05:00 18.9 C 72 % 13.74 C
855 03-09-2016 23:10:00 18.8 C 72 % 13.65 C
856 03-09-2016 23:15:00 18.8 C 72 % 13.65 C
857 03-09-2016 23:20:00 18.9 C 73 % 13.96 C
858 03-09-2016 23:25:00 18.9 C 72 % 13.74 C
859 03-09-2016 23:30:00 18.9 C 73 % 13.96 C
860 03-09-2016 23:35:00 18.8 C 73 % 13.86 C
861 03-09-2016 23:40:00 18.7 C 74 % 13.97 C
862 03-09-2016 23:45:00 18.6 C 74 % 13.88 C
863 03-09-2016 23:50:00 18.5 C 75 % 13.99 C
864 03-09-2016 23:55:00 18.4 C 75 % 13.89 C
865 04-09-2016 00:00:00 18.3 C 75 % 13.79 C
866 04-09-2016 00:05:00 18.2 C 75 % 13.7 C
867 04-09-2016 00:10:00 18.2 C 76 % 13.9 C
868 04-09-2016 00:15:00 18.2 C 75 % 13.7 C
869 04-09-2016 00:20:00 18.1 C 74 % 13.4 C
870 04-09-2016 00:25:00 18.1 C 75 % 13.6 C
871 04-09-2016 00:30:00 18.1 C 75 % 13.6 C
872 04-09-2016 00:35:00 18 C 75 % 13.51 C
873 04-09-2016 00:40:00 17.9 C 76 % 13.61 C
874 04-09-2016 00:45:00 17.8 C 76 % 13.52 C
875 04-09-2016 00:50:00 17.6 C 76 % 13.32 C
Sensor: Nr:Datum:Temp:Feuchte:Taupunkt:
Aussen-T/F 876 04-09-2016 00:55:00 17.5 C 77 % 13.43 C
877 04-09-2016 01:00:00 17.3 C 77 % 13.23 C
878 04-09-2016 01:05:00 17.2 C 78 % 13.33 C
879 04-09-2016 01:10:00 17.1 C 79 % 13.43 C
880 04-09-2016 01:15:00 16.9 C 79 % 13.24 C
881 04-09-2016 01:20:00 16.8 C 79 % 13.14 C
882 04-09-2016 01:25:00 16.8 C 80 % 13.33 C
883 04-09-2016 01:30:00 16.7 C 80 % 13.23 C
884 04-09-2016 01:35:00 16.7 C 80 % 13.23 C
885 04-09-2016 01:40:00 16.6 C 80 % 13.14 C
886 04-09-2016 01:45:00 16.6 C 81 % 13.33 C
887 04-09-2016 01:50:00 16.6 C 81 % 13.33 C
888 04-09-2016 01:55:00 16.4 C 81 % 13.13 C
889 04-09-2016 02:00:00 16.4 C 81 % 13.13 C
890 04-09-2016 02:05:00 16.3 C 81 % 13.04 C
891 04-09-2016 02:10:00 16.2 C 82 % 13.13 C
892 04-09-2016 02:15:00 16.1 C 82 % 13.03 C
893 04-09-2016 02:20:00 16.1 C 82 % 13.03 C
894 04-09-2016 02:25:00 16 C 82 % 12.93 C
895 04-09-2016 02:30:00 15.9 C 83 % 13.02 C
896 04-09-2016 02:35:00 15.9 C 83 % 13.02 C
897 04-09-2016 02:40:00 15.9 C 83 % 13.02 C
898 04-09-2016 02:45:00 15.9 C 83 % 13.02 C
899 04-09-2016 02:50:00 15.9 C 83 % 13.02 C
900 04-09-2016 02:55:00 15.9 C 84 % 13.2 C
Sensor: Nr:Datum:Temp:Feuchte:Taupunkt:
Aussen-T/F 901 04-09-2016 03:00:00 15.9 C 84 % 13.2 C
902 04-09-2016 03:05:00 15.9 C 84 % 13.2 C
903 04-09-2016 03:10:00 15.9 C 84 % 13.2 C
904 04-09-2016 03:15:00 15.9 C 84 % 13.2 C
905 04-09-2016 03:20:00 15.8 C 84 % 13.1 C
906 04-09-2016 03:25:00 15.8 C 84 % 13.1 C
907 04-09-2016 03:30:00 15.8 C 84 % 13.1 C
908 04-09-2016 03:35:00 15.8 C 84 % 13.1 C
909 04-09-2016 03:40:00 15.8 C 84 % 13.1 C
910 04-09-2016 03:45:00 15.9 C 84 % 13.2 C
911 04-09-2016 03:50:00 15.9 C 84 % 13.2 C
912 04-09-2016 03:55:00 16.1 C 84 % 13.4 C
913 04-09-2016 04:00:00 16.2 C 84 % 13.5 C
914 04-09-2016 04:05:00 16.2 C 84 % 13.5 C
915 04-09-2016 04:10:00 16.3 C 85 % 13.77 C
916 04-09-2016 04:15:00 16.4 C 84 % 13.69 C
917 04-09-2016 04:20:00 16.6 C 82 % 13.52 C
918 04-09-2016 04:25:00 16.8 C 81 % 13.52 C
919 04-09-2016 04:30:00 16.8 C 81 % 13.52 C
920 04-09-2016 04:35:00 16.8 C 81 % 13.52 C
921 04-09-2016 04:40:00 16.8 C 81 % 13.52 C
922 04-09-2016 04:45:00 16.8 C 82 % 13.71 C
923 04-09-2016 04:50:00 16.6 C 82 % 13.52 C
924 04-09-2016 04:55:00 16.5 C 82 % 13.42 C
925 04-09-2016 05:00:00 16.4 C 83 % 13.51 C
Sensor: Nr:Datum:Temp:Feuchte:Taupunkt:
Aussen-T/F 926 04-09-2016 05:05:00 16.3 C 84 % 13.59 C
927 04-09-2016 05:10:00 16.3 C 84 % 13.59 C
928 04-09-2016 05:15:00 16.3 C 84 % 13.59 C
929 04-09-2016 05:20:00 16.2 C 85 % 13.68 C
930 04-09-2016 05:25:00 16.2 C 85 % 13.68 C
931 04-09-2016 05:30:00 16.2 C 84 % 13.5 C
932 04-09-2016 05:35:00 16.2 C 84 % 13.5 C
933 04-09-2016 05:40:00 16.3 C 84 % 13.59 C
934 04-09-2016 05:45:00 16.4 C 84 % 13.69 C
935 04-09-2016 05:50:00 16.5 C 84 % 13.79 C
936 04-09-2016 05:55:00 16.6 C 84 % 13.89 C
937 04-09-2016 06:00:00 16.6 C 84 % 13.89 C
938 04-09-2016 06:05:00 16.6 C 84 % 13.89 C
939 04-09-2016 06:10:00 16.5 C 83 % 13.6 C
940 04-09-2016 06:15:00 16.4 C 84 % 13.69 C
941 04-09-2016 06:20:00 16.4 C 84 % 13.69 C
942 04-09-2016 06:25:00 16.5 C 82 % 13.42 C
943 04-09-2016 06:30:00 16.7 C 81 % 13.43 C
944 04-09-2016 06:35:00 16.8 C 81 % 13.52 C
945 04-09-2016 06:40:00 16.9 C 82 % 13.81 C
946 04-09-2016 06:45:00 16.9 C 83 % 14 C
947 04-09-2016 06:50:00 16.8 C 82 % 13.71 C
948 04-09-2016 06:55:00 16.8 C 82 % 13.71 C
949 04-09-2016 07:00:00 16.8 C 82 % 13.71 C
950 04-09-2016 07:05:00 16.8 C 83 % 13.9 C
Sensor: Nr:Datum:Temp:Feuchte:Taupunkt:
Aussen-T/F 951 04-09-2016 07:10:00 16.8 C 83 % 13.9 C
952 04-09-2016 07:15:00 16.7 C 83 % 13.8 C
953 04-09-2016 07:20:00 16.7 C 83 % 13.8 C
954 04-09-2016 07:25:00 16.8 C 83 % 13.9 C
955 04-09-2016 07:30:00 16.8 C 83 % 13.9 C
956 04-09-2016 07:35:00 16.8 C 82 % 13.71 C
957 04-09-2016 07:40:00 17 C 82 % 13.91 C
958 04-09-2016 07:45:00 17.2 C 81 % 13.91 C
959 04-09-2016 07:50:00 17.4 C 81 % 14.11 C
960 04-09-2016 07:55:00 17.4 C 82 % 14.3 C
961 04-09-2016 08:00:00 17.4 C 83 % 14.48 C
962 04-09-2016 08:05:00 17.4 C 86 % 15.03 C
963 04-09-2016 08:10:00 17.2 C 87 % 15.02 C
964 04-09-2016 08:15:00 17.1 C 88 % 15.1 C
965 04-09-2016 08:20:00 16.9 C 89 % 15.08 C
966 04-09-2016 08:25:00 16.8 C 90 % 15.15 C
967 04-09-2016 08:30:00 16.8 C 91 % 15.32 C
968 04-09-2016 08:35:00 16.7 C 91 % 15.22 C
969 04-09-2016 08:40:00 16.7 C 91 % 15.22 C
970 04-09-2016 08:45:00 16.7 C 92 % 15.39 C
971 04-09-2016 08:50:00 16.8 C 92 % 15.49 C
972 04-09-2016 08:55:00 16.8 C 92 % 15.49 C
973 04-09-2016 09:00:00 16.8 C 92 % 15.49 C
974 04-09-2016 09:05:00 16.8 C 93 % 15.66 C
975 04-09-2016 09:10:00 16.8 C 93 % 15.66 C
Sensor: Nr:Datum:Temp:Feuchte:Taupunkt:
Aussen-T/F 976 04-09-2016 09:15:00 16.8 C 93 % 15.66 C
977 04-09-2016 09:20:00 16.8 C 93 % 15.66 C
978 04-09-2016 09:25:00 16.8 C 93 % 15.66 C
979 04-09-2016 09:30:00 16.8 C 93 % 15.66 C
980 04-09-2016 09:35:00 16.8 C 93 % 15.66 C
981 04-09-2016 09:40:00 16.7 C 94 % 15.73 C
982 04-09-2016 09:45:00 16.7 C 94 % 15.73 C
983 04-09-2016 09:50:00 16.6 C 94 % 15.63 C
984 04-09-2016 09:55:00 16.6 C 94 % 15.63 C
985 04-09-2016 10:00:00 16.7 C 94 % 15.73 C
986 04-09-2016 10:05:00 16.7 C 94 % 15.73 C
987 04-09-2016 10:10:00 16.8 C 95 % 15.99 C
988 04-09-2016 10:15:00 16.8 C 95 % 15.99 C
989 04-09-2016 10:20:00 16.9 C 95 % 16.09 C
990 04-09-2016 10:25:00 17.1 C 95 % 16.29 C
991 04-09-2016 10:30:00 17.1 C 95 % 16.29 C
992 04-09-2016 10:35:00 17.1 C 95 % 16.29 C
993 04-09-2016 10:40:00 17 C 94 % 16.03 C
994 04-09-2016 10:45:00 16.9 C 94 % 15.93 C
995 04-09-2016 10:50:00 17.1 C 94 % 16.13 C
996 04-09-2016 10:55:00 17.2 C 94 % 16.23 C
997 04-09-2016 11:00:00 17.3 C 94 % 16.33 C
998 04-09-2016 11:05:00 17.4 C 94 % 16.42 C
999 04-09-2016 11:10:00 17.6 C 94 % 16.62 C
1000 04-09-2016 11:15:00 17.6 C 94 % 16.62 C
Sensor: Nr:Datum:Temp:Feuchte:Taupunkt:
Aussen-T/F 1001 04-09-2016 11:20:00 17.7 C 93 % 16.55 C
1002 04-09-2016 11:25:00 17.8 C 93 % 16.65 C
1003 04-09-2016 11:30:00 17.9 C 92 % 16.58 C
1004 04-09-2016 11:35:00 18.1 C 92 % 16.78 C
1005 04-09-2016 11:40:00 18.2 C 93 % 17.05 C
1006 04-09-2016 11:45:00 18.2 C 92 % 16.88 C
1007 04-09-2016 11:50:00 18.3 C 91 % 16.81 C
1008 04-09-2016 11:55:00 18.4 C 92 % 17.08 C
1009 04-09-2016 12:00:00 18.6 C 91 % 17.1 C
1010 04-09-2016 12:05:00 18.8 C 89 % 16.95 C
1011 04-09-2016 12:10:00 19.2 C 88 % 17.16 C
1012 04-09-2016 12:15:00 19.5 C 89 % 17.64 C
1013 04-09-2016 12:20:00 19.8 C 87 % 17.57 C
1014 04-09-2016 12:25:00 20.2 C 85 % 17.6 C
1015 04-09-2016 12:30:00 20.4 C 85 % 17.79 C
1016 04-09-2016 12:35:00 20.5 C 84 % 17.7 C
1017 04-09-2016 12:40:00 20.5 C 85 % 17.89 C
1018 04-09-2016 12:45:00 20.3 C 83 % 17.32 C
1019 04-09-2016 12:50:00 20.2 C 84 % 17.41 C
1020 04-09-2016 12:55:00 20.2 C 84 % 17.41 C
1021 04-09-2016 13:00:00 20.2 C 84 % 17.41 C
1022 04-09-2016 13:05:00 20.3 C 84 % 17.51 C
1023 04-09-2016 13:10:00 20.2 C 84 % 17.41 C
1024 04-09-2016 13:15:00 20.1 C 84 % 17.31 C
1025 04-09-2016 13:20:00 19.9 C 86 % 17.49 C
Sensor: Nr:Datum:Temp:Feuchte:Taupunkt:
Aussen-T/F 1026 04-09-2016 13:25:00 19.8 C 87 % 17.57 C
1027 04-09-2016 13:30:00 19.6 C 88 % 17.56 C
1028 04-09-2016 13:35:00 19.7 C 90 % 18.01 C
1029 04-09-2016 13:40:00 19.6 C 90 % 17.91 C
1030 04-09-2016 13:45:00 19.7 C 91 % 18.19 C
1031 04-09-2016 13:50:00 19.8 C 91 % 18.29 C
1032 04-09-2016 13:55:00 19.8 C 92 % 18.46 C
1033 04-09-2016 14:00:00 19.9 C 91 % 18.39 C
1034 04-09-2016 14:05:00 20 C 89 % 18.13 C
1035 04-09-2016 14:10:00 20.1 C 89 % 18.23 C
1036 04-09-2016 14:15:00 20.2 C 89 % 18.33 C
1037 04-09-2016 14:20:00 20.3 C 88 % 18.25 C
1038 04-09-2016 14:25:00 20.4 C 88 % 18.34 C
1039 04-09-2016 14:30:00 20.5 C 88 % 18.44 C
1040 04-09-2016 14:35:00 20.6 C 88 % 18.54 C
1041 04-09-2016 14:40:00 20.7 C 86 % 18.27 C
1042 04-09-2016 14:45:00 20.7 C 85 % 18.09 C
1043 04-09-2016 14:50:00 20.9 C 85 % 18.28 C
1044 04-09-2016 14:55:00 21 C 83 % 18 C
1045 04-09-2016 15:00:00 20.9 C 83 % 17.9 C
1046 04-09-2016 15:05:00 20.9 C 84 % 18.09 C
1047 04-09-2016 15:10:00 20.9 C 83 % 17.9 C
1048 04-09-2016 15:15:00 20.9 C 83 % 17.9 C
1049 04-09-2016 15:20:00 20.9 C 82 % 17.71 C
1050 04-09-2016 15:25:00 20.8 C 83 % 17.81 C
Sensor: Nr:Datum:Temp:Feuchte:Taupunkt:
Aussen-T/F 1051 04-09-2016 15:30:00 20.7 C 83 % 17.71 C
1052 04-09-2016 15:35:00 20.4 C 84 % 17.61 C
1053 04-09-2016 15:40:00 20.3 C 85 % 17.7 C
1054 04-09-2016 15:45:00 20.1 C 85 % 17.5 C
1055 04-09-2016 15:50:00 20.1 C 87 % 17.87 C
1056 04-09-2016 15:55:00 20.2 C 86 % 17.78 C
1057 04-09-2016 16:00:00 20.7 C 86 % 18.27 C
1058 04-09-2016 16:05:00 21.1 C 83 % 18.1 C
1059 04-09-2016 16:10:00 21.2 C 83 % 18.2 C
1060 04-09-2016 16:15:00 21.4 C 82 % 18.2 C
1061 04-09-2016 16:20:00 21.6 C 81 % 18.2 C
1062 04-09-2016 16:25:00 21.6 C 80 % 18 C
1063 04-09-2016 16:30:00 21.5 C 80 % 17.9 C
1064 04-09-2016 16:35:00 21.5 C 80 % 17.9 C
1065 04-09-2016 16:40:00 21.6 C 80 % 18 C
1066 04-09-2016 16:45:00 21.7 C 79 % 17.9 C
1067 04-09-2016 16:50:00 21.6 C 79 % 17.8 C
1068 04-09-2016 16:55:00 21.4 C 80 % 17.81 C
1069 04-09-2016 17:00:00 21.3 C 81 % 17.91 C
1070 04-09-2016 17:05:00 21.2 C 81 % 17.81 C
1071 04-09-2016 17:10:00 21.1 C 81 % 17.71 C
1072 04-09-2016 17:15:00 21.1 C 81 % 17.71 C
1073 04-09-2016 17:20:00 21.1 C 81 % 17.71 C
1074 04-09-2016 17:25:00 21.2 C 75 % 16.59 C
1075 04-09-2016 17:30:00 21.2 C 70 % 15.51 C
Sensor: Nr:Datum:Temp:Feuchte:Taupunkt:
Aussen-T/F 1076 04-09-2016 17:35:00 21.3 C 68 % 15.16 C
1077 04-09-2016 17:40:00 21.3 C 68 % 15.16 C
1078 04-09-2016 17:45:00 21.3 C 68 % 15.16 C
1079 04-09-2016 17:50:00 21.2 C 67 % 14.83 C
1080 04-09-2016 17:55:00 21.2 C 68 % 15.06 C
1081 04-09-2016 18:00:00 21.1 C 66 % 14.5 C
1082 04-09-2016 18:05:00 21 C 68 % 14.87 C
1083 04-09-2016 18:10:00 21 C 64 % 13.93 C
1084 04-09-2016 18:15:00 20.9 C 65 % 14.08 C
1085 04-09-2016 18:20:00 20.9 C 65 % 14.08 C
1086 04-09-2016 18:25:00 20.8 C 65 % 13.98 C
1087 04-09-2016 18:30:00 20.7 C 64 % 13.65 C
1088 04-09-2016 18:35:00 20.6 C 65 % 13.79 C
1089 04-09-2016 18:40:00 20.4 C 65 % 13.6 C
1090 04-09-2016 18:45:00 20.4 C 66 % 13.84 C
1091 04-09-2016 18:50:00 20.3 C 67 % 13.97 C
1092 04-09-2016 18:55:00 20.2 C 67 % 13.88 C
1093 04-09-2016 19:00:00 20.1 C 67 % 13.78 C
1094 04-09-2016 19:05:00 20 C 68 % 13.92 C
1095 04-09-2016 19:10:00 19.9 C 69 % 14.05 C
1096 04-09-2016 19:15:00 19.8 C 67 % 13.5 C
1097 04-09-2016 19:20:00 19.7 C 66 % 13.17 C
1098 04-09-2016 19:25:00 19.6 C 66 % 13.08 C
1099 04-09-2016 19:30:00 19.6 C 66 % 13.08 C
1100 04-09-2016 19:35:00 19.6 C 66 % 13.08 C
Sensor: Nr:Datum:Temp:Feuchte:Taupunkt:
Aussen-T/F 1101 04-09-2016 19:40:00 19.6 C 66 % 13.08 C
1102 04-09-2016 19:45:00 19.4 C 68 % 13.34 C
1103 04-09-2016 19:50:00 19.3 C 68 % 13.25 C
1104 04-09-2016 19:55:00 19.2 C 68 % 13.15 C
1105 04-09-2016 20:00:00 19.2 C 68 % 13.15 C
1106 04-09-2016 20:05:00 19.1 C 68 % 13.06 C
1107 04-09-2016 20:10:00 19.1 C 68 % 13.06 C
1108 04-09-2016 20:15:00 19.1 C 69 % 13.28 C
1109 04-09-2016 20:20:00 19.1 C 69 % 13.28 C
1110 04-09-2016 20:25:00 19 C 69 % 13.19 C
1111 04-09-2016 20:30:00 18.9 C 70 % 13.31 C
1112 04-09-2016 20:35:00 18.8 C 68 % 12.77 C
1113 04-09-2016 20:40:00 18.8 C 69 % 13 C
1114 04-09-2016 20:45:00 18.8 C 69 % 13 C
1115 04-09-2016 20:50:00 18.8 C 69 % 13 C
1116 04-09-2016 20:55:00 18.8 C 69 % 13 C
1117 04-09-2016 21:00:00 18.8 C 70 % 13.22 C
1118 04-09-2016 21:05:00 18.8 C 70 % 13.22 C
1119 04-09-2016 21:10:00 18.7 C 70 % 13.12 C
1120 04-09-2016 21:15:00 18.7 C 70 % 13.12 C
1121 04-09-2016 21:20:00 18.6 C 71 % 13.24 C
1122 04-09-2016 21:25:00 18.4 C 72 % 13.26 C
1123 04-09-2016 21:30:00 18.3 C 73 % 13.38 C
1124 04-09-2016 21:35:00 18.1 C 75 % 13.6 C
1125 04-09-2016 21:40:00 17.9 C 76 % 13.61 C
Sensor: Nr:Datum:Temp:Feuchte:Taupunkt:
Aussen-T/F 1126 04-09-2016 21:45:00 17.8 C 76 % 13.52 C
1127 04-09-2016 21:50:00 17.7 C 77 % 13.62 C
1128 04-09-2016 21:55:00 17.6 C 78 % 13.72 C
1129 04-09-2016 22:00:00 17.4 C 79 % 13.72 C
1130 04-09-2016 22:05:00 17.3 C 79 % 13.63 C
1131 04-09-2016 22:10:00 17.3 C 80 % 13.82 C
1132 04-09-2016 22:15:00 17.2 C 80 % 13.72 C
1133 04-09-2016 22:20:00 17.2 C 81 % 13.91 C
1134 04-09-2016 22:25:00 17.2 C 81 % 13.91 C
1135 04-09-2016 22:30:00 17.1 C 81 % 13.82 C
1136 04-09-2016 22:35:00 17.1 C 81 % 13.82 C
1137 04-09-2016 22:40:00 17.1 C 81 % 13.82 C
1138 04-09-2016 22:45:00 17.1 C 82 % 14 C
1139 04-09-2016 22:50:00 17 C 81 % 13.72 C
1140 04-09-2016 22:55:00 17 C 82 % 13.91 C
1141 04-09-2016 23:00:00 17 C 82 % 13.91 C
1142 04-09-2016 23:05:00 16.9 C 82 % 13.81 C
1143 04-09-2016 23:10:00 16.9 C 82 % 13.81 C
1144 04-09-2016 23:15:00 16.9 C 82 % 13.81 C
1145 04-09-2016 23:20:00 16.8 C 83 % 13.9 C
1146 04-09-2016 23:25:00 16.7 C 83 % 13.8 C
1147 04-09-2016 23:30:00 16.6 C 83 % 13.7 C
1148 04-09-2016 23:35:00 16.5 C 84 % 13.79 C
1149 04-09-2016 23:40:00 16.4 C 84 % 13.69 C
1150 04-09-2016 23:45:00 16.3 C 84 % 13.59 C
Sensor: Nr:Datum:Temp:Feuchte:Taupunkt:
Aussen-T/F 1151 04-09-2016 23:50:00 16.2 C 85 % 13.68 C
1152 04-09-2016 23:55:00 16.2 C 86 % 13.86 C
1153 05-09-2016 00:00:00 16.2 C 86 % 13.86 C
1154 05-09-2016 00:05:00 16.2 C 86 % 13.86 C
1155 05-09-2016 00:10:00 16.2 C 85 % 13.68 C
1156 05-09-2016 00:15:00 16.2 C 85 % 13.68 C
1157 05-09-2016 00:20:00 16.3 C 85 % 13.77 C
1158 05-09-2016 00:25:00 16.3 C 85 % 13.77 C
1159 05-09-2016 00:30:00 16.3 C 84 % 13.59 C
1160 05-09-2016 00:35:00 16.3 C 85 % 13.77 C
1161 05-09-2016 00:40:00 16.2 C 85 % 13.68 C
1162 05-09-2016 00:45:00 16.2 C 85 % 13.68 C
1163 05-09-2016 00:50:00 16.2 C 85 % 13.68 C
1164 05-09-2016 00:55:00 16.3 C 85 % 13.77 C
1165 05-09-2016 01:00:00 16.3 C 84 % 13.59 C
1166 05-09-2016 01:05:00 16.3 C 84 % 13.59 C
1167 05-09-2016 01:10:00 16.3 C 84 % 13.59 C
1168 05-09-2016 01:15:00 16.3 C 85 % 13.77 C
1169 05-09-2016 01:20:00 16.2 C 84 % 13.5 C
1170 05-09-2016 01:25:00 16.1 C 85 % 13.58 C
1171 05-09-2016 01:30:00 16 C 85 % 13.48 C
1172 05-09-2016 01:35:00 15.9 C 85 % 13.38 C
1173 05-09-2016 01:40:00 15.8 C 85 % 13.28 C
1174 05-09-2016 01:45:00 15.8 C 85 % 13.28 C
1175 05-09-2016 01:50:00 15.8 C 86 % 13.46 C
Sensor: Nr:Datum:Temp:Feuchte:Taupunkt:
Aussen-T/F 1176 05-09-2016 01:55:00 15.7 C 86 % 13.37 C
1177 05-09-2016 02:00:00 15.7 C 86 % 13.37 C
1178 05-09-2016 02:05:00 15.6 C 86 % 13.27 C
1179 05-09-2016 02:10:00 15.4 C 87 % 13.25 C
1180 05-09-2016 02:15:00 15.4 C 87 % 13.25 C
1181 05-09-2016 02:20:00 15.3 C 87 % 13.15 C
1182 05-09-2016 02:25:00 15.2 C 88 % 13.23 C
1183 05-09-2016 02:30:00 15.2 C 88 % 13.23 C
1184 05-09-2016 02:35:00 15.2 C 88 % 13.23 C
1185 05-09-2016 02:40:00 15.3 C 89 % 13.5 C
1186 05-09-2016 02:45:00 15.4 C 88 % 13.42 C
1187 05-09-2016 02:50:00 15.4 C 88 % 13.42 C
1188 05-09-2016 02:55:00 15.6 C 87 % 13.45 C
1189 05-09-2016 03:00:00 15.7 C 87 % 13.54 C
1190 05-09-2016 03:05:00 15.7 C 87 % 13.54 C
1191 05-09-2016 03:10:00 15.8 C 87 % 13.64 C
1192 05-09-2016 03:15:00 15.8 C 86 % 13.46 C
1193 05-09-2016 03:20:00 15.9 C 85 % 13.38 C
1194 05-09-2016 03:25:00 15.9 C 85 % 13.38 C
1195 05-09-2016 03:30:00 16 C 85 % 13.48 C
1196 05-09-2016 03:35:00 16 C 85 % 13.48 C
1197 05-09-2016 03:40:00 16 C 85 % 13.48 C
1198 05-09-2016 03:45:00 16 C 85 % 13.48 C
1199 05-09-2016 03:50:00 15.9 C 85 % 13.38 C
1200 05-09-2016 03:55:00 16 C 85 % 13.48 C
Sensor: Nr:Datum:Temp:Feuchte:Taupunkt:
Aussen-T/F 1201 05-09-2016 04:00:00 15.9 C 85 % 13.38 C
1202 05-09-2016 04:05:00 15.9 C 85 % 13.38 C
1203 05-09-2016 04:10:00 15.8 C 85 % 13.28 C
1204 05-09-2016 04:15:00 15.7 C 85 % 13.19 C
1205 05-09-2016 04:20:00 15.6 C 85 % 13.09 C
1206 05-09-2016 04:25:00 15.5 C 86 % 13.17 C
1207 05-09-2016 04:30:00 15.4 C 86 % 13.07 C
1208 05-09-2016 04:35:00 15.3 C 86 % 12.97 C
1209 05-09-2016 04:40:00 15.2 C 87 % 13.05 C
1210 05-09-2016 04:45:00 15.1 C 87 % 12.95 C
1211 05-09-2016 04:50:00 15.1 C 88 % 13.13 C
1212 05-09-2016 04:55:00 15 C 88 % 13.03 C
1213 05-09-2016 05:00:00 15 C 88 % 13.03 C
1214 05-09-2016 05:05:00 15 C 89 % 13.2 C
1215 05-09-2016 05:10:00 15 C 89 % 13.2 C
1216 05-09-2016 05:15:00 15 C 89 % 13.2 C
1217 05-09-2016 05:20:00 15 C 89 % 13.2 C
1218 05-09-2016 05:25:00 15 C 89 % 13.2 C
1219 05-09-2016 05:30:00 15 C 89 % 13.2 C
1220 05-09-2016 05:35:00 15.1 C 89 % 13.3 C
1221 05-09-2016 05:40:00 15.1 C 89 % 13.3 C
1222 05-09-2016 05:45:00 15.1 C 89 % 13.3 C
1223 05-09-2016 05:50:00 15.1 C 89 % 13.3 C
1224 05-09-2016 05:55:00 15.1 C 89 % 13.3 C
1225 05-09-2016 06:00:00 15.2 C 89 % 13.4 C
Sensor: Nr:Datum:Temp:Feuchte:Taupunkt:
Aussen-T/F 1226 05-09-2016 06:05:00 15.2 C 89 % 13.4 C
1227 05-09-2016 06:10:00 15.2 C 89 % 13.4 C
1228 05-09-2016 06:15:00 15.3 C 88 % 13.33 C
1229 05-09-2016 06:20:00 15.3 C 88 % 13.33 C
1230 05-09-2016 06:25:00 15.3 C 88 % 13.33 C
1231 05-09-2016 06:30:00 15.3 C 88 % 13.33 C
1232 05-09-2016 06:35:00 15.3 C 88 % 13.33 C
1233 05-09-2016 06:40:00 15.3 C 88 % 13.33 C
1234 05-09-2016 06:45:00 15.4 C 88 % 13.42 C
1235 05-09-2016 06:50:00 15.4 C 88 % 13.42 C
1236 05-09-2016 06:55:00 15.4 C 88 % 13.42 C
1237 05-09-2016 07:00:00 15.5 C 88 % 13.52 C
1238 05-09-2016 07:05:00 15.5 C 88 % 13.52 C
1239 05-09-2016 07:10:00 15.6 C 87 % 13.45 C
1240 05-09-2016 07:15:00 15.6 C 87 % 13.45 C
1241 05-09-2016 07:20:00 15.7 C 87 % 13.54 C
1242 05-09-2016 07:25:00 15.7 C 88 % 13.72 C
1243 05-09-2016 07:30:00 15.7 C 88 % 13.72 C
1244 05-09-2016 07:35:00 15.7 C 88 % 13.72 C
1245 05-09-2016 07:40:00 15.7 C 88 % 13.72 C
1246 05-09-2016 07:45:00 15.7 C 88 % 13.72 C
1247 05-09-2016 07:50:00 15.7 C 88 % 13.72 C
1248 05-09-2016 07:55:00 15.7 C 88 % 13.72 C
1249 05-09-2016 08:00:00 15.7 C 88 % 13.72 C
1250 05-09-2016 08:05:00 15.7 C 88 % 13.72 C
Sensor: Nr:Datum:Temp:Feuchte:Taupunkt:
Aussen-T/F 1251 05-09-2016 08:10:00 15.7 C 88 % 13.72 C
1252 05-09-2016 08:15:00 15.8 C 88 % 13.82 C
1253 05-09-2016 08:20:00 15.8 C 88 % 13.82 C
1254 05-09-2016 08:25:00 15.9 C 88 % 13.92 C
1255 05-09-2016 08:30:00 16 C 88 % 14.01 C
1256 05-09-2016 08:35:00 16.1 C 88 % 14.11 C
1257 05-09-2016 08:40:00 16.2 C 87 % 14.03 C
1258 05-09-2016 08:45:00 16.3 C 87 % 14.13 C
1259 05-09-2016 08:50:00 16.4 C 87 % 14.23 C
1260 05-09-2016 08:55:00 16.4 C 87 % 14.23 C
1261 05-09-2016 09:00:00 16.5 C 87 % 14.33 C
1262 05-09-2016 09:05:00 16.5 C 87 % 14.33 C
1263 05-09-2016 09:10:00 16.5 C 87 % 14.33 C
1264 05-09-2016 09:15:00 16.6 C 87 % 14.43 C
1265 05-09-2016 09:20:00 16.6 C 87 % 14.43 C
1266 05-09-2016 09:25:00 16.6 C 86 % 14.25 C
1267 05-09-2016 09:30:00 16.6 C 87 % 14.43 C
1268 05-09-2016 09:35:00 16.6 C 88 % 14.6 C
1269 05-09-2016 09:40:00 16.7 C 89 % 14.88 C
1270 05-09-2016 09:45:00 16.6 C 89 % 14.78 C
1271 05-09-2016 09:50:00 16.6 C 89 % 14.78 C
1272 05-09-2016 09:55:00 16.6 C 90 % 14.95 C
1273 05-09-2016 10:00:00 16.6 C 90 % 14.95 C
1274 05-09-2016 10:05:00 16.5 C 90 % 14.85 C
1275 05-09-2016 10:10:00 16.5 C 90 % 14.85 C
Sensor: Nr:Datum:Temp:Feuchte:Taupunkt:
Aussen-T/F 1276 05-09-2016 10:15:00 16.4 C 90 % 14.76 C
1277 05-09-2016 10:20:00 16.5 C 90 % 14.85 C
1278 05-09-2016 10:25:00 16.6 C 90 % 14.95 C
1279 05-09-2016 10:30:00 16.7 C 88 % 14.7 C
1280 05-09-2016 10:35:00 16.8 C 89 % 14.98 C
1281 05-09-2016 10:40:00 17.1 C 88 % 15.1 C
1282 05-09-2016 10:45:00 17.3 C 87 % 15.12 C
1283 05-09-2016 10:50:00 17.6 C 85 % 15.05 C
1284 05-09-2016 10:55:00 17.8 C 83 % 14.88 C
1285 05-09-2016 11:00:00 17.9 C 84 % 15.16 C
1286 05-09-2016 11:05:00 18.1 C 83 % 15.17 C
1287 05-09-2016 11:10:00 18.2 C 83 % 15.27 C
1288 05-09-2016 11:15:00 18.3 C 82 % 15.17 C
1289 05-09-2016 11:20:00 18.4 C 82 % 15.27 C
1290 05-09-2016 11:25:00 18.4 C 81 % 15.08 C
1291 05-09-2016 11:30:00 18.4 C 80 % 14.89 C
1292 05-09-2016 11:35:00 18.3 C 80 % 14.79 C
1293 05-09-2016 11:40:00 18.4 C 81 % 15.08 C
1294 05-09-2016 11:45:00 18.6 C 81 % 15.28 C
1295 05-09-2016 11:50:00 18.7 C 79 % 14.99 C
1296 05-09-2016 11:55:00 18.7 C 77 % 14.59 C
1297 05-09-2016 12:00:00 18.7 C 77 % 14.59 C
1298 05-09-2016 12:05:00 18.8 C 79 % 15.08 C
1299 05-09-2016 12:10:00 18.9 C 78 % 14.98 C
1300 05-09-2016 12:15:00 19.1 C 77 % 14.97 C
Sensor: Nr:Datum:Temp:Feuchte:Taupunkt:
Aussen-T/F 1301 05-09-2016 12:20:00 19.2 C 74 % 14.46 C
1302 05-09-2016 12:25:00 19.3 C 74 % 14.55 C
1303 05-09-2016 12:30:00 19.3 C 75 % 14.76 C
1304 05-09-2016 12:35:00 19.4 C 74 % 14.65 C
1305 05-09-2016 12:40:00 19.5 C 72 % 14.32 C
1306 05-09-2016 12:45:00 19.7 C 71 % 14.3 C
1307 05-09-2016 12:50:00 19.9 C 71 % 14.49 C
1308 05-09-2016 12:55:00 19.9 C 70 % 14.27 C
1309 05-09-2016 13:00:00 20 C 69 % 14.14 C
1310 05-09-2016 13:05:00 20 C 68 % 13.92 C
1311 05-09-2016 13:10:00 20.1 C 69 % 14.24 C
1312 05-09-2016 13:15:00 20.1 C 68 % 14.01 C
1313 05-09-2016 13:20:00 20.1 C 68 % 14.01 C
1314 05-09-2016 13:25:00 20.1 C 68 % 14.01 C
1315 05-09-2016 13:30:00 20.1 C 69 % 14.24 C
1316 05-09-2016 13:35:00 20.1 C 68 % 14.01 C
1317 05-09-2016 13:40:00 20.1 C 68 % 14.01 C
1318 05-09-2016 13:45:00 20.2 C 67 % 13.88 C
1319 05-09-2016 13:50:00 20.3 C 67 % 13.97 C
1320 05-09-2016 13:55:00 20.4 C 67 % 14.07 C
1321 05-09-2016 14:00:00 20.6 C 67 % 14.26 C
1322 05-09-2016 14:05:00 20.6 C 68 % 14.49 C
1323 05-09-2016 14:10:00 20.7 C 67 % 14.36 C
1324 05-09-2016 14:15:00 20.8 C 66 % 14.22 C
1325 05-09-2016 14:20:00 20.7 C 64 % 13.65 C
Sensor: Nr:Datum:Temp:Feuchte:Taupunkt:
Aussen-T/F 1326 05-09-2016 14:25:00 20.6 C 66 % 14.03 C
1327 05-09-2016 14:30:00 20.4 C 65 % 13.6 C
1328 05-09-2016 14:35:00 20.5 C 65 % 13.7 C
1329 05-09-2016 14:40:00 20.6 C 67 % 14.26 C
1330 05-09-2016 14:45:00 20.8 C 66 % 14.22 C
1331 05-09-2016 14:50:00 20.9 C 65 % 14.08 C
1332 05-09-2016 14:55:00 20.9 C 64 % 13.84 C
1333 05-09-2016 15:00:00 20.9 C 65 % 14.08 C
1334 05-09-2016 15:05:00 20.9 C 66 % 14.31 C
1335 05-09-2016 15:10:00 20.9 C 65 % 14.08 C
1336 05-09-2016 15:15:00 20.9 C 64 % 13.84 C
1337 05-09-2016 15:20:00 20.9 C 65 % 14.08 C
1338 05-09-2016 15:25:00 20.9 C 66 % 14.31 C
1339 05-09-2016 15:30:00 21 C 66 % 14.41 C
1340 05-09-2016 15:35:00 21.1 C 65 % 14.27 C
1341 05-09-2016 15:40:00 21.3 C 64 % 14.22 C
1342 05-09-2016 15:45:00 21.4 C 64 % 14.31 C
1343 05-09-2016 15:50:00 21.4 C 62 % 13.82 C
1344 05-09-2016 15:55:00 21.4 C 61 % 13.57 C
1345 05-09-2016 16:00:00 21.4 C 63 % 14.07 C
1346 05-09-2016 16:05:00 21.6 C 64 % 14.5 C
1347 05-09-2016 16:10:00 21.7 C 63 % 14.35 C
1348 05-09-2016 16:15:00 21.8 C 63 % 14.45 C
1349 05-09-2016 16:20:00 21.8 C 63 % 14.45 C
1350 05-09-2016 16:25:00 22.1 C 62 % 14.48 C
Sensor: Nr:Datum:Temp:Feuchte:Taupunkt:
Aussen-T/F 1351 05-09-2016 16:30:00 22.2 C 61 % 14.32 C
1352 05-09-2016 16:35:00 22.3 C 60 % 14.16 C
1353 05-09-2016 16:40:00 22.5 C 60 % 14.35 C
1354 05-09-2016 16:45:00 22.7 C 59 % 14.28 C
1355 05-09-2016 16:50:00 22.3 C 60 % 14.16 C
1356 05-09-2016 16:55:00 22.1 C 61 % 14.23 C
1357 05-09-2016 17:00:00 21.8 C 61 % 13.95 C
1358 05-09-2016 17:05:00 21.8 C 58 % 13.17 C
1359 05-09-2016 17:10:00 21.9 C 59 % 13.53 C
1360 05-09-2016 17:15:00 22.2 C 57 % 13.28 C
1361 05-09-2016 17:20:00 22.5 C 58 % 13.83 C
1362 05-09-2016 17:25:00 22.6 C 56 % 13.38 C
1363 05-09-2016 17:30:00 22.8 C 57 % 13.84 C
1364 05-09-2016 17:35:00 23.1 C 57 % 14.12 C
1365 05-09-2016 17:40:00 23.2 C 57 % 14.21 C
1366 05-09-2016 17:45:00 23.3 C 57 % 14.31 C
1367 05-09-2016 17:50:00 23.5 C 57 % 14.49 C
1368 05-09-2016 17:55:00 23.5 C 56 % 14.22 C
1369 05-09-2016 18:00:00 23.2 C 56 % 13.94 C
1370 05-09-2016 18:05:00 22.9 C 57 % 13.93 C
1371 05-09-2016 18:10:00 22.9 C 57 % 13.93 C
1372 05-09-2016 18:15:00 23 C 57 % 14.03 C
1373 05-09-2016 18:20:00 23.2 C 57 % 14.21 C
1374 05-09-2016 18:25:00 23.2 C 56 % 13.94 C
1375 05-09-2016 18:30:00 23.1 C 59 % 14.65 C
Sensor: Nr:Datum:Temp:Feuchte:Taupunkt:
Aussen-T/F 1376 05-09-2016 18:35:00 23.1 C 57 % 14.12 C
1377 05-09-2016 18:40:00 22.9 C 62 % 15.23 C
1378 05-09-2016 18:45:00 22.8 C 64 % 15.64 C
1379 05-09-2016 18:50:00 22.6 C 65 % 15.69 C
1380 05-09-2016 18:55:00 22.3 C 66 % 15.64 C
1381 05-09-2016 19:00:00 21.9 C 67 % 15.5 C
1382 05-09-2016 19:05:00 21.6 C 68 % 15.44 C
1383 05-09-2016 19:10:00 21.2 C 70 % 15.51 C
1384 05-09-2016 19:15:00 20.8 C 72 % 15.57 C
1385 05-09-2016 19:20:00 20.6 C 72 % 15.38 C
1386 05-09-2016 19:25:00 20.3 C 73 % 15.3 C
1387 05-09-2016 19:30:00 20.1 C 75 % 15.53 C
1388 05-09-2016 19:35:00 19.9 C 75 % 15.34 C
1389 05-09-2016 19:40:00 19.8 C 75 % 15.24 C
1390 05-09-2016 19:45:00 19.6 C 75 % 15.05 C
1391 05-09-2016 19:50:00 19.4 C 76 % 15.06 C
1392 05-09-2016 19:55:00 19.3 C 76 % 14.97 C
1393 05-09-2016 20:00:00 19.1 C 76 % 14.77 C
1394 05-09-2016 20:05:00 18.8 C 77 % 14.68 C
1395 05-09-2016 20:10:00 18.6 C 77 % 14.49 C
1396 05-09-2016 20:15:00 18.4 C 77 % 14.3 C
1397 05-09-2016 20:20:00 18.3 C 77 % 14.2 C
1398 05-09-2016 20:25:00 18.2 C 78 % 14.3 C
1399 05-09-2016 20:30:00 18 C 78 % 14.11 C
1400 05-09-2016 20:35:00 17.9 C 78 % 14.01 C
Sensor: Nr:Datum:Temp:Feuchte:Taupunkt:
Aussen-T/F 1401 05-09-2016 20:40:00 17.7 C 79 % 14.01 C
1402 05-09-2016 20:45:00 17.6 C 80 % 14.11 C
1403 05-09-2016 20:50:00 17.4 C 80 % 13.92 C
1404 05-09-2016 20:55:00 17.2 C 81 % 13.91 C
1405 05-09-2016 21:00:00 17.1 C 82 % 14 C
1406 05-09-2016 21:05:00 16.9 C 82 % 13.81 C
1407 05-09-2016 21:10:00 16.7 C 83 % 13.8 C
1408 05-09-2016 21:15:00 16.6 C 83 % 13.7 C
1409 05-09-2016 21:20:00 16.5 C 84 % 13.79 C
1410 05-09-2016 21:25:00 16.4 C 85 % 13.87 C
1411 05-09-2016 21:30:00 16.3 C 85 % 13.77 C
1412 05-09-2016 21:35:00 16.3 C 85 % 13.77 C
1413 05-09-2016 21:40:00 16.2 C 85 % 13.68 C
1414 05-09-2016 21:45:00 16.1 C 85 % 13.58 C
1415 05-09-2016 21:50:00 15.9 C 86 % 13.56 C
1416 05-09-2016 21:55:00 15.8 C 87 % 13.64 C
1417 05-09-2016 22:00:00 15.6 C 86 % 13.27 C
1418 05-09-2016 22:05:00 15.4 C 87 % 13.25 C
1419 05-09-2016 22:10:00 15.3 C 87 % 13.15 C
1420 05-09-2016 22:15:00 15.3 C 88 % 13.33 C
1421 05-09-2016 22:20:00 15.2 C 88 % 13.23 C
1422 05-09-2016 22:25:00 15.1 C 88 % 13.13 C
1423 05-09-2016 22:30:00 15 C 88 % 13.03 C
1424 05-09-2016 22:35:00 14.9 C 88 % 12.93 C
1425 05-09-2016 22:40:00 14.8 C 88 % 12.83 C
Sensor: Nr:Datum:Temp:Feuchte:Taupunkt:
Aussen-T/F 1426 05-09-2016 22:45:00 14.7 C 88 % 12.73 C
1427 05-09-2016 22:50:00 14.6 C 89 % 12.81 C
1428 05-09-2016 22:55:00 14.6 C 89 % 12.81 C
1429 05-09-2016 23:00:00 14.5 C 89 % 12.71 C
1430 05-09-2016 23:05:00 14.4 C 89 % 12.61 C
1431 05-09-2016 23:10:00 14.3 C 89 % 12.51 C
1432 05-09-2016 23:15:00 14.2 C 90 % 12.58 C
1433 05-09-2016 23:20:00 14.2 C 90 % 12.58 C
1434 05-09-2016 23:25:00 14.1 C 90 % 12.49 C
1435 05-09-2016 23:30:00 14.1 C 91 % 12.65 C
1436 05-09-2016 23:35:00 14 C 91 % 12.56 C
1437 05-09-2016 23:40:00 13.9 C 91 % 12.46 C
1438 05-09-2016 23:45:00 13.8 C 91 % 12.36 C
1439 05-09-2016 23:50:00 13.8 C 91 % 12.36 C
1440 05-09-2016 23:55:00 13.7 C 91 % 12.26 C
1441 06-09-2016 00:00:00 13.7 C 91 % 12.26 C
1442 06-09-2016 00:05:00 13.6 C 91 % 12.16 C
1443 06-09-2016 00:10:00 13.6 C 92 % 12.33 C
1444 06-09-2016 00:15:00 13.6 C 92 % 12.33 C
1445 06-09-2016 00:20:00 13.6 C 92 % 12.33 C
1446 06-09-2016 00:25:00 13.4 C 92 % 12.13 C
1447 06-09-2016 00:30:00 13.4 C 92 % 12.13 C
1448 06-09-2016 00:35:00 13.3 C 92 % 12.03 C
1449 06-09-2016 00:40:00 13.3 C 92 % 12.03 C
1450 06-09-2016 00:45:00 13.2 C 92 % 11.93 C
Sensor: Nr:Datum:Temp:Feuchte:Taupunkt:
Aussen-T/F 1451 06-09-2016 00:50:00 13.2 C 92 % 11.93 C
1452 06-09-2016 00:55:00 13.1 C 92 % 11.83 C
1453 06-09-2016 01:00:00 13.1 C 92 % 11.83 C
1454 06-09-2016 01:05:00 13 C 92 % 11.73 C
1455 06-09-2016 01:10:00 13 C 93 % 11.9 C
1456 06-09-2016 01:15:00 12.9 C 93 % 11.8 C
1457 06-09-2016 01:20:00 12.9 C 93 % 11.8 C
1458 06-09-2016 01:25:00 12.8 C 93 % 11.7 C
1459 06-09-2016 01:30:00 12.8 C 93 % 11.7 C
1460 06-09-2016 01:35:00 12.8 C 93 % 11.7 C
1461 06-09-2016 01:40:00 12.8 C 93 % 11.7 C
1462 06-09-2016 01:45:00 12.7 C 93 % 11.6 C
1463 06-09-2016 01:50:00 12.7 C 93 % 11.6 C
1464 06-09-2016 01:55:00 12.6 C 93 % 11.5 C
1465 06-09-2016 02:00:00 12.6 C 93 % 11.5 C
1466 06-09-2016 02:05:00 12.5 C 93 % 11.4 C
1467 06-09-2016 02:10:00 12.5 C 93 % 11.4 C
1468 06-09-2016 02:15:00 12.6 C 94 % 11.66 C
1469 06-09-2016 02:20:00 12.7 C 94 % 11.76 C
1470 06-09-2016 02:25:00 12.7 C 94 % 11.76 C
1471 06-09-2016 02:30:00 12.7 C 94 % 11.76 C
1472 06-09-2016 02:35:00 12.6 C 94 % 11.66 C
1473 06-09-2016 02:40:00 12.4 C 93 % 11.3 C
1474 06-09-2016 02:45:00 12.3 C 93 % 11.2 C
1475 06-09-2016 02:50:00 12.3 C 93 % 11.2 C
Sensor: Nr:Datum:Temp:Feuchte:Taupunkt:
Aussen-T/F 1476 06-09-2016 02:55:00 12.3 C 94 % 11.36 C
1477 06-09-2016 03:00:00 12.2 C 94 % 11.26 C
1478 06-09-2016 03:05:00 12.2 C 94 % 11.26 C
1479 06-09-2016 03:10:00 12.1 C 94 % 11.16 C
1480 06-09-2016 03:15:00 12 C 94 % 11.07 C
1481 06-09-2016 03:20:00 11.9 C 94 % 10.97 C
1482 06-09-2016 03:25:00 11.9 C 94 % 10.97 C
1483 06-09-2016 03:30:00 11.9 C 94 % 10.97 C
1484 06-09-2016 03:35:00 11.9 C 94 % 10.97 C
1485 06-09-2016 03:40:00 11.8 C 94 % 10.87 C
1486 06-09-2016 03:45:00 11.8 C 94 % 10.87 C
1487 06-09-2016 03:50:00 11.7 C 94 % 10.77 C
1488 06-09-2016 03:55:00 11.7 C 94 % 10.77 C
1489 06-09-2016 04:00:00 11.7 C 94 % 10.77 C
1490 06-09-2016 04:05:00 11.6 C 94 % 10.67 C
1491 06-09-2016 04:10:00 11.6 C 94 % 10.67 C
1492 06-09-2016 04:15:00 11.5 C 94 % 10.57 C
1493 06-09-2016 04:20:00 11.4 C 94 % 10.47 C
1494 06-09-2016 04:25:00 11.4 C 94 % 10.47 C
1495 06-09-2016 04:30:00 11.4 C 94 % 10.47 C
1496 06-09-2016 04:35:00 11.4 C 95 % 10.63 C
1497 06-09-2016 04:40:00 11.4 C 95 % 10.63 C
1498 06-09-2016 04:45:00 11.4 C 95 % 10.63 C
1499 06-09-2016 04:50:00 11.3 C 94 % 10.37 C
1500 06-09-2016 04:55:00 11.2 C 94 % 10.27 C
Sensor: Nr:Datum:Temp:Feuchte:Taupunkt:
Aussen-T/F 1501 06-09-2016 05:00:00 11.2 C 94 % 10.27 C
1502 06-09-2016 05:05:00 11.2 C 94 % 10.27 C
1503 06-09-2016 05:10:00 11.1 C 95 % 10.33 C
1504 06-09-2016 05:15:00 11.1 C 95 % 10.33 C
1505 06-09-2016 05:20:00 11 C 95 % 10.23 C
1506 06-09-2016 05:25:00 11.1 C 95 % 10.33 C
1507 06-09-2016 05:30:00 11.1 C 95 % 10.33 C
1508 06-09-2016 05:35:00 11 C 95 % 10.23 C
1509 06-09-2016 05:40:00 10.9 C 95 % 10.13 C
1510 06-09-2016 05:45:00 10.9 C 95 % 10.13 C
1511 06-09-2016 05:50:00 10.9 C 95 % 10.13 C
1512 06-09-2016 05:55:00 10.8 C 95 % 10.03 C
1513 06-09-2016 06:00:00 10.8 C 95 % 10.03 C
1514 06-09-2016 06:05:00 10.7 C 95 % 9.93 C
1515 06-09-2016 06:10:00 10.7 C 95 % 9.93 C
1516 06-09-2016 06:15:00 10.7 C 95 % 9.93 C
1517 06-09-2016 06:20:00 10.6 C 95 % 9.83 C
1518 06-09-2016 06:25:00 10.6 C 95 % 9.83 C
1519 06-09-2016 06:30:00 10.6 C 95 % 9.83 C
1520 06-09-2016 06:35:00 10.7 C 95 % 9.93 C
1521 06-09-2016 06:40:00 10.7 C 95 % 9.93 C
1522 06-09-2016 06:45:00 10.7 C 95 % 9.93 C
1523 06-09-2016 06:50:00 10.6 C 95 % 9.83 C
1524 06-09-2016 06:55:00 10.5 C 95 % 9.73 C
1525 06-09-2016 07:00:00 10.5 C 95 % 9.73 C
Sensor: Nr:Datum:Temp:Feuchte:Taupunkt:
Aussen-T/F 1526 06-09-2016 07:05:00 10.5 C 95 % 9.73 C
1527 06-09-2016 07:10:00 10.5 C 95 % 9.73 C
1528 06-09-2016 07:15:00 10.5 C 95 % 9.73 C
1529 06-09-2016 07:20:00 10.6 C 95 % 9.83 C
1530 06-09-2016 07:25:00 10.6 C 95 % 9.83 C
1531 06-09-2016 07:30:00 10.5 C 95 % 9.73 C
1532 06-09-2016 07:35:00 10.4 C 95 % 9.63 C
1533 06-09-2016 07:40:00 10.4 C 95 % 9.63 C
1534 06-09-2016 07:45:00 10.4 C 95 % 9.63 C
1535 06-09-2016 07:50:00 10.4 C 95 % 9.63 C
1536 06-09-2016 07:55:00 10.4 C 95 % 9.63 C
1537 06-09-2016 08:00:00 10.4 C 95 % 9.63 C
1538 06-09-2016 08:05:00 10.6 C 96 % 9.99 C
1539 06-09-2016 08:10:00 10.7 C 96 % 10.09 C
1540 06-09-2016 08:15:00 10.8 C 96 % 10.19 C
1541 06-09-2016 08:20:00 10.9 C 96 % 10.29 C
1542 06-09-2016 08:25:00 11.1 C 96 % 10.49 C
1543 06-09-2016 08:30:00 11.2 C 96 % 10.59 C
1544 06-09-2016 08:35:00 11.2 C 96 % 10.59 C
1545 06-09-2016 08:40:00 11.3 C 96 % 10.69 C
1546 06-09-2016 08:45:00 11.4 C 96 % 10.79 C
1547 06-09-2016 08:50:00 11.4 C 96 % 10.79 C
1548 06-09-2016 08:55:00 11.4 C 96 % 10.79 C
1549 06-09-2016 09:00:00 11.4 C 96 % 10.79 C
1550 06-09-2016 09:05:00 11.5 C 96 % 10.88 C
Sensor: Nr:Datum:Temp:Feuchte:Taupunkt:
Aussen-T/F 1551 06-09-2016 09:10:00 11.6 C 96 % 10.98 C
1552 06-09-2016 09:15:00 11.6 C 96 % 10.98 C
1553 06-09-2016 09:20:00 11.6 C 96 % 10.98 C
1554 06-09-2016 09:25:00 11.7 C 96 % 11.08 C
1555 06-09-2016 09:30:00 11.7 C 96 % 11.08 C
1556 06-09-2016 09:35:00 11.7 C 96 % 11.08 C
1557 06-09-2016 09:40:00 11.8 C 96 % 11.18 C
1558 06-09-2016 09:45:00 11.8 C 96 % 11.18 C
1559 06-09-2016 09:50:00 11.9 C 96 % 11.28 C
1560 06-09-2016 09:55:00 12 C 96 % 11.38 C
1561 06-09-2016 10:00:00 12.1 C 96 % 11.48 C
1562 06-09-2016 10:05:00 12.3 C 96 % 11.68 C
1563 06-09-2016 10:10:00 12.4 C 96 % 11.78 C
1564 06-09-2016 10:15:00 12.6 C 96 % 11.98 C
1565 06-09-2016 10:20:00 12.7 C 96 % 12.08 C
1566 06-09-2016 10:25:00 12.8 C 96 % 12.18 C
1567 06-09-2016 10:30:00 13 C 96 % 12.38 C
1568 06-09-2016 10:35:00 13.1 C 96 % 12.48 C
1569 06-09-2016 10:40:00 13.3 C 96 % 12.68 C
1570 06-09-2016 10:45:00 13.4 C 96 % 12.78 C
1571 06-09-2016 10:50:00 13.6 C 96 % 12.97 C
1572 06-09-2016 10:55:00 13.8 C 96 % 13.17 C
1573 06-09-2016 11:00:00 13.9 C 96 % 13.27 C
1574 06-09-2016 11:05:00 14.1 C 96 % 13.47 C
1575 06-09-2016 11:10:00 14.3 C 96 % 13.67 C
Sensor: Nr:Datum:Temp:Feuchte:Taupunkt:
Aussen-T/F 1576 06-09-2016 11:15:00 14.6 C 96 % 13.97 C
1577 06-09-2016 11:20:00 14.7 C 96 % 14.07 C
1578 06-09-2016 11:25:00 15 C 96 % 14.37 C
1579 06-09-2016 11:30:00 15.2 C 95 % 14.4 C
1580 06-09-2016 11:35:00 15.4 C 95 % 14.6 C
1581 06-09-2016 11:40:00 15.7 C 95 % 14.9 C
1582 06-09-2016 11:45:00 15.9 C 94 % 14.94 C
1583 06-09-2016 11:50:00 16.2 C 94 % 15.23 C
1584 06-09-2016 11:55:00 16.4 C 93 % 15.27 C
1585 06-09-2016 12:00:00 16.7 C 92 % 15.39 C
1586 06-09-2016 12:05:00 16.9 C 93 % 15.76 C
1587 06-09-2016 12:10:00 17.1 C 91 % 15.62 C
1588 06-09-2016 12:15:00 17.3 C 91 % 15.82 C
1589 06-09-2016 12:20:00 17.6 C 90 % 15.94 C
1590 06-09-2016 12:25:00 17.9 C 90 % 16.24 C
1591 06-09-2016 12:30:00 18.1 C 89 % 16.26 C
1592 06-09-2016 12:35:00 18.3 C 86 % 15.92 C
1593 06-09-2016 12:40:00 18.7 C 85 % 16.13 C
1594 06-09-2016 12:45:00 18.9 C 84 % 16.14 C
1595 06-09-2016 12:50:00 19.3 C 81 % 15.96 C
1596 06-09-2016 12:55:00 19.6 C 79 % 15.86 C
1597 06-09-2016 13:00:00 19.9 C 79 % 16.15 C
1598 06-09-2016 13:05:00 20.5 C 76 % 16.12 C
1599 06-09-2016 13:10:00 21.2 C 72 % 15.95 C
1600 06-09-2016 13:15:00 21.7 C 70 % 15.99 C
Sensor: Nr:Datum:Temp:Feuchte:Taupunkt:
Aussen-T/F 1601 06-09-2016 13:20:00 21.9 C 69 % 15.96 C
1602 06-09-2016 13:25:00 22.1 C 68 % 15.92 C
1603 06-09-2016 13:30:00 22.1 C 68 % 15.92 C
1604 06-09-2016 13:35:00 22.1 C 68 % 15.92 C
1605 06-09-2016 13:40:00 22.1 C 66 % 15.45 C
1606 06-09-2016 13:45:00 22 C 66 % 15.36 C
1607 06-09-2016 13:50:00 21.9 C 65 % 15.02 C
1608 06-09-2016 13:55:00 22.1 C 64 % 14.97 C
1609 06-09-2016 14:00:00 22.3 C 64 % 15.16 C
1610 06-09-2016 14:05:00 22.3 C 72 % 17.01 C
1611 06-09-2016 14:10:00 22.2 C 72 % 16.91 C
1612 06-09-2016 14:15:00 21.9 C 74 % 17.06 C
1613 06-09-2016 14:20:00 21.6 C 75 % 16.98 C
1614 06-09-2016 14:25:00 21.5 C 76 % 17.09 C
1615 06-09-2016 14:30:00 21.4 C 69 % 15.48 C
1616 06-09-2016 14:35:00 21.6 C 68 % 15.44 C
1617 06-09-2016 14:40:00 21.9 C 65 % 15.02 C
1618 06-09-2016 14:45:00 22.3 C 63 % 14.92 C
1619 06-09-2016 14:50:00 22.7 C 63 % 15.3 C
1620 06-09-2016 14:55:00 23.2 C 59 % 14.75 C
1621 06-09-2016 15:00:00 23.5 C 58 % 14.76 C
1622 06-09-2016 15:05:00 23.7 C 58 % 14.95 C
1623 06-09-2016 15:10:00 23.8 C 56 % 14.5 C
1624 06-09-2016 15:15:00 23.9 C 57 % 14.87 C
1625 06-09-2016 15:20:00 24.1 C 56 % 14.78 C
Sensor: Nr:Datum:Temp:Feuchte:Taupunkt:
Aussen-T/F 1626 06-09-2016 15:25:00 24.2 C 56 % 14.87 C
1627 06-09-2016 15:30:00 24.3 C 56 % 14.96 C
1628 06-09-2016 15:35:00 24.4 C 59 % 15.87 C
1629 06-09-2016 15:40:00 24.4 C 55 % 14.78 C
1630 06-09-2016 15:45:00 24.4 C 55 % 14.78 C
1631 06-09-2016 15:50:00 24.5 C 55 % 14.87 C
1632 06-09-2016 15:55:00 24.6 C 54 % 14.68 C
1633 06-09-2016 16:00:00 24.7 C 54 % 14.77 C
1634 06-09-2016 16:05:00 24.7 C 53 % 14.48 C
1635 06-09-2016 16:10:00 24.7 C 57 % 15.61 C
1636 06-09-2016 16:15:00 24.8 C 53 % 14.57 C
1637 06-09-2016 16:20:00 24.8 C 52 % 14.28 C
1638 06-09-2016 16:25:00 24.9 C 54 % 14.95 C
1639 06-09-2016 16:30:00 25.2 C 52 % 14.65 C
1640 06-09-2016 16:35:00 25.3 C 57 % 16.17 C
1641 06-09-2016 16:40:00 25.6 C 51 % 14.71 C
1642 06-09-2016 16:45:00 25.8 C 52 % 15.2 C
1643 06-09-2016 16:50:00 25.9 C 50 % 14.68 C
1644 06-09-2016 16:55:00 26.3 C 51 % 15.36 C
1645 06-09-2016 17:00:00 26.5 C 49 % 14.92 C
1646 06-09-2016 17:05:00 26.5 C 48 % 14.6 C
1647 06-09-2016 17:10:00 26.3 C 49 % 14.74 C
1648 06-09-2016 17:15:00 26.5 C 49 % 14.92 C
1649 06-09-2016 17:20:00 26.7 C 50 % 15.42 C
1650 06-09-2016 17:25:00 26.8 C 51 % 15.82 C
Sensor: Nr:Datum:Temp:Feuchte:Taupunkt:
Aussen-T/F 1651 06-09-2016 17:30:00 26.9 C 47 % 14.64 C
1652 06-09-2016 17:35:00 26.9 C 55 % 17.09 C
1653 06-09-2016 17:40:00 26.9 C 51 % 15.91 C
1654 06-09-2016 17:45:00 27 C 54 % 16.9 C
1655 06-09-2016 17:50:00 26.9 C 49 % 15.28 C
1656 06-09-2016 17:55:00 27 C 54 % 16.9 C
1657 06-09-2016 18:00:00 26.9 C 50 % 15.6 C
1658 06-09-2016 18:05:00 26.9 C 56 % 17.38 C
1659 06-09-2016 18:10:00 26.8 C 56 % 17.29 C
1660 06-09-2016 18:15:00 26.4 C 57 % 17.19 C
1661 06-09-2016 18:20:00 25.8 C 58 % 16.91 C
1662 06-09-2016 18:25:00 25.3 C 61 % 17.24 C
1663 06-09-2016 18:30:00 25.1 C 61 % 17.05 C
1664 06-09-2016 18:35:00 25 C 61 % 16.96 C
1665 06-09-2016 18:40:00 24.8 C 61 % 16.77 C
1666 06-09-2016 18:45:00 24.5 C 62 % 16.74 C
1667 06-09-2016 18:50:00 24.1 C 63 % 16.62 C
1668 06-09-2016 18:55:00 23.8 C 64 % 16.58 C
1669 06-09-2016 19:00:00 23.5 C 64 % 16.3 C
1670 06-09-2016 19:05:00 23.3 C 65 % 16.35 C
1671 06-09-2016 19:10:00 23.1 C 66 % 16.4 C
1672 06-09-2016 19:15:00 22.9 C 66 % 16.21 C
1673 06-09-2016 19:20:00 22.7 C 66 % 16.02 C
1674 06-09-2016 19:25:00 22.4 C 67 % 15.97 C
1675 06-09-2016 19:30:00 22.1 C 68 % 15.92 C
Sensor: Nr:Datum:Temp:Feuchte:Taupunkt:
Aussen-T/F 1676 06-09-2016 19:35:00 21.8 C 68 % 15.63 C
1677 06-09-2016 19:40:00 21.6 C 69 % 15.67 C
1678 06-09-2016 19:45:00 21.3 C 70 % 15.61 C
1679 06-09-2016 19:50:00 20.9 C 70 % 15.23 C
1680 06-09-2016 19:55:00 20.7 C 71 % 15.25 C
1681 06-09-2016 20:00:00 20.3 C 72 % 15.09 C
1682 06-09-2016 20:05:00 20.1 C 72 % 14.9 C
1683 06-09-2016 20:10:00 19.9 C 73 % 14.92 C
1684 06-09-2016 20:15:00 19.8 C 73 % 14.82 C
1685 06-09-2016 20:20:00 19.6 C 73 % 14.63 C
1686 06-09-2016 20:25:00 19.4 C 74 % 14.65 C
1687 06-09-2016 20:30:00 19.3 C 74 % 14.55 C
1688 06-09-2016 20:35:00 19.2 C 74 % 14.46 C
1689 06-09-2016 20:40:00 19.2 C 75 % 14.66 C
1690 06-09-2016 20:45:00 19.1 C 75 % 14.57 C
1691 06-09-2016 20:50:00 18.9 C 75 % 14.37 C
1692 06-09-2016 20:55:00 18.8 C 76 % 14.48 C
1693 06-09-2016 21:00:00 18.7 C 76 % 14.39 C
1694 06-09-2016 21:05:00 18.6 C 77 % 14.49 C
1695 06-09-2016 21:10:00 18.3 C 78 % 14.4 C
1696 06-09-2016 21:15:00 18.1 C 78 % 14.21 C
1697 06-09-2016 21:20:00 17.9 C 79 % 14.21 C
1698 06-09-2016 21:25:00 17.7 C 80 % 14.21 C
1699 06-09-2016 21:30:00 17.4 C 80 % 13.92 C
1700 06-09-2016 21:35:00 17.3 C 81 % 14.01 C
Sensor: Nr:Datum:Temp:Feuchte:Taupunkt:
Aussen-T/F 1701 06-09-2016 21:40:00 17.2 C 81 % 13.91 C
1702 06-09-2016 21:45:00 17.2 C 81 % 13.91 C
1703 06-09-2016 21:50:00 17 C 81 % 13.72 C
1704 06-09-2016 21:55:00 16.9 C 81 % 13.62 C
1705 06-09-2016 22:00:00 16.8 C 82 % 13.71 C
1706 06-09-2016 22:05:00 16.8 C 82 % 13.71 C
1707 06-09-2016 22:10:00 16.6 C 82 % 13.52 C
1708 06-09-2016 22:15:00 16.5 C 83 % 13.6 C
1709 06-09-2016 22:20:00 16.3 C 83 % 13.41 C
1710 06-09-2016 22:25:00 16.2 C 83 % 13.31 C
1711 06-09-2016 22:30:00 16.1 C 84 % 13.4 C
1712 06-09-2016 22:35:00 16 C 85 % 13.48 C
1713 06-09-2016 22:40:00 15.9 C 85 % 13.38 C
1714 06-09-2016 22:45:00 15.8 C 86 % 13.46 C
1715 06-09-2016 22:50:00 15.7 C 86 % 13.37 C
1716 06-09-2016 22:55:00 15.7 C 86 % 13.37 C
1717 06-09-2016 23:00:00 15.6 C 86 % 13.27 C
1718 06-09-2016 23:05:00 15.4 C 86 % 13.07 C
1719 06-09-2016 23:10:00 15.3 C 86 % 12.97 C
1720 06-09-2016 23:15:00 15.3 C 87 % 13.15 C
1721 06-09-2016 23:20:00 15.3 C 88 % 13.33 C
1722 06-09-2016 23:25:00 15.3 C 87 % 13.15 C
1723 06-09-2016 23:30:00 15.2 C 87 % 13.05 C
1724 06-09-2016 23:35:00 15.1 C 87 % 12.95 C
1725 06-09-2016 23:40:00 15 C 88 % 13.03 C
Sensor: Nr:Datum:Temp:Feuchte:Taupunkt:
Aussen-T/F 1726 06-09-2016 23:45:00 14.9 C 88 % 12.93 C
1727 06-09-2016 23:50:00 14.8 C 88 % 12.83 C
1728 06-09-2016 23:55:00 14.8 C 88 % 12.83 C
1729 07-09-2016 00:00:00 14.8 C 88 % 12.83 C
1730 07-09-2016 00:05:00 14.7 C 88 % 12.73 C
1731 07-09-2016 00:10:00 14.6 C 87 % 12.46 C
1732 07-09-2016 00:15:00 14.5 C 88 % 12.54 C
1733 07-09-2016 00:20:00 14.4 C 88 % 12.44 C
1734 07-09-2016 00:25:00 14.4 C 89 % 12.61 C
1735 07-09-2016 00:30:00 14.3 C 89 % 12.51 C
1736 07-09-2016 00:35:00 14.2 C 89 % 12.41 C
1737 07-09-2016 00:40:00 14.1 C 89 % 12.32 C
1738 07-09-2016 00:45:00 14 C 89 % 12.22 C
1739 07-09-2016 00:50:00 13.9 C 90 % 12.29 C
1740 07-09-2016 00:55:00 13.8 C 90 % 12.19 C
1741 07-09-2016 01:00:00 13.7 C 90 % 12.09 C
1742 07-09-2016 01:05:00 13.7 C 90 % 12.09 C
1743 07-09-2016 01:10:00 13.7 C 91 % 12.26 C
1744 07-09-2016 01:15:00 13.6 C 90 % 11.99 C
1745 07-09-2016 01:20:00 13.4 C 90 % 11.79 C
1746 07-09-2016 01:25:00 13.3 C 91 % 11.86 C
1747 07-09-2016 01:30:00 13.3 C 91 % 11.86 C
1748 07-09-2016 01:35:00 13.3 C 91 % 11.86 C
1749 07-09-2016 01:40:00 13.2 C 91 % 11.76 C
1750 07-09-2016 01:45:00 13.1 C 91 % 11.67 C
Sensor: Nr:Datum:Temp:Feuchte:Taupunkt:
Aussen-T/F 1751 07-09-2016 01:50:00 13 C 91 % 11.57 C
1752 07-09-2016 01:55:00 12.9 C 91 % 11.47 C
1753 07-09-2016 02:00:00 12.9 C 92 % 11.63 C
1754 07-09-2016 02:05:00 12.8 C 92 % 11.53 C
1755 07-09-2016 02:10:00 12.8 C 92 % 11.53 C
1756 07-09-2016 02:15:00 12.7 C 92 % 11.43 C
1757 07-09-2016 02:20:00 12.7 C 92 % 11.43 C
1758 07-09-2016 02:25:00 12.7 C 92 % 11.43 C
1759 07-09-2016 02:30:00 12.7 C 92 % 11.43 C
1760 07-09-2016 02:35:00 12.6 C 92 % 11.34 C
1761 07-09-2016 02:40:00 12.7 C 93 % 11.6 C
1762 07-09-2016 02:45:00 12.6 C 93 % 11.5 C
1763 07-09-2016 02:50:00 12.5 C 93 % 11.4 C
1764 07-09-2016 02:55:00 12.5 C 93 % 11.4 C
1765 07-09-2016 03:00:00 12.4 C 93 % 11.3 C
1766 07-09-2016 03:05:00 12.4 C 93 % 11.3 C
1767 07-09-2016 03:10:00 12.3 C 93 % 11.2 C
1768 07-09-2016 03:15:00 12.3 C 93 % 11.2 C
1769 07-09-2016 03:20:00 12.3 C 93 % 11.2 C
1770 07-09-2016 03:25:00 12.3 C 94 % 11.36 C
1771 07-09-2016 03:30:00 12.2 C 93 % 11.1 C
1772 07-09-2016 03:35:00 12.2 C 93 % 11.1 C
1773 07-09-2016 03:40:00 12.2 C 93 % 11.1 C
1774 07-09-2016 03:45:00 12.1 C 93 % 11 C
1775 07-09-2016 03:50:00 12 C 94 % 11.07 C
Sensor: Nr:Datum:Temp:Feuchte:Taupunkt:
Aussen-T/F 1776 07-09-2016 03:55:00 11.9 C 94 % 10.97 C
1777 07-09-2016 04:00:00 11.9 C 94 % 10.97 C
1778 07-09-2016 04:05:00 11.8 C 93 % 10.71 C
1779 07-09-2016 04:10:00 11.8 C 94 % 10.87 C
1780 07-09-2016 04:15:00 11.7 C 94 % 10.77 C
1781 07-09-2016 04:20:00 11.7 C 94 % 10.77 C
1782 07-09-2016 04:25:00 11.7 C 94 % 10.77 C
1783 07-09-2016 04:30:00 11.7 C 94 % 10.77 C
1784 07-09-2016 04:35:00 11.7 C 94 % 10.77 C
1785 07-09-2016 04:40:00 11.6 C 94 % 10.67 C
1786 07-09-2016 04:45:00 11.6 C 94 % 10.67 C
1787 07-09-2016 04:50:00 11.5 C 94 % 10.57 C
1788 07-09-2016 04:55:00 11.4 C 94 % 10.47 C
1789 07-09-2016 05:00:00 11.4 C 94 % 10.47 C
1790 07-09-2016 05:05:00 11.4 C 94 % 10.47 C
1791 07-09-2016 05:10:00 11.3 C 94 % 10.37 C
1792 07-09-2016 05:15:00 11.3 C 95 % 10.53 C
1793 07-09-2016 05:20:00 11.3 C 94 % 10.37 C
1794 07-09-2016 05:25:00 11.3 C 94 % 10.37 C
1795 07-09-2016 05:30:00 11.2 C 94 % 10.27 C
1796 07-09-2016 05:35:00 11.2 C 94 % 10.27 C
1797 07-09-2016 05:40:00 11.2 C 94 % 10.27 C
1798 07-09-2016 05:45:00 11.2 C 95 % 10.43 C
1799 07-09-2016 05:50:00 11.1 C 95 % 10.33 C
1800 07-09-2016 05:55:00 11.1 C 95 % 10.33 C
Sensor: Nr:Datum:Temp:Feuchte:Taupunkt:
Aussen-T/F 1801 07-09-2016 06:00:00 11 C 95 % 10.23 C
1802 07-09-2016 06:05:00 11.1 C 95 % 10.33 C
1803 07-09-2016 06:10:00 10.9 C 94 % 9.97 C
1804 07-09-2016 06:15:00 10.9 C 95 % 10.13 C
1805 07-09-2016 06:20:00 10.9 C 95 % 10.13 C
1806 07-09-2016 06:25:00 10.8 C 95 % 10.03 C
1807 07-09-2016 06:30:00 10.8 C 95 % 10.03 C
1808 07-09-2016 06:35:00 10.8 C 95 % 10.03 C
1809 07-09-2016 06:40:00 10.7 C 95 % 9.93 C
1810 07-09-2016 06:45:00 10.7 C 95 % 9.93 C
1811 07-09-2016 06:50:00 10.7 C 95 % 9.93 C
1812 07-09-2016 06:55:00 10.6 C 95 % 9.83 C
1813 07-09-2016 07:00:00 10.5 C 95 % 9.73 C
1814 07-09-2016 07:05:00 10.6 C 95 % 9.83 C
1815 07-09-2016 07:10:00 10.6 C 95 % 9.83 C
1816 07-09-2016 07:15:00 10.6 C 95 % 9.83 C
1817 07-09-2016 07:20:00 10.7 C 95 % 9.93 C
1818 07-09-2016 07:25:00 10.7 C 95 % 9.93 C
1819 07-09-2016 07:30:00 10.7 C 95 % 9.93 C
1820 07-09-2016 07:35:00 10.7 C 95 % 9.93 C
1821 07-09-2016 07:40:00 10.7 C 95 % 9.93 C
1822 07-09-2016 07:45:00 10.8 C 95 % 10.03 C
1823 07-09-2016 07:50:00 10.8 C 95 % 10.03 C
1824 07-09-2016 07:55:00 10.8 C 95 % 10.03 C
1825 07-09-2016 08:00:00 10.8 C 95 % 10.03 C
Sensor: Nr:Datum:Temp:Feuchte:Taupunkt:
Aussen-T/F 1826 07-09-2016 08:05:00 10.8 C 95 % 10.03 C
1827 07-09-2016 08:10:00 10.8 C 95 % 10.03 C
1828 07-09-2016 08:15:00 10.8 C 96 % 10.19 C
1829 07-09-2016 08:20:00 10.9 C 96 % 10.29 C
1830 07-09-2016 08:25:00 10.9 C 96 % 10.29 C
1831 07-09-2016 08:30:00 10.9 C 96 % 10.29 C
1832 07-09-2016 08:35:00 11 C 96 % 10.39 C
1833 07-09-2016 08:40:00 11.1 C 96 % 10.49 C
1834 07-09-2016 08:45:00 11.1 C 96 % 10.49 C
1835 07-09-2016 08:50:00 11.1 C 96 % 10.49 C
1836 07-09-2016 08:55:00 11.2 C 96 % 10.59 C
1837 07-09-2016 09:00:00 11.2 C 96 % 10.59 C
1838 07-09-2016 09:05:00 11.3 C 96 % 10.69 C
1839 07-09-2016 09:10:00 11.4 C 96 % 10.79 C
1840 07-09-2016 09:15:00 11.6 C 96 % 10.98 C
1841 07-09-2016 09:20:00 11.8 C 96 % 11.18 C
1842 07-09-2016 09:25:00 11.9 C 96 % 11.28 C
1843 07-09-2016 09:30:00 12 C 96 % 11.38 C
1844 07-09-2016 09:35:00 12.1 C 96 % 11.48 C
1845 07-09-2016 09:40:00 12.3 C 96 % 11.68 C
1846 07-09-2016 09:45:00 12.4 C 96 % 11.78 C
1847 07-09-2016 09:50:00 12.6 C 96 % 11.98 C
1848 07-09-2016 09:55:00 12.8 C 97 % 12.34 C
1849 07-09-2016 10:00:00 12.9 C 96 % 12.28 C
1850 07-09-2016 10:05:00 13 C 96 % 12.38 C
Sensor: Nr:Datum:Temp:Feuchte:Taupunkt:
Aussen-T/F 1851 07-09-2016 10:10:00 13.2 C 97 % 12.73 C
1852 07-09-2016 10:15:00 13.3 C 96 % 12.68 C
1853 07-09-2016 10:20:00 13.5 C 97 % 13.03 C
1854 07-09-2016 10:25:00 13.7 C 96 % 13.07 C
1855 07-09-2016 10:30:00 13.9 C 97 % 13.43 C
1856 07-09-2016 10:35:00 14 C 96 % 13.37 C
1857 07-09-2016 10:40:00 14.2 C 97 % 13.73 C
1858 07-09-2016 10:45:00 14.3 C 96 % 13.67 C
1859 07-09-2016 10:50:00 14.6 C 96 % 13.97 C
1860 07-09-2016 10:55:00 14.8 C 96 % 14.17 C
1861 07-09-2016 11:00:00 14.9 C 96 % 14.27 C
1862 07-09-2016 11:05:00 15.2 C 96 % 14.57 C
1863 07-09-2016 11:10:00 15.3 C 95 % 14.5 C
1864 07-09-2016 11:15:00 15.6 C 95 % 14.8 C
1865 07-09-2016 11:20:00 15.8 C 94 % 14.84 C
1866 07-09-2016 11:25:00 16.1 C 94 % 15.13 C
1867 07-09-2016 11:30:00 16.3 C 93 % 15.17 C
1868 07-09-2016 11:35:00 16.6 C 92 % 15.3 C
1869 07-09-2016 11:40:00 16.8 C 91 % 15.32 C
1870 07-09-2016 11:45:00 17 C 89 % 15.17 C
1871 07-09-2016 11:50:00 17.4 C 87 % 15.21 C
1872 07-09-2016 11:55:00 17.7 C 87 % 15.51 C
1873 07-09-2016 12:00:00 17.9 C 86 % 15.53 C
1874 07-09-2016 12:05:00 18.2 C 85 % 15.64 C
1875 07-09-2016 12:10:00 18.3 C 83 % 15.36 C
Sensor: Nr:Datum:Temp:Feuchte:Taupunkt:
Aussen-T/F 1876 07-09-2016 12:15:00 18.6 C 80 % 15.08 C
1877 07-09-2016 12:20:00 18.8 C 80 % 15.28 C
1878 07-09-2016 12:25:00 19.1 C 82 % 15.96 C
1879 07-09-2016 12:30:00 19.2 C 80 % 15.67 C
1880 07-09-2016 12:35:00 19.3 C 76 % 14.97 C
1881 07-09-2016 12:40:00 19.6 C 78 % 15.66 C
1882 07-09-2016 12:45:00 19.7 C 77 % 15.56 C
1883 07-09-2016 12:50:00 19.8 C 73 % 14.82 C
1884 07-09-2016 12:55:00 20.2 C 70 % 14.56 C
1885 07-09-2016 13:00:00 20.6 C 68 % 14.49 C
1886 07-09-2016 13:05:00 21 C 70 % 15.32 C
1887 07-09-2016 13:10:00 21.3 C 66 % 14.69 C
1888 07-09-2016 13:15:00 21.6 C 64 % 14.5 C
1889 07-09-2016 13:20:00 21.9 C 63 % 14.54 C
1890 07-09-2016 13:25:00 22.2 C 62 % 14.58 C
1891 07-09-2016 13:30:00 22.4 C 62 % 14.76 C
1892 07-09-2016 13:35:00 22.5 C 61 % 14.61 C
1893 07-09-2016 13:40:00 22.6 C 61 % 14.7 C
1894 07-09-2016 13:45:00 22.8 C 60 % 14.63 C
1895 07-09-2016 13:50:00 23.1 C 59 % 14.65 C
1896 07-09-2016 13:55:00 23.1 C 60 % 14.91 C
1897 07-09-2016 14:00:00 23.1 C 61 % 15.17 C
1898 07-09-2016 14:05:00 23.3 C 60 % 15.1 C
1899 07-09-2016 14:10:00 23.4 C 59 % 14.93 C
1900 07-09-2016 14:15:00 23.6 C 59 % 15.12 C
Sensor: Nr:Datum:Temp:Feuchte:Taupunkt:
Aussen-T/F 1901 07-09-2016 14:20:00 23.6 C 58 % 14.86 C
1902 07-09-2016 14:25:00 23.6 C 57 % 14.59 C
1903 07-09-2016 14:30:00 23.7 C 62 % 15.99 C
1904 07-09-2016 14:35:00 23.6 C 58 % 14.86 C
1905 07-09-2016 14:40:00 23.7 C 58 % 14.95 C
1906 07-09-2016 14:45:00 23.9 C 56 % 14.59 C
1907 07-09-2016 14:50:00 24.1 C 57 % 15.05 C
1908 07-09-2016 14:55:00 24.1 C 56 % 14.78 C
1909 07-09-2016 15:00:00 24.2 C 61 % 16.2 C
1910 07-09-2016 15:05:00 24.2 C 58 % 15.42 C
1911 07-09-2016 15:10:00 24.4 C 57 % 15.33 C
1912 07-09-2016 15:15:00 24.7 C 55 % 15.05 C
1913 07-09-2016 15:20:00 24.9 C 55 % 15.24 C
1914 07-09-2016 15:25:00 25.1 C 54 % 15.14 C
1915 07-09-2016 15:30:00 25.2 C 54 % 15.23 C
1916 07-09-2016 15:35:00 25.2 C 54 % 15.23 C
1917 07-09-2016 15:40:00 25.3 C 53 % 15.03 C
1918 07-09-2016 15:45:00 25.4 C 53 % 15.13 C
1919 07-09-2016 15:50:00 25.6 C 52 % 15.02 C
1920 07-09-2016 15:55:00 25.7 C 52 % 15.11 C
1921 07-09-2016 16:00:00 25.6 C 55 % 15.89 C
1922 07-09-2016 16:05:00 25.6 C 53 % 15.31 C
1923 07-09-2016 16:10:00 25.7 C 53 % 15.4 C
1924 07-09-2016 16:15:00 25.9 C 52 % 15.29 C
1925 07-09-2016 16:20:00 26.1 C 50 % 14.87 C
Sensor: Nr:Datum:Temp:Feuchte:Taupunkt:
Aussen-T/F 1926 07-09-2016 16:25:00 26.3 C 50 % 15.05 C
1927 07-09-2016 16:30:00 26.3 C 50 % 15.05 C
1928 07-09-2016 16:35:00 26.2 C 53 % 15.87 C
1929 07-09-2016 16:40:00 26.3 C 53 % 15.96 C
1930 07-09-2016 16:45:00 26.6 C 50 % 15.32 C
1931 07-09-2016 16:50:00 26.9 C 50 % 15.6 C
1932 07-09-2016 16:55:00 27.2 C 49 % 15.56 C
1933 07-09-2016 17:00:00 27.3 C 48 % 15.33 C
1934 07-09-2016 17:05:00 27.4 C 54 % 17.27 C
1935 07-09-2016 17:10:00 27.4 C 51 % 16.37 C
1936 07-09-2016 17:15:00 27.6 C 53 % 17.16 C
1937 07-09-2016 17:20:00 27.6 C 47 % 15.27 C
1938 07-09-2016 17:25:00 27.7 C 52 % 16.95 C
1939 07-09-2016 17:30:00 27.6 C 47 % 15.27 C
1940 07-09-2016 17:35:00 27.6 C 48 % 15.6 C
1941 07-09-2016 17:40:00 27.7 C 47 % 15.36 C
1942 07-09-2016 17:45:00 27.7 C 46 % 15.03 C
1943 07-09-2016 17:50:00 27.6 C 53 % 17.16 C
1944 07-09-2016 17:55:00 27.6 C 55 % 17.74 C
1945 07-09-2016 18:00:00 27.3 C 53 % 16.88 C
1946 07-09-2016 18:05:00 27.3 C 47 % 15 C
1947 07-09-2016 18:10:00 27.2 C 54 % 17.08 C
1948 07-09-2016 18:15:00 27 C 55 % 17.19 C
1949 07-09-2016 18:20:00 26.5 C 57 % 17.29 C
1950 07-09-2016 18:25:00 26.1 C 60 % 17.73 C
Sensor: Nr:Datum:Temp:Feuchte:Taupunkt:
Aussen-T/F 1951 07-09-2016 18:30:00 25.8 C 61 % 17.71 C
1952 07-09-2016 18:35:00 25.5 C 61 % 17.43 C
1953 07-09-2016 18:40:00 25.3 C 62 % 17.5 C
1954 07-09-2016 18:45:00 25.2 C 62 % 17.4 C
1955 07-09-2016 18:50:00 25.1 C 62 % 17.31 C
1956 07-09-2016 18:55:00 24.9 C 63 % 17.37 C
1957 07-09-2016 19:00:00 24.8 C 63 % 17.28 C
1958 07-09-2016 19:05:00 24.6 C 64 % 17.34 C
1959 07-09-2016 19:10:00 24.3 C 64 % 17.05 C
1960 07-09-2016 19:15:00 24.1 C 65 % 17.11 C
1961 07-09-2016 19:20:00 23.9 C 66 % 17.16 C
1962 07-09-2016 19:25:00 23.7 C 66 % 16.97 C
1963 07-09-2016 19:30:00 23.4 C 67 % 16.92 C
1964 07-09-2016 19:35:00 23.2 C 68 % 16.97 C
1965 07-09-2016 19:40:00 22.9 C 68 % 16.68 C
1966 07-09-2016 19:45:00 22.6 C 69 % 16.62 C
1967 07-09-2016 19:50:00 22.2 C 70 % 16.47 C
1968 07-09-2016 19:55:00 21.9 C 70 % 16.18 C
1969 07-09-2016 20:00:00 21.7 C 71 % 16.21 C
1970 07-09-2016 20:05:00 21.4 C 71 % 15.93 C
1971 07-09-2016 20:10:00 21.3 C 71 % 15.83 C
1972 07-09-2016 20:15:00 21.2 C 71 % 15.73 C
1973 07-09-2016 20:20:00 21 C 72 % 15.76 C
1974 07-09-2016 20:25:00 20.9 C 72 % 15.66 C
1975 07-09-2016 20:30:00 20.8 C 73 % 15.78 C
Sensor: Nr:Datum:Temp:Feuchte:Taupunkt:
Aussen-T/F 1976 07-09-2016 20:35:00 20.6 C 73 % 15.59 C
1977 07-09-2016 20:40:00 20.4 C 74 % 15.61 C
1978 07-09-2016 20:45:00 20.3 C 74 % 15.51 C
1979 07-09-2016 20:50:00 20.2 C 75 % 15.63 C
1980 07-09-2016 20:55:00 20.1 C 75 % 15.53 C
1981 07-09-2016 21:00:00 20.1 C 76 % 15.74 C
1982 07-09-2016 21:05:00 19.9 C 76 % 15.54 C
1983 07-09-2016 21:10:00 19.8 C 75 % 15.24 C
1984 07-09-2016 21:15:00 19.7 C 77 % 15.56 C
1985 07-09-2016 21:20:00 19.6 C 77 % 15.46 C
1986 07-09-2016 21:25:00 19.5 C 78 % 15.56 C
1987 07-09-2016 21:30:00 19.3 C 78 % 15.37 C
1988 07-09-2016 21:35:00 19.1 C 79 % 15.37 C
1989 07-09-2016 21:40:00 18.9 C 80 % 15.38 C
1990 07-09-2016 21:45:00 18.7 C 80 % 15.18 C
1991 07-09-2016 21:50:00 18.5 C 81 % 15.18 C
1992 07-09-2016 21:55:00 18.3 C 82 % 15.17 C
1993 07-09-2016 22:00:00 18.2 C 82 % 15.08 C
1994 07-09-2016 22:05:00 18.1 C 83 % 15.17 C
1995 07-09-2016 22:10:00 18 C 83 % 15.07 C
1996 07-09-2016 22:15:00 17.8 C 83 % 14.88 C
1997 07-09-2016 22:20:00 17.7 C 84 % 14.96 C
1998 07-09-2016 22:25:00 17.6 C 85 % 15.05 C
1999 07-09-2016 22:30:00 17.5 C 85 % 14.95 C
2000 07-09-2016 22:35:00 17.4 C 85 % 14.85 C
Sensor: Nr:Datum:Temp:Feuchte:Taupunkt:
Aussen-T/F 2001 07-09-2016 22:40:00 17.3 C 85 % 14.76 C
2002 07-09-2016 22:45:00 17.3 C 86 % 14.94 C
2003 07-09-2016 22:50:00 17.2 C 86 % 14.84 C
2004 07-09-2016 22:55:00 17.2 C 87 % 15.02 C
2005 07-09-2016 23:00:00 17.1 C 86 % 14.74 C
2006 07-09-2016 23:05:00 17.1 C 87 % 14.92 C
2007 07-09-2016 23:10:00 17.1 C 87 % 14.92 C
2008 07-09-2016 23:15:00 17 C 87 % 14.82 C
2009 07-09-2016 23:20:00 16.9 C 86 % 14.54 C
2010 07-09-2016 23:25:00 16.8 C 87 % 14.62 C
2011 07-09-2016 23:30:00 16.7 C 87 % 14.53 C
2012 07-09-2016 23:35:00 16.7 C 87 % 14.53 C
2013 07-09-2016 23:40:00 16.6 C 88 % 14.6 C
2014 07-09-2016 23:45:00 16.6 C 88 % 14.6 C
2015 07-09-2016 23:50:00 16.5 C 87 % 14.33 C
2016 07-09-2016 23:55:00 16.4 C 88 % 14.41 C
2017 08-09-2016 00:00:00 16.3 C 88 % 14.31 C
2018 08-09-2016 00:05:00 16.3 C 88 % 14.31 C
2019 08-09-2016 00:10:00 16.2 C 89 % 14.39 C
2020 08-09-2016 00:15:00 16.1 C 89 % 14.29 C
2021 08-09-2016 00:20:00 15.9 C 89 % 14.09 C
2022 08-09-2016 00:25:00 15.8 C 89 % 13.99 C
2023 08-09-2016 00:30:00 15.8 C 89 % 13.99 C
2024 08-09-2016 00:35:00 15.7 C 90 % 14.06 C
2025 08-09-2016 00:40:00 15.6 C 90 % 13.97 C
Sensor: Nr:Datum:Temp:Feuchte:Taupunkt:
Aussen-T/F 2026 08-09-2016 00:45:00 15.6 C 90 % 13.97 C
2027 08-09-2016 00:50:00 15.5 C 90 % 13.87 C
2028 08-09-2016 00:55:00 15.4 C 90 % 13.77 C
2029 08-09-2016 01:00:00 15.4 C 91 % 13.94 C
2030 08-09-2016 01:05:00 15.3 C 90 % 13.67 C
2031 08-09-2016 01:10:00 15.3 C 91 % 13.84 C
2032 08-09-2016 01:15:00 15.2 C 91 % 13.74 C
2033 08-09-2016 01:20:00 15.2 C 91 % 13.74 C
2034 08-09-2016 01:25:00 15.2 C 91 % 13.74 C
2035 08-09-2016 01:30:00 15.1 C 91 % 13.64 C
2036 08-09-2016 01:35:00 15 C 91 % 13.54 C
2037 08-09-2016 01:40:00 15 C 92 % 13.71 C
2038 08-09-2016 01:45:00 15 C 92 % 13.71 C
2039 08-09-2016 01:50:00 14.9 C 92 % 13.61 C
2040 08-09-2016 01:55:00 14.9 C 92 % 13.61 C
2041 08-09-2016 02:00:00 14.8 C 92 % 13.51 C
2042 08-09-2016 02:05:00 14.8 C 92 % 13.51 C
2043 08-09-2016 02:10:00 14.7 C 92 % 13.41 C
2044 08-09-2016 02:15:00 14.7 C 92 % 13.41 C
2045 08-09-2016 02:20:00 14.7 C 93 % 13.58 C
2046 08-09-2016 02:25:00 14.7 C 93 % 13.58 C
2047 08-09-2016 02:30:00 14.6 C 93 % 13.48 C
2048 08-09-2016 02:35:00 14.5 C 92 % 13.22 C
2049 08-09-2016 02:40:00 14.5 C 93 % 13.38 C
2050 08-09-2016 02:45:00 14.6 C 93 % 13.48 C
Sensor: Nr:Datum:Temp:Feuchte:Taupunkt:
Aussen-T/F 2051 08-09-2016 02:50:00 14.5 C 93 % 13.38 C
2052 08-09-2016 02:55:00 14.4 C 93 % 13.28 C
2053 08-09-2016 03:00:00 14.3 C 93 % 13.18 C
2054 08-09-2016 03:05:00 14.3 C 93 % 13.18 C
2055 08-09-2016 03:10:00 14.2 C 93 % 13.08 C
2056 08-09-2016 03:15:00 14.2 C 93 % 13.08 C
2057 08-09-2016 03:20:00 14.2 C 93 % 13.08 C
2058 08-09-2016 03:25:00 14.1 C 93 % 12.99 C
2059 08-09-2016 03:30:00 14 C 93 % 12.89 C
2060 08-09-2016 03:35:00 14 C 93 % 12.89 C
2061 08-09-2016 03:40:00 14 C 94 % 13.05 C
2062 08-09-2016 03:45:00 14.1 C 94 % 13.15 C
2063 08-09-2016 03:50:00 14.2 C 94 % 13.25 C
2064 08-09-2016 03:55:00 14.1 C 94 % 13.15 C
2065 08-09-2016 04:00:00 13.9 C 93 % 12.79 C
2066 08-09-2016 04:05:00 13.8 C 94 % 12.85 C
2067 08-09-2016 04:10:00 13.8 C 94 % 12.85 C
2068 08-09-2016 04:15:00 13.8 C 94 % 12.85 C
2069 08-09-2016 04:20:00 13.8 C 94 % 12.85 C
2070 08-09-2016 04:25:00 13.8 C 94 % 12.85 C
2071 08-09-2016 04:30:00 13.8 C 94 % 12.85 C
2072 08-09-2016 04:35:00 13.7 C 94 % 12.75 C
2073 08-09-2016 04:40:00 13.7 C 94 % 12.75 C
2074 08-09-2016 04:45:00 13.8 C 94 % 12.85 C
2075 08-09-2016 04:50:00 13.9 C 95 % 13.11 C
Sensor: Nr:Datum:Temp:Feuchte:Taupunkt:
Aussen-T/F 2076 08-09-2016 04:55:00 13.8 C 94 % 12.85 C
2077 08-09-2016 05:00:00 13.7 C 94 % 12.75 C
2078 08-09-2016 05:05:00 13.6 C 94 % 12.65 C
2079 08-09-2016 05:10:00 13.5 C 94 % 12.55 C
2080 08-09-2016 05:15:00 13.4 C 94 % 12.45 C
2081 08-09-2016 05:20:00 13.4 C 95 % 12.62 C
2082 08-09-2016 05:25:00 13.6 C 95 % 12.81 C
2083 08-09-2016 05:30:00 13.7 C 95 % 12.91 C
2084 08-09-2016 05:35:00 13.7 C 95 % 12.91 C
2085 08-09-2016 05:40:00 13.7 C 95 % 12.91 C
2086 08-09-2016 05:45:00 13.7 C 95 % 12.91 C
2087 08-09-2016 05:50:00 13.6 C 94 % 12.65 C
2088 08-09-2016 05:55:00 13.5 C 94 % 12.55 C
2089 08-09-2016 06:00:00 13.4 C 94 % 12.45 C
2090 08-09-2016 06:05:00 13.4 C 94 % 12.45 C
2091 08-09-2016 06:10:00 13.3 C 94 % 12.36 C
2092 08-09-2016 06:15:00 13.1 C 94 % 12.16 C
2093 08-09-2016 06:20:00 13.1 C 94 % 12.16 C
2094 08-09-2016 06:25:00 13.1 C 94 % 12.16 C
2095 08-09-2016 06:30:00 13.2 C 95 % 12.42 C
2096 08-09-2016 06:35:00 13.2 C 95 % 12.42 C
2097 08-09-2016 06:40:00 13.1 C 95 % 12.32 C
2098 08-09-2016 06:45:00 13.1 C 94 % 12.16 C
2099 08-09-2016 06:50:00 12.9 C 94 % 11.96 C
2100 08-09-2016 06:55:00 12.9 C 94 % 11.96 C
Sensor: Nr:Datum:Temp:Feuchte:Taupunkt:
Aussen-T/F 2101 08-09-2016 07:00:00 12.8 C 94 % 11.86 C
2102 08-09-2016 07:05:00 12.8 C 95 % 12.02 C
2103 08-09-2016 07:10:00 12.8 C 95 % 12.02 C
2104 08-09-2016 07:15:00 12.8 C 95 % 12.02 C
2105 08-09-2016 07:20:00 12.8 C 95 % 12.02 C
2106 08-09-2016 07:25:00 12.8 C 95 % 12.02 C
2107 08-09-2016 07:30:00 12.8 C 95 % 12.02 C
2108 08-09-2016 07:35:00 12.9 C 95 % 12.12 C
2109 08-09-2016 07:40:00 12.9 C 95 % 12.12 C
2110 08-09-2016 07:45:00 12.9 C 95 % 12.12 C
2111 08-09-2016 07:50:00 12.9 C 95 % 12.12 C
2112 08-09-2016 07:55:00 12.9 C 95 % 12.12 C
2113 08-09-2016 08:00:00 12.9 C 95 % 12.12 C
2114 08-09-2016 08:05:00 13 C 95 % 12.22 C
2115 08-09-2016 08:10:00 13.1 C 95 % 12.32 C
2116 08-09-2016 08:15:00 13.2 C 95 % 12.42 C
2117 08-09-2016 08:20:00 13.2 C 95 % 12.42 C
2118 08-09-2016 08:25:00 13.3 C 96 % 12.68 C
2119 08-09-2016 08:30:00 13.3 C 96 % 12.68 C
2120 08-09-2016 08:35:00 13.3 C 95 % 12.52 C
2121 08-09-2016 08:40:00 13.3 C 95 % 12.52 C
2122 08-09-2016 08:45:00 13.4 C 96 % 12.78 C
2123 08-09-2016 08:50:00 13.4 C 96 % 12.78 C
2124 08-09-2016 08:55:00 13.5 C 96 % 12.87 C
2125 08-09-2016 09:00:00 13.6 C 96 % 12.97 C
Sensor: Nr:Datum:Temp:Feuchte:Taupunkt:
Aussen-T/F 2126 08-09-2016 09:05:00 13.7 C 96 % 13.07 C
2127 08-09-2016 09:10:00 13.8 C 96 % 13.17 C
2128 08-09-2016 09:15:00 13.9 C 96 % 13.27 C
2129 08-09-2016 09:20:00 14.1 C 96 % 13.47 C
2130 08-09-2016 09:25:00 14.2 C 96 % 13.57 C
2131 08-09-2016 09:30:00 14.3 C 96 % 13.67 C
2132 08-09-2016 09:35:00 14.4 C 96 % 13.77 C
2133 08-09-2016 09:40:00 14.5 C 96 % 13.87 C
2134 08-09-2016 09:45:00 14.6 C 96 % 13.97 C
2135 08-09-2016 09:50:00 14.7 C 96 % 14.07 C
2136 08-09-2016 09:55:00 14.9 C 96 % 14.27 C
2137 08-09-2016 10:00:00 15 C 96 % 14.37 C
2138 08-09-2016 10:05:00 15.2 C 96 % 14.57 C
2139 08-09-2016 10:10:00 15.3 C 96 % 14.67 C
2140 08-09-2016 10:15:00 15.4 C 96 % 14.77 C
2141 08-09-2016 10:20:00 15.6 C 96 % 14.96 C
2142 08-09-2016 10:25:00 15.8 C 96 % 15.16 C
2143 08-09-2016 10:30:00 15.9 C 96 % 15.26 C
2144 08-09-2016 10:35:00 16.1 C 96 % 15.46 C
2145 08-09-2016 10:40:00 16.2 C 96 % 15.56 C
2146 08-09-2016 10:45:00 16.4 C 96 % 15.76 C
2147 08-09-2016 10:50:00 16.6 C 96 % 15.96 C
2148 08-09-2016 10:55:00 16.8 C 96 % 16.16 C
2149 08-09-2016 11:00:00 17 C 96 % 16.36 C
2150 08-09-2016 11:05:00 17.2 C 95 % 16.39 C
Sensor: Nr:Datum:Temp:Feuchte:Taupunkt:
Aussen-T/F 2151 08-09-2016 11:10:00 17.3 C 95 % 16.49 C
2152 08-09-2016 11:15:00 17.7 C 94 % 16.72 C
2153 08-09-2016 11:20:00 17.9 C 94 % 16.92 C
2154 08-09-2016 11:25:00 18.2 C 93 % 17.05 C
2155 08-09-2016 11:30:00 18.3 C 92 % 16.98 C
2156 08-09-2016 11:35:00 18.7 C 90 % 17.03 C
2157 08-09-2016 11:40:00 19 C 90 % 17.32 C
2158 08-09-2016 11:45:00 19.3 C 88 % 17.26 C
2159 08-09-2016 11:50:00 19.6 C 88 % 17.56 C
2160 08-09-2016 11:55:00 19.8 C 89 % 17.93 C
2161 08-09-2016 12:00:00 20.1 C 88 % 18.05 C
2162 08-09-2016 12:05:00 20.3 C 85 % 17.7 C
2163 08-09-2016 12:10:00 20.6 C 84 % 17.8 C
2164 08-09-2016 12:15:00 20.8 C 84 % 18 C
2165 08-09-2016 12:20:00 20.9 C 81 % 17.52 C
2166 08-09-2016 12:25:00 21.1 C 80 % 17.51 C
2167 08-09-2016 12:30:00 21.3 C 79 % 17.51 C
2168 08-09-2016 12:35:00 21.7 C 76 % 17.28 C
2169 08-09-2016 12:40:00 22 C 74 % 17.15 C
2170 08-09-2016 12:45:00 22.4 C 73 % 17.32 C
2171 08-09-2016 12:50:00 22.8 C 72 % 17.49 C
2172 08-09-2016 12:55:00 22.9 C 70 % 17.14 C
2173 08-09-2016 13:00:00 23.2 C 72 % 17.87 C
2174 08-09-2016 13:05:00 23.3 C 72 % 17.97 C
2175 08-09-2016 13:10:00 23.5 C 66 % 16.78 C
Sensor: Nr:Datum:Temp:Feuchte:Taupunkt:
Aussen-T/F 2176 08-09-2016 13:15:00 23.8 C 70 % 18 C
2177 08-09-2016 13:20:00 23.9 C 64 % 16.68 C
2178 08-09-2016 13:25:00 24.2 C 64 % 16.96 C
2179 08-09-2016 13:30:00 24.4 C 63 % 16.9 C
2180 08-09-2016 13:35:00 24.7 C 63 % 17.18 C
2181 08-09-2016 13:40:00 24.9 C 61 % 16.86 C
2182 08-09-2016 13:45:00 25.1 C 60 % 16.79 C
2183 08-09-2016 13:50:00 25.3 C 62 % 17.5 C
2184 08-09-2016 13:55:00 25.3 C 59 % 16.71 C
2185 08-09-2016 14:00:00 25.4 C 63 % 17.84 C
2186 08-09-2016 14:05:00 25.4 C 60 % 17.07 C
2187 08-09-2016 14:10:00 25.6 C 58 % 16.72 C
2188 08-09-2016 14:15:00 25.8 C 58 % 16.91 C
2189 08-09-2016 14:20:00 25.9 C 59 % 17.27 C
2190 08-09-2016 14:25:00 26 C 56 % 16.54 C
2191 08-09-2016 14:30:00 26.2 C 58 % 17.28 C
2192 08-09-2016 14:35:00 26.2 C 56 % 16.73 C
2193 08-09-2016 14:40:00 26.3 C 59 % 17.65 C
2194 08-09-2016 14:45:00 26.4 C 58 % 17.47 C
2195 08-09-2016 14:50:00 26.5 C 58 % 17.56 C
2196 08-09-2016 14:55:00 26.6 C 60 % 18.2 C
2197 08-09-2016 15:00:00 26.5 C 56 % 17.01 C
2198 08-09-2016 15:05:00 26.6 C 56 % 17.1 C
2199 08-09-2016 15:10:00 26.7 C 57 % 17.47 C
2200 08-09-2016 15:15:00 26.8 C 59 % 18.11 C
Sensor: Nr:Datum:Temp:Feuchte:Taupunkt:
Aussen-T/F 2201 08-09-2016 15:20:00 26.7 C 57 % 17.47 C
2202 08-09-2016 15:25:00 26.7 C 56 % 17.19 C
2203 08-09-2016 15:30:00 26.7 C 56 % 17.19 C
2204 08-09-2016 15:35:00 26.8 C 57 % 17.57 C
2205 08-09-2016 15:40:00 26.8 C 59 % 18.11 C
2206 08-09-2016 15:45:00 26.8 C 56 % 17.29 C
2207 08-09-2016 15:50:00 27 C 55 % 17.19 C
2208 08-09-2016 15:55:00 27.1 C 54 % 16.99 C
2209 08-09-2016 16:00:00 27.2 C 53 % 16.79 C
2210 08-09-2016 16:05:00 27.3 C 52 % 16.58 C
2211 08-09-2016 16:10:00 27.4 C 53 % 16.97 C
2212 08-09-2016 16:15:00 27.6 C 54 % 17.45 C
2213 08-09-2016 16:20:00 27.7 C 52 % 16.95 C
2214 08-09-2016 16:25:00 27.9 C 55 % 18.02 C
2215 08-09-2016 16:30:00 27.9 C 52 % 17.13 C
2216 08-09-2016 16:35:00 28.1 C 52 % 17.32 C
2217 08-09-2016 16:40:00 28.2 C 53 % 17.71 C
2218 08-09-2016 16:45:00 28.4 C 51 % 17.29 C
2219 08-09-2016 16:50:00 28.7 C 53 % 18.17 C
2220 08-09-2016 16:55:00 28.8 C 52 % 17.96 C
2221 08-09-2016 17:00:00 29.1 C 55 % 19.13 C
2222 08-09-2016 17:05:00 29.3 C 52 % 18.42 C
2223 08-09-2016 17:10:00 29.3 C 51 % 18.11 C
2224 08-09-2016 17:15:00 29.4 C 50 % 17.89 C
2225 08-09-2016 17:20:00 29.4 C 51 % 18.2 C
Sensor: Nr:Datum:Temp:Feuchte:Taupunkt:
Aussen-T/F 2226 08-09-2016 17:25:00 29.6 C 49 % 17.75 C
2227 08-09-2016 17:30:00 29.9 C 51 % 18.66 C
2228 08-09-2016 17:35:00 29.8 C 52 % 18.88 C
2229 08-09-2016 17:40:00 29.3 C 49 % 17.48 C
2230 08-09-2016 17:45:00 29.2 C 54 % 18.93 C
2231 08-09-2016 17:50:00 29.2 C 51 % 18.02 C
2232 08-09-2016 17:55:00 29.2 C 56 % 19.52 C
2233 08-09-2016 18:00:00 29.2 C 54 % 18.93 C
2234 08-09-2016 18:05:00 28.9 C 54 % 18.66 C
2235 08-09-2016 18:10:00 28.6 C 56 % 18.96 C
2236 08-09-2016 18:15:00 28.2 C 58 % 19.15 C
2237 08-09-2016 18:20:00 27.7 C 58 % 18.68 C
2238 08-09-2016 18:25:00 27.2 C 59 % 18.49 C
2239 08-09-2016 18:30:00 26.6 C 61 % 18.46 C
2240 08-09-2016 18:35:00 26.2 C 63 % 18.6 C
2241 08-09-2016 18:40:00 26 C 64 % 18.66 C
2242 08-09-2016 18:45:00 25.9 C 63 % 18.31 C
2243 08-09-2016 18:50:00 25.8 C 64 % 18.47 C
2244 08-09-2016 18:55:00 25.8 C 64 % 18.47 C
2245 08-09-2016 19:00:00 25.8 C 65 % 18.72 C
2246 08-09-2016 19:05:00 25.7 C 64 % 18.38 C
2247 08-09-2016 19:10:00 25.7 C 64 % 18.38 C
2248 08-09-2016 19:15:00 25.5 C 64 % 18.19 C
2249 08-09-2016 19:20:00 25.3 C 65 % 18.25 C
2250 08-09-2016 19:25:00 25.2 C 65 % 18.15 C
Sensor: Nr:Datum:Temp:Feuchte:Taupunkt:
Aussen-T/F 2251 08-09-2016 19:30:00 25 C 65 % 17.96 C
2252 08-09-2016 19:35:00 24.8 C 65 % 17.77 C
2253 08-09-2016 19:40:00 24.6 C 66 % 17.83 C
2254 08-09-2016 19:45:00 24.3 C 67 % 17.78 C
2255 08-09-2016 19:50:00 24 C 68 % 17.73 C
2256 08-09-2016 19:55:00 23.8 C 67 % 17.3 C
2257 08-09-2016 20:00:00 23.7 C 68 % 17.44 C
2258 08-09-2016 20:05:00 23.6 C 69 % 17.58 C
2259 08-09-2016 20:10:00 23.4 C 70 % 17.62 C
2260 08-09-2016 20:15:00 23.2 C 71 % 17.65 C
2261 08-09-2016 20:20:00 23.1 C 70 % 17.33 C
2262 08-09-2016 20:25:00 23 C 70 % 17.23 C
2263 08-09-2016 20:30:00 22.9 C 70 % 17.14 C
2264 08-09-2016 20:35:00 22.9 C 70 % 17.14 C
2265 08-09-2016 20:40:00 22.8 C 70 % 17.04 C
2266 08-09-2016 20:45:00 22.8 C 70 % 17.04 C
2267 08-09-2016 20:50:00 22.7 C 70 % 16.95 C
2268 08-09-2016 20:55:00 22.6 C 71 % 17.07 C
2269 08-09-2016 21:00:00 22.4 C 72 % 17.1 C
2270 08-09-2016 21:05:00 22.2 C 72 % 16.91 C
2271 08-09-2016 21:10:00 22.1 C 73 % 17.03 C
2272 08-09-2016 21:15:00 21.9 C 73 % 16.84 C
2273 08-09-2016 21:20:00 21.8 C 73 % 16.75 C
2274 08-09-2016 21:25:00 21.7 C 73 % 16.65 C
2275 08-09-2016 21:30:00 21.7 C 73 % 16.65 C
Sensor: Nr:Datum:Temp:Feuchte:Taupunkt:
Aussen-T/F 2276 08-09-2016 21:35:00 21.7 C 73 % 16.65 C
2277 08-09-2016 21:40:00 21.6 C 73 % 16.55 C
2278 08-09-2016 21:45:00 21.6 C 74 % 16.77 C
2279 08-09-2016 21:50:00 21.4 C 74 % 16.57 C
2280 08-09-2016 21:55:00 21.2 C 75 % 16.59 C
2281 08-09-2016 22:00:00 21.1 C 75 % 16.5 C
2282 08-09-2016 22:05:00 20.9 C 76 % 16.51 C
2283 08-09-2016 22:10:00 20.7 C 76 % 16.32 C
2284 08-09-2016 22:15:00 20.6 C 76 % 16.22 C
2285 08-09-2016 22:20:00 20.4 C 77 % 16.23 C
2286 08-09-2016 22:25:00 20.3 C 78 % 16.34 C
2287 08-09-2016 22:30:00 20.1 C 78 % 16.14 C
2288 08-09-2016 22:35:00 19.9 C 78 % 15.95 C
2289 08-09-2016 22:40:00 19.8 C 79 % 16.05 C
2290 08-09-2016 22:45:00 19.7 C 79 % 15.96 C
2291 08-09-2016 22:50:00 19.6 C 80 % 16.06 C
2292 08-09-2016 22:55:00 19.4 C 80 % 15.86 C
2293 08-09-2016 23:00:00 19.3 C 81 % 15.96 C
2294 08-09-2016 23:05:00 19.2 C 81 % 15.86 C
2295 08-09-2016 23:10:00 19.1 C 81 % 15.76 C
2296 08-09-2016 23:15:00 19.1 C 81 % 15.76 C
2297 08-09-2016 23:20:00 18.9 C 81 % 15.57 C
2298 08-09-2016 23:25:00 18.9 C 81 % 15.57 C
2299 08-09-2016 23:30:00 18.9 C 82 % 15.76 C
2300 08-09-2016 23:35:00 18.8 C 82 % 15.66 C
Sensor: Nr:Datum:Temp:Feuchte:Taupunkt:
Aussen-T/F 2301 08-09-2016 23:40:00 18.7 C 82 % 15.57 C
2302 08-09-2016 23:45:00 18.7 C 82 % 15.57 C
2303 08-09-2016 23:50:00 18.8 C 83 % 15.85 C
2304 08-09-2016 23:55:00 18.8 C 82 % 15.66 C
2305 09-09-2016 00:00:00 18.9 C 82 % 15.76 C
2306 09-09-2016 00:05:00 18.9 C 82 % 15.76 C
2307 09-09-2016 00:10:00 18.9 C 82 % 15.76 C
2308 09-09-2016 00:15:00 18.8 C 83 % 15.85 C
2309 09-09-2016 00:20:00 18.8 C 83 % 15.85 C
2310 09-09-2016 00:25:00 18.8 C 83 % 15.85 C
2311 09-09-2016 00:30:00 18.8 C 83 % 15.85 C
2312 09-09-2016 00:35:00 18.8 C 84 % 16.04 C
2313 09-09-2016 00:40:00 18.9 C 83 % 15.95 C
2314 09-09-2016 00:45:00 19.1 C 84 % 16.33 C
2315 09-09-2016 00:50:00 19.3 C 83 % 16.34 C
2316 09-09-2016 00:55:00 19.4 C 83 % 16.44 C
2317 09-09-2016 01:00:00 19.4 C 82 % 16.25 C
2318 09-09-2016 01:05:00 19.4 C 83 % 16.44 C
2319 09-09-2016 01:10:00 19.3 C 83 % 16.34 C
2320 09-09-2016 01:15:00 19.2 C 83 % 16.24 C
2321 09-09-2016 01:20:00 19.2 C 83 % 16.24 C
2322 09-09-2016 01:25:00 19.2 C 83 % 16.24 C
2323 09-09-2016 01:30:00 19.2 C 83 % 16.24 C
2324 09-09-2016 01:35:00 19.4 C 83 % 16.44 C
2325 09-09-2016 01:40:00 19.7 C 81 % 16.35 C
Sensor: Nr:Datum:Temp:Feuchte:Taupunkt:
Aussen-T/F 2326 09-09-2016 01:45:00 19.9 C 81 % 16.54 C
2327 09-09-2016 01:50:00 19.8 C 81 % 16.45 C
2328 09-09-2016 01:55:00 19.8 C 80 % 16.25 C
2329 09-09-2016 02:00:00 19.8 C 80 % 16.25 C
2330 09-09-2016 02:05:00 19.8 C 80 % 16.25 C
2331 09-09-2016 02:10:00 19.7 C 80 % 16.15 C
2332 09-09-2016 02:15:00 19.7 C 80 % 16.15 C
2333 09-09-2016 02:20:00 19.7 C 79 % 15.96 C
2334 09-09-2016 02:25:00 19.7 C 78 % 15.76 C
2335 09-09-2016 02:30:00 19.7 C 76 % 15.35 C
2336 09-09-2016 02:35:00 19.8 C 75 % 15.24 C
2337 09-09-2016 02:40:00 19.9 C 74 % 15.13 C
2338 09-09-2016 02:45:00 19.9 C 74 % 15.13 C
2339 09-09-2016 02:50:00 19.9 C 74 % 15.13 C
2340 09-09-2016 02:55:00 19.9 C 73 % 14.92 C
2341 09-09-2016 03:00:00 19.9 C 74 % 15.13 C
2342 09-09-2016 03:05:00 19.8 C 74 % 15.03 C
2343 09-09-2016 03:10:00 19.7 C 73 % 14.73 C
2344 09-09-2016 03:15:00 19.7 C 72 % 14.51 C
2345 09-09-2016 03:20:00 19.7 C 72 % 14.51 C
2346 09-09-2016 03:25:00 19.7 C 71 % 14.3 C
2347 09-09-2016 03:30:00 19.7 C 72 % 14.51 C
2348 09-09-2016 03:35:00 19.7 C 74 % 14.94 C
2349 09-09-2016 03:40:00 19.5 C 71 % 14.1 C
2350 09-09-2016 03:45:00 19.4 C 71 % 14.01 C
Sensor: Nr:Datum:Temp:Feuchte:Taupunkt:
Aussen-T/F 2351 09-09-2016 03:50:00 19.4 C 71 % 14.01 C
2352 09-09-2016 03:55:00 19.4 C 71 % 14.01 C
2353 09-09-2016 04:00:00 19.3 C 70 % 13.69 C
2354 09-09-2016 04:05:00 19.3 C 70 % 13.69 C
2355 09-09-2016 04:10:00 19.3 C 71 % 13.91 C
2356 09-09-2016 04:15:00 19.2 C 70 % 13.6 C
2357 09-09-2016 04:20:00 19.2 C 70 % 13.6 C
2358 09-09-2016 04:25:00 19.1 C 70 % 13.5 C
2359 09-09-2016 04:30:00 19.1 C 70 % 13.5 C
2360 09-09-2016 04:35:00 19 C 70 % 13.41 C
2361 09-09-2016 04:40:00 18.9 C 71 % 13.53 C
2362 09-09-2016 04:45:00 18.8 C 71 % 13.43 C
2363 09-09-2016 04:50:00 18.8 C 73 % 13.86 C
2364 09-09-2016 04:55:00 18.7 C 73 % 13.76 C
2365 09-09-2016 05:00:00 18.6 C 73 % 13.67 C
2366 09-09-2016 05:05:00 18.6 C 74 % 13.88 C
2367 09-09-2016 05:10:00 18.4 C 75 % 13.89 C
2368 09-09-2016 05:15:00 18.3 C 72 % 13.17 C
2369 09-09-2016 05:20:00 18.3 C 72 % 13.17 C
2370 09-09-2016 05:25:00 18.4 C 73 % 13.48 C
2371 09-09-2016 05:30:00 18.4 C 73 % 13.48 C
2372 09-09-2016 05:35:00 18.4 C 75 % 13.89 C
2373 09-09-2016 05:40:00 18.3 C 72 % 13.17 C
2374 09-09-2016 05:45:00 18.2 C 72 % 13.07 C
2375 09-09-2016 05:50:00 18.2 C 72 % 13.07 C
Sensor: Nr:Datum:Temp:Feuchte:Taupunkt:
Aussen-T/F 2376 09-09-2016 05:55:00 18.2 C 72 % 13.07 C
2377 09-09-2016 06:00:00 18.2 C 73 % 13.28 C
2378 09-09-2016 06:05:00 18.2 C 72 % 13.07 C
2379 09-09-2016 06:10:00 18.1 C 73 % 13.19 C
2380 09-09-2016 06:15:00 18.1 C 74 % 13.4 C
2381 09-09-2016 06:20:00 18 C 72 % 12.88 C
2382 09-09-2016 06:25:00 18 C 73 % 13.09 C
2383 09-09-2016 06:30:00 17.9 C 75 % 13.41 C
2384 09-09-2016 06:35:00 17.8 C 76 % 13.52 C
2385 09-09-2016 06:40:00 17.7 C 76 % 13.42 C
2386 09-09-2016 06:45:00 17.4 C 76 % 13.13 C
2387 09-09-2016 06:50:00 17.3 C 76 % 13.03 C
2388 09-09-2016 06:55:00 17.3 C 75 % 12.83 C
2389 09-09-2016 07:00:00 17.3 C 76 % 13.03 C
2390 09-09-2016 07:05:00 17.3 C 76 % 13.03 C
2391 09-09-2016 07:10:00 17.3 C 75 % 12.83 C
2392 09-09-2016 07:15:00 17.3 C 75 % 12.83 C
2393 09-09-2016 07:20:00 17.3 C 75 % 12.83 C
2394 09-09-2016 07:25:00 17.2 C 77 % 13.14 C
2395 09-09-2016 07:30:00 17 C 78 % 13.14 C
2396 09-09-2016 07:35:00 16.8 C 78 % 12.94 C
2397 09-09-2016 07:40:00 16.6 C 79 % 12.95 C
2398 09-09-2016 07:45:00 16.4 C 80 % 12.94 C
2399 09-09-2016 07:50:00 16.2 C 81 % 12.94 C
2400 09-09-2016 07:55:00 16.1 C 82 % 13.03 C
Sensor: Nr:Datum:Temp:Feuchte:Taupunkt:
Aussen-T/F 2401 09-09-2016 08:00:00 16.1 C 82 % 13.03 C
2402 09-09-2016 08:05:00 16 C 83 % 13.12 C
2403 09-09-2016 08:10:00 16 C 84 % 13.3 C
2404 09-09-2016 08:15:00 16.1 C 84 % 13.4 C
2405 09-09-2016 08:20:00 16.1 C 84 % 13.4 C
2406 09-09-2016 08:25:00 16.2 C 84 % 13.5 C
2407 09-09-2016 08:30:00 16.2 C 84 % 13.5 C
2408 09-09-2016 08:35:00 16.2 C 84 % 13.5 C
2409 09-09-2016 08:40:00 16.3 C 84 % 13.59 C
2410 09-09-2016 08:45:00 16.3 C 82 % 13.22 C
2411 09-09-2016 08:50:00 16.4 C 84 % 13.69 C
2412 09-09-2016 08:55:00 16.6 C 83 % 13.7 C
2413 09-09-2016 09:00:00 16.7 C 80 % 13.23 C
2414 09-09-2016 09:05:00 16.8 C 82 % 13.71 C
2415 09-09-2016 09:10:00 17 C 83 % 14.09 C
2416 09-09-2016 09:15:00 17.1 C 78 % 13.24 C
2417 09-09-2016 09:20:00 17.2 C 77 % 13.14 C
2418 09-09-2016 09:25:00 17.4 C 76 % 13.13 C
2419 09-09-2016 09:30:00 17.6 C 76 % 13.32 C
2420 09-09-2016 09:35:00 17.7 C 76 % 13.42 C
2421 09-09-2016 09:40:00 17.8 C 75 % 13.31 C
2422 09-09-2016 09:45:00 17.9 C 75 % 13.41 C
2423 09-09-2016 09:50:00 17.9 C 75 % 13.41 C
2424 09-09-2016 09:55:00 18 C 74 % 13.3 C
2425 09-09-2016 10:00:00 18 C 75 % 13.51 C
Sensor: Nr:Datum:Temp:Feuchte:Taupunkt:
Aussen-T/F 2426 09-09-2016 10:05:00 17.9 C 75 % 13.41 C
2427 09-09-2016 10:10:00 17.9 C 75 % 13.41 C
2428 09-09-2016 10:15:00 17.9 C 75 % 13.41 C
2429 09-09-2016 10:20:00 17.9 C 75 % 13.41 C
2430 09-09-2016 10:25:00 18 C 75 % 13.51 C
2431 09-09-2016 10:30:00 18 C 75 % 13.51 C
2432 09-09-2016 10:35:00 18.1 C 75 % 13.6 C
2433 09-09-2016 10:40:00 18.2 C 75 % 13.7 C
2434 09-09-2016 10:45:00 18.2 C 75 % 13.7 C
2435 09-09-2016 10:50:00 18.2 C 75 % 13.7 C
2436 09-09-2016 10:55:00 18.3 C 76 % 14 C
2437 09-09-2016 11:00:00 18.3 C 77 % 14.2 C
2438 09-09-2016 11:05:00 18.3 C 77 % 14.2 C
2439 09-09-2016 11:10:00 18.3 C 75 % 13.79 C
2440 09-09-2016 11:15:00 18.3 C 76 % 14 C
2441 09-09-2016 11:20:00 18.4 C 76 % 14.1 C
2442 09-09-2016 11:25:00 18.6 C 76 % 14.29 C
2443 09-09-2016 11:30:00 18.6 C 77 % 14.49 C
2444 09-09-2016 11:35:00 18.7 C 75 % 14.18 C
2445 09-09-2016 11:40:00 18.8 C 75 % 14.28 C
2446 09-09-2016 11:45:00 18.9 C 74 % 14.17 C
2447 09-09-2016 11:50:00 19.1 C 74 % 14.36 C
2448 09-09-2016 11:55:00 19.2 C 74 % 14.46 C
2449 09-09-2016 12:00:00 19.3 C 73 % 14.34 C
2450 09-09-2016 12:05:00 19.4 C 74 % 14.65 C
Sensor: Nr:Datum:Temp:Feuchte:Taupunkt:
Aussen-T/F 2451 09-09-2016 12:10:00 19.4 C 74 % 14.65 C
2452 09-09-2016 12:15:00 19.6 C 74 % 14.84 C
2453 09-09-2016 12:20:00 19.7 C 75 % 15.15 C
2454 09-09-2016 12:25:00 19.7 C 73 % 14.73 C
2455 09-09-2016 12:30:00 19.8 C 73 % 14.82 C
2456 09-09-2016 12:35:00 19.9 C 73 % 14.92 C
2457 09-09-2016 12:40:00 20.1 C 72 % 14.9 C
2458 09-09-2016 12:45:00 20.3 C 72 % 15.09 C
2459 09-09-2016 12:50:00 20.4 C 72 % 15.18 C
2460 09-09-2016 12:55:00 20.6 C 72 % 15.38 C
2461 09-09-2016 13:00:00 20.6 C 71 % 15.16 C
2462 09-09-2016 13:05:00 20.7 C 72 % 15.47 C
2463 09-09-2016 13:10:00 20.7 C 70 % 15.03 C
2464 09-09-2016 13:15:00 20.8 C 69 % 14.91 C
2465 09-09-2016 13:20:00 21 C 68 % 14.87 C
2466 09-09-2016 13:25:00 21.1 C 70 % 15.42 C
2467 09-09-2016 13:30:00 21.3 C 68 % 15.16 C
2468 09-09-2016 13:35:00 21.4 C 69 % 15.48 C
2469 09-09-2016 13:40:00 21.6 C 66 % 14.98 C
2470 09-09-2016 13:45:00 21.8 C 64 % 14.69 C
2471 09-09-2016 13:50:00 21.9 C 65 % 15.02 C
2472 09-09-2016 13:55:00 22.1 C 63 % 14.73 C
2473 09-09-2016 14:00:00 22.2 C 63 % 14.82 C
2474 09-09-2016 14:05:00 22.3 C 62 % 14.67 C
2475 09-09-2016 14:10:00 22.5 C 62 % 14.86 C
Sensor: Nr:Datum:Temp:Feuchte:Taupunkt:
Aussen-T/F 2476 09-09-2016 14:15:00 22.6 C 62 % 14.95 C
2477 09-09-2016 14:20:00 22.7 C 60 % 14.54 C
2478 09-09-2016 14:25:00 22.8 C 56 % 13.57 C
2479 09-09-2016 14:30:00 23 C 55 % 13.48 C
2480 09-09-2016 14:35:00 23.2 C 56 % 13.94 C
2481 09-09-2016 14:40:00 23.3 C 55 % 13.76 C
2482 09-09-2016 14:45:00 23.5 C 54 % 13.66 C
2483 09-09-2016 14:50:00 23.6 C 54 % 13.75 C
2484 09-09-2016 14:55:00 23.6 C 54 % 13.75 C
2485 09-09-2016 15:00:00 23.7 C 51 % 12.97 C
2486 09-09-2016 15:05:00 23.8 C 53 % 13.65 C
2487 09-09-2016 15:10:00 23.8 C 51 % 13.06 C
2488 09-09-2016 15:15:00 24 C 51 % 13.24 C
2489 09-09-2016 15:20:00 24.1 C 49 % 12.72 C
2490 09-09-2016 15:25:00 24.1 C 50 % 13.03 C
2491 09-09-2016 15:30:00 24.1 C 58 % 15.32 C
2492 09-09-2016 15:35:00 24.1 C 56 % 14.78 C
2493 09-09-2016 15:40:00 24.1 C 50 % 13.03 C
2494 09-09-2016 15:45:00 24.4 C 49 % 13 C
2495 09-09-2016 15:50:00 24.7 C 48 % 12.96 C
2496 09-09-2016 15:55:00 24.8 C 47 % 12.73 C
2497 09-09-2016 16:00:00 25 C 46 % 12.58 C
2498 09-09-2016 16:05:00 25.1 C 46 % 12.67 C
2499 09-09-2016 16:10:00 25.1 C 46 % 12.67 C
2500 09-09-2016 16:15:00 25.1 C 45 % 12.34 C
Sensor: Nr:Datum:Temp:Feuchte:Taupunkt:
Aussen-T/F 2501 09-09-2016 16:20:00 25.2 C 46 % 12.76 C
2502 09-09-2016 16:25:00 25.3 C 45 % 12.52 C
2503 09-09-2016 16:30:00 25.3 C 45 % 12.52 C
2504 09-09-2016 16:35:00 25.4 C 45 % 12.61 C
2505 09-09-2016 16:40:00 25.6 C 45 % 12.79 C
2506 09-09-2016 16:45:00 25.7 C 44 % 12.54 C
2507 09-09-2016 16:50:00 25.9 C 45 % 13.06 C
2508 09-09-2016 16:55:00 26.1 C 44 % 12.9 C
2509 09-09-2016 17:00:00 26.5 C 45 % 13.6 C
2510 09-09-2016 17:05:00 26.8 C 43 % 13.18 C
2511 09-09-2016 17:10:00 26.8 C 43 % 13.18 C
2512 09-09-2016 17:15:00 27.1 C 44 % 13.8 C
2513 09-09-2016 17:20:00 27.3 C 42 % 13.27 C
2514 09-09-2016 17:25:00 27.3 C 43 % 13.63 C
2515 09-09-2016 17:30:00 27.5 C 43 % 13.81 C
2516 09-09-2016 17:35:00 27.3 C 42 % 13.27 C
2517 09-09-2016 17:40:00 27.3 C 44 % 13.98 C
2518 09-09-2016 17:45:00 27.5 C 49 % 15.83 C
2519 09-09-2016 17:50:00 27.6 C 42 % 13.53 C
2520 09-09-2016 17:55:00 27.7 C 49 % 16.01 C
2521 09-09-2016 18:00:00 27.6 C 49 % 15.92 C
2522 09-09-2016 18:05:00 27 C 52 % 16.3 C
2523 09-09-2016 18:10:00 26.4 C 53 % 16.05 C
2524 09-09-2016 18:15:00 25.9 C 55 % 16.17 C
2525 09-09-2016 18:20:00 25.3 C 57 % 16.17 C
Sensor: Nr:Datum:Temp:Feuchte:Taupunkt:
Aussen-T/F 2526 09-09-2016 18:25:00 24.9 C 58 % 16.07 C
2527 09-09-2016 18:30:00 24.6 C 60 % 16.32 C
2528 09-09-2016 18:35:00 24.3 C 61 % 16.3 C
2529 09-09-2016 18:40:00 24.2 C 61 % 16.2 C
2530 09-09-2016 18:45:00 24 C 61 % 16.02 C
2531 09-09-2016 18:50:00 23.9 C 62 % 16.18 C
2532 09-09-2016 18:55:00 23.8 C 62 % 16.08 C
2533 09-09-2016 19:00:00 23.6 C 63 % 16.14 C
2534 09-09-2016 19:05:00 23.4 C 63 % 15.96 C
2535 09-09-2016 19:10:00 23.2 C 65 % 16.26 C
2536 09-09-2016 19:15:00 23.1 C 64 % 15.92 C
2537 09-09-2016 19:20:00 22.9 C 65 % 15.97 C
2538 09-09-2016 19:25:00 22.7 C 66 % 16.02 C
2539 09-09-2016 19:30:00 22.4 C 65 % 15.5 C
2540 09-09-2016 19:35:00 22.2 C 66 % 15.55 C
2541 09-09-2016 19:40:00 21.9 C 67 % 15.5 C
2542 09-09-2016 19:45:00 21.7 C 68 % 15.54 C
2543 09-09-2016 19:50:00 21.5 C 69 % 15.57 C
2544 09-09-2016 19:55:00 21.3 C 69 % 15.38 C
2545 09-09-2016 20:00:00 21.1 C 69 % 15.19 C
2546 09-09-2016 20:05:00 20.8 C 67 % 14.45 C
2547 09-09-2016 20:10:00 20.6 C 66 % 14.03 C
2548 09-09-2016 20:15:00 20.4 C 66 % 13.84 C
2549 09-09-2016 20:20:00 20.3 C 67 % 13.97 C
2550 09-09-2016 20:25:00 20.2 C 68 % 14.11 C
Sensor: Nr:Datum:Temp:Feuchte:Taupunkt:
Aussen-T/F 2551 09-09-2016 20:30:00 20.1 C 68 % 14.01 C
2552 09-09-2016 20:35:00 19.9 C 68 % 13.82 C
2553 09-09-2016 20:40:00 19.8 C 70 % 14.17 C
2554 09-09-2016 20:45:00 19.7 C 72 % 14.51 C
2555 09-09-2016 20:50:00 19.6 C 73 % 14.63 C
2556 09-09-2016 20:55:00 19.4 C 74 % 14.65 C
2557 09-09-2016 21:00:00 19.4 C 74 % 14.65 C
2558 09-09-2016 21:05:00 19.3 C 75 % 14.76 C
2559 09-09-2016 21:10:00 19.2 C 76 % 14.87 C
2560 09-09-2016 21:15:00 19.1 C 76 % 14.77 C
2561 09-09-2016 21:20:00 19.1 C 77 % 14.97 C
2562 09-09-2016 21:25:00 18.9 C 77 % 14.78 C
2563 09-09-2016 21:30:00 18.9 C 78 % 14.98 C
2564 09-09-2016 21:35:00 18.9 C 78 % 14.98 C
2565 09-09-2016 21:40:00 18.9 C 78 % 14.98 C
2566 09-09-2016 21:45:00 18.8 C 78 % 14.88 C
2567 09-09-2016 21:50:00 18.8 C 78 % 14.88 C
2568 09-09-2016 21:55:00 18.7 C 79 % 14.99 C
2569 09-09-2016 22:00:00 18.6 C 79 % 14.89 C
2570 09-09-2016 22:05:00 18.5 C 79 % 14.79 C
2571 09-09-2016 22:10:00 18.4 C 79 % 14.69 C
2572 09-09-2016 22:15:00 18.3 C 80 % 14.79 C
2573 09-09-2016 22:20:00 18.2 C 80 % 14.69 C
2574 09-09-2016 22:25:00 18.1 C 80 % 14.6 C
2575 09-09-2016 22:30:00 18 C 80 % 14.5 C
Sensor: Nr:Datum:Temp:Feuchte:Taupunkt:
Aussen-T/F 2576 09-09-2016 22:35:00 17.9 C 80 % 14.4 C
2577 09-09-2016 22:40:00 17.9 C 81 % 14.59 C
2578 09-09-2016 22:45:00 17.8 C 80 % 14.31 C
2579 09-09-2016 22:50:00 17.7 C 81 % 14.4 C
2580 09-09-2016 22:55:00 17.6 C 81 % 14.3 C
2581 09-09-2016 23:00:00 17.5 C 82 % 14.39 C
2582 09-09-2016 23:05:00 17.3 C 82 % 14.2 C
2583 09-09-2016 23:10:00 17.3 C 83 % 14.39 C
2584 09-09-2016 23:15:00 17.2 C 83 % 14.29 C
2585 09-09-2016 23:20:00 17.1 C 83 % 14.19 C
2586 09-09-2016 23:25:00 17 C 83 % 14.09 C
2587 09-09-2016 23:30:00 16.9 C 84 % 14.18 C
2588 09-09-2016 23:35:00 16.8 C 84 % 14.08 C
2589 09-09-2016 23:40:00 16.7 C 84 % 13.98 C
2590 09-09-2016 23:45:00 16.6 C 84 % 13.89 C
2591 09-09-2016 23:50:00 16.5 C 85 % 13.97 C
2592 09-09-2016 23:55:00 16.4 C 85 % 13.87 C
2593 10-09-2016 00:00:00 16.3 C 85 % 13.77 C
2594 10-09-2016 00:05:00 16.2 C 86 % 13.86 C
2595 10-09-2016 00:10:00 16.2 C 86 % 13.86 C
2596 10-09-2016 00:15:00 16.2 C 86 % 13.86 C
2597 10-09-2016 00:20:00 16.1 C 86 % 13.76 C
2598 10-09-2016 00:25:00 16.1 C 86 % 13.76 C
2599 10-09-2016 00:30:00 15.9 C 86 % 13.56 C
2600 10-09-2016 00:35:00 15.9 C 86 % 13.56 C
Sensor: Nr:Datum:Temp:Feuchte:Taupunkt:
Aussen-T/F 2601 10-09-2016 00:40:00 15.8 C 86 % 13.46 C
2602 10-09-2016 00:45:00 15.8 C 86 % 13.46 C
2603 10-09-2016 00:50:00 15.8 C 87 % 13.64 C
2604 10-09-2016 00:55:00 15.7 C 87 % 13.54 C
2605 10-09-2016 01:00:00 15.7 C 87 % 13.54 C
2606 10-09-2016 01:05:00 15.6 C 86 % 13.27 C
2607 10-09-2016 01:10:00 15.5 C 87 % 13.35 C
2608 10-09-2016 01:15:00 15.4 C 87 % 13.25 C
2609 10-09-2016 01:20:00 15.4 C 87 % 13.25 C
2610 10-09-2016 01:25:00 15.3 C 88 % 13.33 C
2611 10-09-2016 01:30:00 15.3 C 88 % 13.33 C
2612 10-09-2016 01:35:00 15.3 C 88 % 13.33 C
2613 10-09-2016 01:40:00 15.2 C 88 % 13.23 C
2614 10-09-2016 01:45:00 15.2 C 88 % 13.23 C
2615 10-09-2016 01:50:00 15.2 C 88 % 13.23 C
2616 10-09-2016 01:55:00 15.1 C 88 % 13.13 C
2617 10-09-2016 02:00:00 15.1 C 88 % 13.13 C
2618 10-09-2016 02:05:00 15.1 C 89 % 13.3 C
2619 10-09-2016 02:10:00 15 C 89 % 13.2 C
2620 10-09-2016 02:15:00 15 C 89 % 13.2 C
2621 10-09-2016 02:20:00 15 C 89 % 13.2 C
2622 10-09-2016 02:25:00 14.9 C 89 % 13.1 C
2623 10-09-2016 02:30:00 14.9 C 89 % 13.1 C
2624 10-09-2016 02:35:00 14.9 C 89 % 13.1 C
2625 10-09-2016 02:40:00 14.8 C 89 % 13.01 C
Sensor: Nr:Datum:Temp:Feuchte:Taupunkt:
Aussen-T/F 2626 10-09-2016 02:45:00 14.8 C 90 % 13.18 C
2627 10-09-2016 02:50:00 14.8 C 90 % 13.18 C
2628 10-09-2016 02:55:00 14.8 C 90 % 13.18 C
2629 10-09-2016 03:00:00 14.7 C 90 % 13.08 C
2630 10-09-2016 03:05:00 14.7 C 90 % 13.08 C
2631 10-09-2016 03:10:00 14.6 C 90 % 12.98 C
2632 10-09-2016 03:15:00 14.6 C 90 % 12.98 C
2633 10-09-2016 03:20:00 14.6 C 90 % 12.98 C
2634 10-09-2016 03:25:00 14.6 C 90 % 12.98 C
2635 10-09-2016 03:30:00 14.5 C 90 % 12.88 C
2636 10-09-2016 03:35:00 14.4 C 90 % 12.78 C
2637 10-09-2016 03:40:00 14.4 C 90 % 12.78 C
2638 10-09-2016 03:45:00 14.3 C 90 % 12.68 C
2639 10-09-2016 03:50:00 14.3 C 91 % 12.85 C
2640 10-09-2016 03:55:00 14.3 C 90 % 12.68 C
2641 10-09-2016 04:00:00 14.2 C 90 % 12.58 C
2642 10-09-2016 04:05:00 14.2 C 91 % 12.75 C
2643 10-09-2016 04:10:00 14.2 C 91 % 12.75 C
2644 10-09-2016 04:15:00 14.1 C 91 % 12.65 C
2645 10-09-2016 04:20:00 14.1 C 91 % 12.65 C
2646 10-09-2016 04:25:00 14.1 C 91 % 12.65 C
2647 10-09-2016 04:30:00 14 C 91 % 12.56 C
2648 10-09-2016 04:35:00 14 C 91 % 12.56 C
2649 10-09-2016 04:40:00 14 C 91 % 12.56 C
2650 10-09-2016 04:45:00 14 C 92 % 12.72 C
Sensor: Nr:Datum:Temp:Feuchte:Taupunkt:
Aussen-T/F 2651 10-09-2016 04:50:00 13.9 C 92 % 12.62 C
2652 10-09-2016 04:55:00 13.9 C 91 % 12.46 C
2653 10-09-2016 05:00:00 13.8 C 92 % 12.52 C
2654 10-09-2016 05:05:00 13.8 C 92 % 12.52 C
2655 10-09-2016 05:10:00 13.8 C 92 % 12.52 C
2656 10-09-2016 05:15:00 13.7 C 92 % 12.42 C
2657 10-09-2016 05:20:00 13.7 C 92 % 12.42 C
2658 10-09-2016 05:25:00 13.7 C 92 % 12.42 C
2659 10-09-2016 05:30:00 13.7 C 92 % 12.42 C
2660 10-09-2016 05:35:00 13.7 C 92 % 12.42 C
2661 10-09-2016 05:40:00 13.6 C 92 % 12.33 C
2662 10-09-2016 05:45:00 13.6 C 92 % 12.33 C
2663 10-09-2016 05:50:00 13.6 C 92 % 12.33 C
2664 10-09-2016 05:55:00 13.5 C 92 % 12.23 C
2665 10-09-2016 06:00:00 13.4 C 92 % 12.13 C
2666 10-09-2016 06:05:00 13.4 C 92 % 12.13 C
2667 10-09-2016 06:10:00 13.4 C 92 % 12.13 C
2668 10-09-2016 06:15:00 13.4 C 92 % 12.13 C
2669 10-09-2016 06:20:00 13.4 C 93 % 12.29 C
2670 10-09-2016 06:25:00 13.4 C 93 % 12.29 C
2671 10-09-2016 06:30:00 13.4 C 93 % 12.29 C
2672 10-09-2016 06:35:00 13.4 C 93 % 12.29 C
2673 10-09-2016 06:40:00 13.3 C 93 % 12.19 C
2674 10-09-2016 06:45:00 13.3 C 93 % 12.19 C
2675 10-09-2016 06:50:00 13.3 C 93 % 12.19 C
Sensor: Nr:Datum:Temp:Feuchte:Taupunkt:
Aussen-T/F 2676 10-09-2016 06:55:00 13.3 C 93 % 12.19 C
2677 10-09-2016 07:00:00 13.2 C 93 % 12.09 C
2678 10-09-2016 07:05:00 13.2 C 93 % 12.09 C
2679 10-09-2016 07:10:00 13.2 C 93 % 12.09 C
2680 10-09-2016 07:15:00 13.2 C 93 % 12.09 C
2681 10-09-2016 07:20:00 13.3 C 93 % 12.19 C
2682 10-09-2016 07:25:00 13.3 C 94 % 12.36 C
2683 10-09-2016 07:30:00 13.3 C 94 % 12.36 C
2684 10-09-2016 07:35:00 13.3 C 93 % 12.19 C
2685 10-09-2016 07:40:00 13.3 C 93 % 12.19 C
2686 10-09-2016 07:45:00 13.4 C 94 % 12.45 C
2687 10-09-2016 07:50:00 13.4 C 94 % 12.45 C
2688 10-09-2016 07:55:00 13.5 C 94 % 12.55 C
2689 10-09-2016 08:00:00 13.6 C 94 % 12.65 C
2690 10-09-2016 08:05:00 13.7 C 94 % 12.75 C
2691 10-09-2016 08:10:00 13.7 C 94 % 12.75 C
2692 10-09-2016 08:15:00 13.7 C 94 % 12.75 C
2693 10-09-2016 08:20:00 13.8 C 94 % 12.85 C
2694 10-09-2016 08:25:00 13.8 C 94 % 12.85 C
2695 10-09-2016 08:30:00 13.8 C 94 % 12.85 C
2696 10-09-2016 08:35:00 13.9 C 94 % 12.95 C
2697 10-09-2016 08:40:00 14 C 94 % 13.05 C
2698 10-09-2016 08:45:00 14.1 C 94 % 13.15 C
2699 10-09-2016 08:50:00 14.2 C 94 % 13.25 C
2700 10-09-2016 08:55:00 14.2 C 94 % 13.25 C
Sensor: Nr:Datum:Temp:Feuchte:Taupunkt:
Aussen-T/F 2701 10-09-2016 09:00:00 14.3 C 94 % 13.35 C
2702 10-09-2016 09:05:00 14.3 C 94 % 13.35 C
2703 10-09-2016 09:10:00 14.4 C 94 % 13.45 C
2704 10-09-2016 09:15:00 14.6 C 94 % 13.65 C
2705 10-09-2016 09:20:00 14.6 C 94 % 13.65 C
2706 10-09-2016 09:25:00 14.7 C 94 % 13.74 C
2707 10-09-2016 09:30:00 14.8 C 94 % 13.84 C
2708 10-09-2016 09:35:00 14.9 C 94 % 13.94 C
2709 10-09-2016 09:40:00 15 C 94 % 14.04 C
2710 10-09-2016 09:45:00 15.1 C 94 % 14.14 C
2711 10-09-2016 09:50:00 15.2 C 94 % 14.24 C
2712 10-09-2016 09:55:00 15.3 C 93 % 14.18 C
2713 10-09-2016 10:00:00 15.3 C 93 % 14.18 C
2714 10-09-2016 10:05:00 15.5 C 93 % 14.37 C
2715 10-09-2016 10:10:00 15.6 C 93 % 14.47 C
2716 10-09-2016 10:15:00 15.7 C 93 % 14.57 C
2717 10-09-2016 10:20:00 15.9 C 93 % 14.77 C
2718 10-09-2016 10:25:00 16 C 93 % 14.87 C
2719 10-09-2016 10:30:00 16.1 C 92 % 14.8 C
2720 10-09-2016 10:35:00 16.2 C 92 % 14.9 C
2721 10-09-2016 10:40:00 16.3 C 92 % 15 C
2722 10-09-2016 10:45:00 16.6 C 91 % 15.13 C
2723 10-09-2016 10:50:00 16.7 C 90 % 15.05 C
2724 10-09-2016 10:55:00 16.9 C 90 % 15.25 C
2725 10-09-2016 11:00:00 17.2 C 91 % 15.72 C
Sensor: Nr:Datum:Temp:Feuchte:Taupunkt:
Aussen-T/F 2726 10-09-2016 11:05:00 17.3 C 89 % 15.47 C
2727 10-09-2016 11:10:00 17.5 C 89 % 15.67 C
2728 10-09-2016 11:15:00 17.7 C 89 % 15.86 C
2729 10-09-2016 11:20:00 17.9 C 88 % 15.88 C
2730 10-09-2016 11:25:00 18.1 C 88 % 16.08 C
2731 10-09-2016 11:30:00 18.3 C 88 % 16.28 C
2732 10-09-2016 11:35:00 18.5 C 88 % 16.48 C
2733 10-09-2016 11:40:00 18.7 C 88 % 16.67 C
2734 10-09-2016 11:45:00 19.1 C 87 % 16.89 C
2735 10-09-2016 11:50:00 19.3 C 86 % 16.9 C
2736 10-09-2016 11:55:00 19.6 C 86 % 17.19 C
2737 10-09-2016 12:00:00 19.8 C 85 % 17.21 C
2738 10-09-2016 12:05:00 20.1 C 85 % 17.5 C
2739 10-09-2016 12:10:00 20.3 C 84 % 17.51 C
2740 10-09-2016 12:15:00 20.7 C 83 % 17.71 C
2741 10-09-2016 12:20:00 20.8 C 82 % 17.61 C
2742 10-09-2016 12:25:00 21 C 82 % 17.81 C
2743 10-09-2016 12:30:00 21.2 C 82 % 18 C
2744 10-09-2016 12:35:00 21.4 C 81 % 18 C
2745 10-09-2016 12:40:00 21.6 C 80 % 18 C
2746 10-09-2016 12:45:00 21.9 C 80 % 18.29 C
2747 10-09-2016 12:50:00 22.2 C 78 % 18.18 C
2748 10-09-2016 12:55:00 22.4 C 77 % 18.17 C
2749 10-09-2016 13:00:00 22.7 C 78 % 18.67 C
2750 10-09-2016 13:05:00 22.8 C 75 % 18.14 C
Sensor: Nr:Datum:Temp:Feuchte:Taupunkt:
Aussen-T/F 2751 10-09-2016 13:10:00 23 C 74 % 18.12 C
2752 10-09-2016 13:15:00 23.3 C 74 % 18.4 C
2753 10-09-2016 13:20:00 23.5 C 73 % 18.38 C
2754 10-09-2016 13:25:00 23.7 C 71 % 18.13 C
2755 10-09-2016 13:30:00 24 C 70 % 18.19 C
2756 10-09-2016 13:35:00 24.2 C 70 % 18.38 C
2757 10-09-2016 13:40:00 24.3 C 74 % 19.37 C
2758 10-09-2016 13:45:00 24.4 C 74 % 19.46 C
2759 10-09-2016 13:50:00 24.3 C 75 % 19.58 C
2760 10-09-2016 13:55:00 24.2 C 76 % 19.7 C
2761 10-09-2016 14:00:00 24.1 C 76 % 19.6 C
2762 10-09-2016 14:05:00 24.1 C 75 % 19.39 C
2763 10-09-2016 14:10:00 24.1 C 75 % 19.39 C
2764 10-09-2016 14:15:00 24.2 C 76 % 19.7 C
2765 10-09-2016 14:20:00 24.2 C 76 % 19.7 C
2766 10-09-2016 14:25:00 24.2 C 76 % 19.7 C
2767 10-09-2016 14:30:00 24.2 C 76 % 19.7 C
2768 10-09-2016 14:35:00 24.2 C 77 % 19.91 C
2769 10-09-2016 14:40:00 24.2 C 76 % 19.7 C
2770 10-09-2016 14:45:00 24.2 C 76 % 19.7 C
2771 10-09-2016 14:50:00 24.4 C 69 % 18.34 C
2772 10-09-2016 14:55:00 24.8 C 67 % 18.25 C
2773 10-09-2016 15:00:00 25.2 C 69 % 19.11 C
2774 10-09-2016 15:05:00 25.6 C 65 % 18.53 C
2775 10-09-2016 15:10:00 26 C 63 % 18.41 C
Sensor: Nr:Datum:Temp:Feuchte:Taupunkt:
Aussen-T/F 2776 10-09-2016 15:15:00 26.2 C 62 % 18.34 C
2777 10-09-2016 15:20:00 26.4 C 61 % 18.27 C
2778 10-09-2016 15:25:00 26.6 C 67 % 19.97 C
2779 10-09-2016 15:30:00 26.5 C 64 % 19.13 C
2780 10-09-2016 15:35:00 26.6 C 65 % 19.48 C
2781 10-09-2016 15:40:00 26.7 C 67 % 20.06 C
2782 10-09-2016 15:45:00 26.7 C 67 % 20.06 C
2783 10-09-2016 15:50:00 26.7 C 60 % 18.29 C
2784 10-09-2016 15:55:00 26.8 C 66 % 19.91 C
2785 10-09-2016 16:00:00 26.6 C 67 % 19.97 C
2786 10-09-2016 16:05:00 26.4 C 69 % 20.25 C
2787 10-09-2016 16:10:00 26.1 C 70 % 20.2 C
2788 10-09-2016 16:15:00 25.7 C 71 % 20.04 C
2789 10-09-2016 16:20:00 25.5 C 72 % 20.08 C
2790 10-09-2016 16:25:00 25.3 C 72 % 19.89 C
2791 10-09-2016 16:30:00 25.2 C 71 % 19.56 C
2792 10-09-2016 16:35:00 25.1 C 72 % 19.69 C
2793 10-09-2016 16:40:00 25 C 73 % 19.82 C
2794 10-09-2016 16:45:00 25.2 C 73 % 20.01 C
2795 10-09-2016 16:50:00 25.6 C 74 % 20.62 C
2796 10-09-2016 16:55:00 25.9 C 72 % 20.46 C
2797 10-09-2016 17:00:00 26.4 C 63 % 18.79 C
2798 10-09-2016 17:05:00 27.4 C 63 % 19.73 C
2799 10-09-2016 17:10:00 28.1 C 61 % 19.87 C
2800 10-09-2016 17:15:00 28.3 C 63 % 20.58 C
Sensor: Nr:Datum:Temp:Feuchte:Taupunkt:
Aussen-T/F 2801 10-09-2016 17:20:00 28.3 C 56 % 18.68 C
2802 10-09-2016 17:25:00 28.6 C 60 % 20.07 C
2803 10-09-2016 17:30:00 28.7 C 59 % 19.89 C
2804 10-09-2016 17:35:00 28.7 C 62 % 20.69 C
2805 10-09-2016 17:40:00 28.6 C 57 % 19.24 C
2806 10-09-2016 17:45:00 28.5 C 61 % 20.24 C
2807 10-09-2016 17:50:00 28.3 C 60 % 19.79 C
2808 10-09-2016 17:55:00 28.1 C 61 % 19.87 C
2809 10-09-2016 18:00:00 27.9 C 60 % 19.41 C
2810 10-09-2016 18:05:00 27.8 C 60 % 19.32 C
2811 10-09-2016 18:10:00 27.5 C 61 % 19.3 C
2812 10-09-2016 18:15:00 26.9 C 63 % 19.26 C
2813 10-09-2016 18:20:00 26.6 C 64 % 19.23 C
2814 10-09-2016 18:25:00 26.4 C 65 % 19.29 C
2815 10-09-2016 18:30:00 26.4 C 65 % 19.29 C
2816 10-09-2016 18:35:00 26.3 C 64 % 18.94 C
2817 10-09-2016 18:40:00 26.3 C 65 % 19.19 C
2818 10-09-2016 18:45:00 26.2 C 66 % 19.34 C
2819 10-09-2016 18:50:00 26.1 C 66 % 19.25 C
2820 10-09-2016 18:55:00 25.8 C 66 % 18.96 C
2821 10-09-2016 19:00:00 25.6 C 66 % 18.77 C
2822 10-09-2016 19:05:00 25.5 C 67 % 18.92 C
2823 10-09-2016 19:10:00 25.4 C 67 % 18.82 C
2824 10-09-2016 19:15:00 25.2 C 68 % 18.87 C
2825 10-09-2016 19:20:00 25 C 68 % 18.68 C
Sensor: Nr:Datum:Temp:Feuchte:Taupunkt:
Aussen-T/F 2826 10-09-2016 19:25:00 24.8 C 68 % 18.49 C
2827 10-09-2016 19:30:00 24.6 C 69 % 18.53 C
2828 10-09-2016 19:35:00 24.3 C 69 % 18.25 C
2829 10-09-2016 19:40:00 24 C 70 % 18.19 C
2830 10-09-2016 19:45:00 23.7 C 70 % 17.9 C
2831 10-09-2016 19:50:00 23.6 C 70 % 17.81 C
2832 10-09-2016 19:55:00 23.3 C 71 % 17.75 C
2833 10-09-2016 20:00:00 23.2 C 71 % 17.65 C
2834 10-09-2016 20:05:00 23.1 C 71 % 17.55 C
2835 10-09-2016 20:10:00 22.9 C 71 % 17.36 C
2836 10-09-2016 20:15:00 22.8 C 71 % 17.27 C
2837 10-09-2016 20:20:00 22.7 C 70 % 16.95 C
2838 10-09-2016 20:25:00 22.6 C 71 % 17.07 C
2839 10-09-2016 20:30:00 22.5 C 72 % 17.2 C
2840 10-09-2016 20:35:00 22.3 C 71 % 16.79 C
2841 10-09-2016 20:40:00 22.2 C 71 % 16.69 C
2842 10-09-2016 20:45:00 22.2 C 72 % 16.91 C
2843 10-09-2016 20:50:00 22.1 C 72 % 16.82 C
2844 10-09-2016 20:55:00 21.9 C 72 % 16.62 C
2845 10-09-2016 21:00:00 21.8 C 72 % 16.53 C
2846 10-09-2016 21:05:00 21.7 C 73 % 16.65 C
2847 10-09-2016 21:10:00 21.6 C 73 % 16.55 C
2848 10-09-2016 21:15:00 21.5 C 73 % 16.46 C
2849 10-09-2016 21:20:00 21.4 C 73 % 16.36 C
2850 10-09-2016 21:25:00 21.4 C 74 % 16.57 C
Sensor: Nr:Datum:Temp:Feuchte:Taupunkt:
Aussen-T/F 2851 10-09-2016 21:30:00 21.3 C 74 % 16.48 C
2852 10-09-2016 21:35:00 21.2 C 74 % 16.38 C
2853 10-09-2016 21:40:00 21.1 C 73 % 16.07 C
2854 10-09-2016 21:45:00 21 C 74 % 16.19 C
2855 10-09-2016 21:50:00 20.9 C 73 % 15.88 C
2856 10-09-2016 21:55:00 20.8 C 73 % 15.78 C
2857 10-09-2016 22:00:00 20.8 C 74 % 16 C
2858 10-09-2016 22:05:00 20.7 C 74 % 15.9 C
2859 10-09-2016 22:10:00 20.6 C 73 % 15.59 C
2860 10-09-2016 22:15:00 20.5 C 72 % 15.28 C
2861 10-09-2016 22:20:00 20.4 C 73 % 15.4 C
2862 10-09-2016 22:25:00 20.4 C 73 % 15.4 C
2863 10-09-2016 22:30:00 20.3 C 73 % 15.3 C
2864 10-09-2016 22:35:00 20.3 C 74 % 15.51 C
2865 10-09-2016 22:40:00 20.2 C 73 % 15.21 C
2866 10-09-2016 22:45:00 20.1 C 74 % 15.32 C
2867 10-09-2016 22:50:00 20 C 74 % 15.23 C
2868 10-09-2016 22:55:00 19.8 C 75 % 15.24 C
2869 10-09-2016 23:00:00 19.5 C 76 % 15.16 C
2870 10-09-2016 23:05:00 19.2 C 77 % 15.07 C
2871 10-09-2016 23:10:00 18.9 C 78 % 14.98 C
2872 10-09-2016 23:15:00 18.7 C 78 % 14.79 C
2873 10-09-2016 23:20:00 18.5 C 79 % 14.79 C
2874 10-09-2016 23:25:00 18.3 C 79 % 14.6 C
2875 10-09-2016 23:30:00 18.2 C 80 % 14.69 C
Sensor: Nr:Datum:Temp:Feuchte:Taupunkt:
Aussen-T/F 2876 10-09-2016 23:35:00 18.1 C 80 % 14.6 C
2877 10-09-2016 23:40:00 18.1 C 80 % 14.6 C
2878 10-09-2016 23:45:00 18.1 C 80 % 14.6 C
2879 10-09-2016 23:50:00 18 C 80 % 14.5 C
2880 10-09-2016 23:55:00 17.9 C 81 % 14.59 C
2881 11-09-2016 00:00:00 17.9 C 81 % 14.59 C
2882 11-09-2016 00:05:00 17.8 C 81 % 14.5 C
2883 11-09-2016 00:10:00 17.7 C 81 % 14.4 C
2884 11-09-2016 00:15:00 17.6 C 81 % 14.3 C
2885 11-09-2016 00:20:00 17.5 C 82 % 14.39 C
2886 11-09-2016 00:25:00 17.4 C 82 % 14.3 C
2887 11-09-2016 00:30:00 17.3 C 83 % 14.39 C
2888 11-09-2016 00:35:00 17.2 C 83 % 14.29 C
2889 11-09-2016 00:40:00 17.1 C 83 % 14.19 C
2890 11-09-2016 00:45:00 17 C 84 % 14.28 C
2891 11-09-2016 00:50:00 16.9 C 84 % 14.18 C
2892 11-09-2016 00:55:00 16.8 C 84 % 14.08 C
2893 11-09-2016 01:00:00 16.7 C 85 % 14.17 C
2894 11-09-2016 01:05:00 16.6 C 84 % 13.89 C
2895 11-09-2016 01:10:00 16.5 C 85 % 13.97 C
2896 11-09-2016 01:15:00 16.4 C 85 % 13.87 C
2897 11-09-2016 01:20:00 16.3 C 86 % 13.95 C
2898 11-09-2016 01:25:00 16.3 C 86 % 13.95 C
2899 11-09-2016 01:30:00 16.2 C 86 % 13.86 C
2900 11-09-2016 01:35:00 16.1 C 86 % 13.76 C
Sensor: Nr:Datum:Temp:Feuchte:Taupunkt:
Aussen-T/F 2901 11-09-2016 01:40:00 16 C 86 % 13.66 C
2902 11-09-2016 01:45:00 15.9 C 87 % 13.74 C
2903 11-09-2016 01:50:00 15.8 C 87 % 13.64 C
2904 11-09-2016 01:55:00 15.8 C 87 % 13.64 C
2905 11-09-2016 02:00:00 15.7 C 87 % 13.54 C
2906 11-09-2016 02:05:00 15.6 C 87 % 13.45 C
2907 11-09-2016 02:10:00 15.4 C 87 % 13.25 C
2908 11-09-2016 02:15:00 15.4 C 87 % 13.25 C
2909 11-09-2016 02:20:00 15.4 C 88 % 13.42 C
2910 11-09-2016 02:25:00 15.3 C 87 % 13.15 C
2911 11-09-2016 02:30:00 15.2 C 88 % 13.23 C
2912 11-09-2016 02:35:00 15.2 C 88 % 13.23 C
2913 11-09-2016 02:40:00 15.1 C 88 % 13.13 C
2914 11-09-2016 02:45:00 15.1 C 89 % 13.3 C
2915 11-09-2016 02:50:00 15.1 C 89 % 13.3 C
2916 11-09-2016 02:55:00 15.1 C 89 % 13.3 C
2917 11-09-2016 03:00:00 15 C 90 % 13.37 C
2918 11-09-2016 03:05:00 14.9 C 90 % 13.28 C
2919 11-09-2016 03:10:00 14.9 C 90 % 13.28 C
2920 11-09-2016 03:15:00 14.9 C 90 % 13.28 C
2921 11-09-2016 03:20:00 14.8 C 90 % 13.18 C
2922 11-09-2016 03:25:00 14.8 C 90 % 13.18 C
2923 11-09-2016 03:30:00 14.7 C 91 % 13.25 C
2924 11-09-2016 03:35:00 14.7 C 90 % 13.08 C
2925 11-09-2016 03:40:00 14.6 C 91 % 13.15 C
Sensor: Nr:Datum:Temp:Feuchte:Taupunkt:
Aussen-T/F 2926 11-09-2016 03:45:00 14.5 C 90 % 12.88 C
2927 11-09-2016 03:50:00 14.4 C 90 % 12.78 C
2928 11-09-2016 03:55:00 14.3 C 91 % 12.85 C
2929 11-09-2016 04:00:00 14.3 C 91 % 12.85 C
2930 11-09-2016 04:05:00 14.3 C 91 % 12.85 C
2931 11-09-2016 04:10:00 14.2 C 91 % 12.75 C
2932 11-09-2016 04:15:00 14.1 C 91 % 12.65 C
2933 11-09-2016 04:20:00 14.1 C 91 % 12.65 C
2934 11-09-2016 04:25:00 14.1 C 91 % 12.65 C
2935 11-09-2016 04:30:00 14 C 91 % 12.56 C
2936 11-09-2016 04:35:00 13.9 C 91 % 12.46 C
2937 11-09-2016 04:40:00 13.8 C 91 % 12.36 C
2938 11-09-2016 04:45:00 13.8 C 91 % 12.36 C
2939 11-09-2016 04:50:00 13.8 C 92 % 12.52 C
2940 11-09-2016 04:55:00 13.8 C 92 % 12.52 C
2941 11-09-2016 05:00:00 13.8 C 91 % 12.36 C
2942 11-09-2016 05:05:00 13.7 C 92 % 12.42 C
2943 11-09-2016 05:10:00 13.6 C 91 % 12.16 C
2944 11-09-2016 05:15:00 13.6 C 92 % 12.33 C
2945 11-09-2016 05:20:00 13.6 C 92 % 12.33 C
2946 11-09-2016 05:25:00 13.6 C 92 % 12.33 C
2947 11-09-2016 05:30:00 13.5 C 92 % 12.23 C
2948 11-09-2016 05:35:00 13.4 C 92 % 12.13 C
2949 11-09-2016 05:40:00 13.4 C 92 % 12.13 C
2950 11-09-2016 05:45:00 13.3 C 92 % 12.03 C
Sensor: Nr:Datum:Temp:Feuchte:Taupunkt:
Aussen-T/F 2951 11-09-2016 05:50:00 13.3 C 92 % 12.03 C
2952 11-09-2016 05:55:00 13.2 C 92 % 11.93 C
2953 11-09-2016 06:00:00 13.2 C 92 % 11.93 C
2954 11-09-2016 06:05:00 13.1 C 92 % 11.83 C
2955 11-09-2016 06:10:00 13 C 92 % 11.73 C
2956 11-09-2016 06:15:00 12.9 C 92 % 11.63 C
2957 11-09-2016 06:20:00 12.9 C 92 % 11.63 C
2958 11-09-2016 06:25:00 12.9 C 93 % 11.8 C
2959 11-09-2016 06:30:00 12.9 C 93 % 11.8 C
2960 11-09-2016 06:35:00 12.8 C 93 % 11.7 C
2961 11-09-2016 06:40:00 12.8 C 93 % 11.7 C
2962 11-09-2016 06:45:00 12.8 C 93 % 11.7 C
2963 11-09-2016 06:50:00 12.8 C 93 % 11.7 C
2964 11-09-2016 06:55:00 12.7 C 93 % 11.6 C
2965 11-09-2016 07:00:00 12.7 C 93 % 11.6 C
2966 11-09-2016 07:05:00 12.8 C 93 % 11.7 C
2967 11-09-2016 07:10:00 12.8 C 93 % 11.7 C
2968 11-09-2016 07:15:00 12.9 C 93 % 11.8 C
2969 11-09-2016 07:20:00 12.9 C 94 % 11.96 C
2970 11-09-2016 07:25:00 13.1 C 94 % 12.16 C
2971 11-09-2016 07:30:00 13.1 C 94 % 12.16 C
2972 11-09-2016 07:35:00 13.2 C 94 % 12.26 C
2973 11-09-2016 07:40:00 13.3 C 94 % 12.36 C
2974 11-09-2016 07:45:00 13.3 C 94 % 12.36 C
2975 11-09-2016 07:50:00 13.3 C 94 % 12.36 C
Sensor: Nr:Datum:Temp:Feuchte:Taupunkt:
Aussen-T/F 2976 11-09-2016 07:55:00 13.4 C 94 % 12.45 C
2977 11-09-2016 08:00:00 13.4 C 94 % 12.45 C
2978 11-09-2016 08:05:00 13.6 C 94 % 12.65 C
2979 11-09-2016 08:10:00 13.6 C 94 % 12.65 C
2980 11-09-2016 08:15:00 13.7 C 94 % 12.75 C
2981 11-09-2016 08:20:00 13.8 C 94 % 12.85 C
2982 11-09-2016 08:25:00 13.9 C 94 % 12.95 C
2983 11-09-2016 08:30:00 14 C 94 % 13.05 C
2984 11-09-2016 08:35:00 14.1 C 94 % 13.15 C
2985 11-09-2016 08:40:00 14.2 C 94 % 13.25 C
2986 11-09-2016 08:45:00 14.3 C 94 % 13.35 C
2987 11-09-2016 08:50:00 14.5 C 94 % 13.55 C
2988 11-09-2016 08:55:00 14.6 C 94 % 13.65 C
2989 11-09-2016 09:00:00 14.8 C 94 % 13.84 C
2990 11-09-2016 09:05:00 14.9 C 94 % 13.94 C
2991 11-09-2016 09:10:00 15.2 C 94 % 14.24 C
2992 11-09-2016 09:15:00 15.3 C 94 % 14.34 C
2993 11-09-2016 09:20:00 15.5 C 94 % 14.54 C
2994 11-09-2016 09:25:00 15.6 C 93 % 14.47 C
2995 11-09-2016 09:30:00 15.8 C 92 % 14.5 C
2996 11-09-2016 09:35:00 15.9 C 91 % 14.43 C
2997 11-09-2016 09:40:00 16.2 C 91 % 14.73 C
2998 11-09-2016 09:45:00 16.4 C 88 % 14.41 C
2999 11-09-2016 09:50:00 16.7 C 88 % 14.7 C
3000 11-09-2016 09:55:00 16.9 C 86 % 14.54 C
Sensor: Nr:Datum:Temp:Feuchte:Taupunkt:
Aussen-T/F 3001 11-09-2016 10:00:00 17.2 C 86 % 14.84 C
3002 11-09-2016 10:05:00 17.5 C 87 % 15.31 C
3003 11-09-2016 10:10:00 17.7 C 86 % 15.33 C
3004 11-09-2016 10:15:00 17.8 C 86 % 15.43 C
3005 11-09-2016 10:20:00 18 C 85 % 15.44 C
3006 11-09-2016 10:25:00 18.1 C 84 % 15.35 C
3007 11-09-2016 10:30:00 18.2 C 84 % 15.45 C
3008 11-09-2016 10:35:00 18.3 C 85 % 15.74 C
3009 11-09-2016 10:40:00 18.3 C 84 % 15.55 C
3010 11-09-2016 10:45:00 18.5 C 86 % 16.11 C
3011 11-09-2016 10:50:00 18.7 C 86 % 16.31 C
3012 11-09-2016 10:55:00 18.7 C 85 % 16.13 C
3013 11-09-2016 11:00:00 18.8 C 83 % 15.85 C
3014 11-09-2016 11:05:00 18.9 C 83 % 15.95 C
3015 11-09-2016 11:10:00 19.2 C 84 % 16.43 C
3016 11-09-2016 11:15:00 19.3 C 85 % 16.72 C
3017 11-09-2016 11:20:00 19.6 C 84 % 16.82 C
3018 11-09-2016 11:25:00 19.7 C 84 % 16.92 C
3019 11-09-2016 11:30:00 19.9 C 84 % 17.12 C
3020 11-09-2016 11:35:00 20.1 C 83 % 17.12 C
3021 11-09-2016 11:40:00 20.2 C 76 % 15.83 C
3022 11-09-2016 11:45:00 20.4 C 75 % 15.82 C
3023 11-09-2016 11:50:00 20.7 C 74 % 15.9 C
3024 11-09-2016 11:55:00 20.8 C 74 % 16 C
3025 11-09-2016 12:00:00 20.9 C 71 % 15.45 C
Sensor: Nr:Datum:Temp:Feuchte:Taupunkt:
Aussen-T/F 3026 11-09-2016 12:05:00 21.1 C 73 % 16.07 C
3027 11-09-2016 12:10:00 21.3 C 73 % 16.26 C
3028 11-09-2016 12:15:00 21.5 C 71 % 16.02 C
3029 11-09-2016 12:20:00 21.7 C 73 % 16.65 C
3030 11-09-2016 12:25:00 21.8 C 70 % 16.09 C
3031 11-09-2016 12:30:00 22 C 69 % 16.05 C
3032 11-09-2016 12:35:00 22.2 C 68 % 16.01 C
3033 11-09-2016 12:40:00 22.3 C 70 % 16.56 C
3034 11-09-2016 12:45:00 22.4 C 69 % 16.43 C
3035 11-09-2016 12:50:00 22.6 C 67 % 16.16 C
3036 11-09-2016 12:55:00 22.8 C 66 % 16.12 C
3037 11-09-2016 13:00:00 22.9 C 66 % 16.21 C
3038 11-09-2016 13:05:00 23.1 C 65 % 16.16 C
3039 11-09-2016 13:10:00 23.2 C 65 % 16.26 C
3040 11-09-2016 13:15:00 23.4 C 63 % 15.96 C
3041 11-09-2016 13:20:00 23.5 C 64 % 16.3 C
3042 11-09-2016 13:25:00 23.7 C 62 % 15.99 C
3043 11-09-2016 13:30:00 23.8 C 60 % 15.57 C
3044 11-09-2016 13:35:00 23.9 C 60 % 15.66 C
3045 11-09-2016 13:40:00 24.1 C 61 % 16.11 C
3046 11-09-2016 13:45:00 24.1 C 59 % 15.59 C
3047 11-09-2016 13:50:00 24.2 C 59 % 15.68 C
3048 11-09-2016 13:55:00 24.2 C 59 % 15.68 C
3049 11-09-2016 14:00:00 24.3 C 57 % 15.24 C
3050 11-09-2016 14:05:00 24.4 C 55 % 14.78 C
Sensor: Nr:Datum:Temp:Feuchte:Taupunkt:
Aussen-T/F 3051 11-09-2016 14:10:00 24.5 C 56 % 15.15 C
3052 11-09-2016 14:15:00 24.6 C 58 % 15.79 C
3053 11-09-2016 14:20:00 24.7 C 64 % 17.43 C
3054 11-09-2016 14:25:00 24.7 C 60 % 16.41 C
3055 11-09-2016 14:30:00 24.8 C 57 % 15.7 C
3056 11-09-2016 14:35:00 24.8 C 58 % 15.98 C
3057 11-09-2016 14:40:00 24.9 C 52 % 14.37 C
3058 11-09-2016 14:45:00 25.1 C 49 % 13.64 C
3059 11-09-2016 14:50:00 25.2 C 53 % 14.94 C
3060 11-09-2016 14:55:00 25.3 C 49 % 13.82 C
3061 11-09-2016 15:00:00 25.4 C 49 % 13.91 C
3062 11-09-2016 15:05:00 25.5 C 51 % 14.62 C
3063 11-09-2016 15:10:00 25.6 C 54 % 15.6 C
3064 11-09-2016 15:15:00 25.5 C 54 % 15.51 C
3065 11-09-2016 15:20:00 25.4 C 56 % 15.99 C
3066 11-09-2016 15:25:00 25.4 C 49 % 13.91 C
3067 11-09-2016 15:30:00 25.7 C 49 % 14.19 C
3068 11-09-2016 15:35:00 25.9 C 49 % 14.37 C
3069 11-09-2016 15:40:00 26.2 C 45 % 13.33 C
3070 11-09-2016 15:45:00 26.3 C 44 % 13.08 C
3071 11-09-2016 15:50:00 26.5 C 44 % 13.26 C
3072 11-09-2016 15:55:00 26.6 C 43 % 13 C
3073 11-09-2016 16:00:00 26.7 C 44 % 13.44 C
3074 11-09-2016 16:05:00 26.7 C 43 % 13.09 C
3075 11-09-2016 16:10:00 26.6 C 43 % 13 C
Sensor: Nr:Datum:Temp:Feuchte:Taupunkt:
Aussen-T/F 3076 11-09-2016 16:15:00 26.6 C 43 % 13 C
3077 11-09-2016 16:20:00 26.6 C 43 % 13 C
3078 11-09-2016 16:25:00 26.4 C 44 % 13.17 C
3079 11-09-2016 16:30:00 26.4 C 44 % 13.17 C
3080 11-09-2016 16:35:00 26.5 C 46 % 13.94 C
3081 11-09-2016 16:40:00 26.5 C 51 % 15.54 C
3082 11-09-2016 16:45:00 26.5 C 48 % 14.6 C
3083 11-09-2016 16:50:00 26.6 C 47 % 14.36 C
3084 11-09-2016 16:55:00 26.8 C 50 % 15.51 C
3085 11-09-2016 17:00:00 26.9 C 50 % 15.6 C
3086 11-09-2016 17:05:00 27 C 50 % 15.69 C
3087 11-09-2016 17:10:00 27.1 C 51 % 16.09 C
3088 11-09-2016 17:15:00 27.3 C 53 % 16.88 C
3089 11-09-2016 17:20:00 27.7 C 44 % 14.34 C
3090 11-09-2016 17:25:00 28.1 C 52 % 17.32 C
3091 11-09-2016 17:30:00 28.3 C 49 % 16.56 C
3092 11-09-2016 17:35:00 28.6 C 43 % 14.8 C
3093 11-09-2016 17:40:00 28.8 C 45 % 15.68 C
3094 11-09-2016 17:45:00 28.7 C 49 % 16.93 C
3095 11-09-2016 17:50:00 28.1 C 51 % 17.01 C
3096 11-09-2016 17:55:00 27.4 C 50 % 16.06 C
3097 11-09-2016 18:00:00 26.8 C 53 % 16.42 C
3098 11-09-2016 18:05:00 26.2 C 57 % 17.01 C
3099 11-09-2016 18:10:00 25.7 C 57 % 16.54 C
3100 11-09-2016 18:15:00 25.2 C 58 % 16.35 C
Sensor: Nr:Datum:Temp:Feuchte:Taupunkt:
Aussen-T/F 3101 11-09-2016 18:20:00 24.9 C 60 % 16.6 C
3102 11-09-2016 18:25:00 24.6 C 61 % 16.58 C
3103 11-09-2016 18:30:00 24.2 C 61 % 16.2 C
3104 11-09-2016 18:35:00 23.9 C 62 % 16.18 C
3105 11-09-2016 18:40:00 23.7 C 62 % 15.99 C
3106 11-09-2016 18:45:00 23.4 C 63 % 15.96 C
3107 11-09-2016 18:50:00 23.2 C 64 % 16.01 C
3108 11-09-2016 18:55:00 22.9 C 64 % 15.73 C
3109 11-09-2016 19:00:00 22.8 C 65 % 15.88 C
3110 11-09-2016 19:05:00 22.7 C 64 % 15.54 C
3111 11-09-2016 19:10:00 22.8 C 64 % 15.64 C
3112 11-09-2016 19:15:00 22.9 C 63 % 15.48 C
3113 11-09-2016 19:20:00 22.8 C 64 % 15.64 C
3114 11-09-2016 19:25:00 22.7 C 66 % 16.02 C
3115 11-09-2016 19:30:00 22.5 C 66 % 15.83 C
3116 11-09-2016 19:35:00 22.3 C 66 % 15.64 C
3117 11-09-2016 19:40:00 21.9 C 67 % 15.5 C
3118 11-09-2016 19:45:00 21.7 C 67 % 15.31 C
3119 11-09-2016 19:50:00 21.3 C 68 % 15.16 C
3120 11-09-2016 19:55:00 21.1 C 67 % 14.74 C
3121 11-09-2016 20:00:00 21 C 67 % 14.64 C
3122 11-09-2016 20:05:00 20.8 C 69 % 14.91 C
3123 11-09-2016 20:10:00 20.6 C 69 % 14.71 C
3124 11-09-2016 20:15:00 20.4 C 69 % 14.52 C
3125 11-09-2016 20:20:00 20.3 C 69 % 14.43 C
Sensor: Nr:Datum:Temp:Feuchte:Taupunkt:
Aussen-T/F 3126 11-09-2016 20:25:00 20.1 C 70 % 14.46 C
3127 11-09-2016 20:30:00 19.9 C 71 % 14.49 C
3128 11-09-2016 20:35:00 19.7 C 72 % 14.51 C
3129 11-09-2016 20:40:00 19.5 C 73 % 14.53 C
3130 11-09-2016 20:45:00 19.3 C 73 % 14.34 C
3131 11-09-2016 20:50:00 19.1 C 75 % 14.57 C
3132 11-09-2016 20:55:00 18.9 C 75 % 14.37 C
3133 11-09-2016 21:00:00 18.7 C 75 % 14.18 C
3134 11-09-2016 21:05:00 18.5 C 75 % 13.99 C
3135 11-09-2016 21:10:00 18.4 C 76 % 14.1 C
3136 11-09-2016 21:15:00 18.3 C 76 % 14 C
3137 11-09-2016 21:20:00 18.2 C 77 % 14.1 C
3138 11-09-2016 21:25:00 18.1 C 77 % 14.01 C
3139 11-09-2016 21:30:00 18 C 77 % 13.91 C
3140 11-09-2016 21:35:00 17.9 C 77 % 13.81 C
3141 11-09-2016 21:40:00 17.8 C 78 % 13.91 C
3142 11-09-2016 21:45:00 17.7 C 78 % 13.82 C
3143 11-09-2016 21:50:00 17.7 C 78 % 13.82 C
3144 11-09-2016 21:55:00 17.6 C 79 % 13.92 C
3145 11-09-2016 22:00:00 17.5 C 79 % 13.82 C
3146 11-09-2016 22:05:00 17.4 C 79 % 13.72 C
3147 11-09-2016 22:10:00 17.3 C 79 % 13.63 C
3148 11-09-2016 22:15:00 17.2 C 80 % 13.72 C
3149 11-09-2016 22:20:00 17.1 C 80 % 13.62 C
3150 11-09-2016 22:25:00 17 C 80 % 13.53 C
Sensor: Nr:Datum:Temp:Feuchte:Taupunkt:
Aussen-T/F 3151 11-09-2016 22:30:00 16.9 C 80 % 13.43 C
3152 11-09-2016 22:35:00 16.8 C 81 % 13.52 C
3153 11-09-2016 22:40:00 16.7 C 81 % 13.43 C
3154 11-09-2016 22:45:00 16.6 C 81 % 13.33 C
3155 11-09-2016 22:50:00 16.4 C 82 % 13.32 C
3156 11-09-2016 22:55:00 16.3 C 82 % 13.22 C
3157 11-09-2016 23:00:00 16.3 C 83 % 13.41 C
3158 11-09-2016 23:05:00 16.1 C 83 % 13.21 C
3159 11-09-2016 23:10:00 16.1 C 84 % 13.4 C
3160 11-09-2016 23:15:00 15.9 C 84 % 13.2 C
3161 11-09-2016 23:20:00 15.9 C 84 % 13.2 C
3162 11-09-2016 23:25:00 15.8 C 84 % 13.1 C
3163 11-09-2016 23:30:00 15.7 C 84 % 13.01 C
3164 11-09-2016 23:35:00 15.7 C 85 % 13.19 C
3165 11-09-2016 23:40:00 15.5 C 85 % 12.99 C
3166 11-09-2016 23:45:00 15.4 C 85 % 12.89 C
3167 11-09-2016 23:50:00 15.4 C 86 % 13.07 C
3168 11-09-2016 23:55:00 15.3 C 86 % 12.97 C
3169 12-09-2016 00:00:00 15.2 C 86 % 12.88 C
3170 12-09-2016 00:05:00 15.2 C 87 % 13.05 C
3171 12-09-2016 00:10:00 15.1 C 87 % 12.95 C
3172 12-09-2016 00:15:00 15 C 87 % 12.86 C
3173 12-09-2016 00:20:00 15 C 87 % 12.86 C
3174 12-09-2016 00:25:00 14.9 C 88 % 12.93 C
3175 12-09-2016 00:30:00 14.9 C 88 % 12.93 C
Sensor: Nr:Datum:Temp:Feuchte:Taupunkt:
Aussen-T/F 3176 12-09-2016 00:35:00 14.8 C 88 % 12.83 C
3177 12-09-2016 00:40:00 14.8 C 88 % 12.83 C
3178 12-09-2016 00:45:00 14.8 C 89 % 13.01 C
3179 12-09-2016 00:50:00 14.8 C 88 % 12.83 C
3180 12-09-2016 00:55:00 14.8 C 88 % 12.83 C
3181 12-09-2016 01:00:00 14.8 C 88 % 12.83 C
3182 12-09-2016 01:05:00 14.7 C 88 % 12.73 C
3183 12-09-2016 01:10:00 14.7 C 88 % 12.73 C
3184 12-09-2016 01:15:00 14.7 C 88 % 12.73 C
3185 12-09-2016 01:20:00 14.6 C 88 % 12.64 C
3186 12-09-2016 01:25:00 14.5 C 89 % 12.71 C
3187 12-09-2016 01:30:00 14.5 C 89 % 12.71 C
3188 12-09-2016 01:35:00 14.4 C 89 % 12.61 C
3189 12-09-2016 01:40:00 14.4 C 89 % 12.61 C
3190 12-09-2016 01:45:00 14.4 C 90 % 12.78 C
3191 12-09-2016 01:50:00 14.4 C 90 % 12.78 C
3192 12-09-2016 01:55:00 14.3 C 90 % 12.68 C
3193 12-09-2016 02:00:00 14.3 C 90 % 12.68 C
3194 12-09-2016 02:05:00 14.2 C 90 % 12.58 C
3195 12-09-2016 02:10:00 14.2 C 90 % 12.58 C
3196 12-09-2016 02:15:00 14.2 C 90 % 12.58 C
3197 12-09-2016 02:20:00 14.2 C 90 % 12.58 C
3198 12-09-2016 02:25:00 14.1 C 90 % 12.49 C
3199 12-09-2016 02:30:00 14.1 C 91 % 12.65 C
3200 12-09-2016 02:35:00 14.1 C 91 % 12.65 C
Sensor: Nr:Datum:Temp:Feuchte:Taupunkt:
Aussen-T/F 3201 12-09-2016 02:40:00 14 C 91 % 12.56 C
3202 12-09-2016 02:45:00 14 C 91 % 12.56 C
3203 12-09-2016 02:50:00 13.9 C 91 % 12.46 C
3204 12-09-2016 02:55:00 13.9 C 91 % 12.46 C
3205 12-09-2016 03:00:00 13.8 C 91 % 12.36 C
3206 12-09-2016 03:05:00 13.8 C 91 % 12.36 C
3207 12-09-2016 03:10:00 13.8 C 92 % 12.52 C
3208 12-09-2016 03:15:00 13.8 C 92 % 12.52 C
3209 12-09-2016 03:20:00 13.8 C 92 % 12.52 C
3210 12-09-2016 03:25:00 13.8 C 92 % 12.52 C
3211 12-09-2016 03:30:00 13.8 C 92 % 12.52 C
3212 12-09-2016 03:35:00 13.8 C 92 % 12.52 C
3213 12-09-2016 03:40:00 13.8 C 92 % 12.52 C
3214 12-09-2016 03:45:00 13.8 C 92 % 12.52 C
3215 12-09-2016 03:50:00 13.8 C 92 % 12.52 C
3216 12-09-2016 03:55:00 13.8 C 92 % 12.52 C
3217 12-09-2016 04:00:00 13.8 C 92 % 12.52 C
3218 12-09-2016 04:05:00 13.8 C 93 % 12.69 C
3219 12-09-2016 04:10:00 13.8 C 93 % 12.69 C
3220 12-09-2016 04:15:00 13.8 C 92 % 12.52 C
3221 12-09-2016 04:20:00 13.8 C 93 % 12.69 C
3222 12-09-2016 04:25:00 13.8 C 93 % 12.69 C
3223 12-09-2016 04:30:00 13.8 C 93 % 12.69 C
3224 12-09-2016 04:35:00 13.7 C 93 % 12.59 C
3225 12-09-2016 04:40:00 13.7 C 92 % 12.42 C
Sensor: Nr:Datum:Temp:Feuchte:Taupunkt:
Aussen-T/F 3226 12-09-2016 04:45:00 13.6 C 93 % 12.49 C
3227 12-09-2016 04:50:00 13.6 C 92 % 12.33 C
3228 12-09-2016 04:55:00 13.5 C 92 % 12.23 C
3229 12-09-2016 05:00:00 13.4 C 92 % 12.13 C
3230 12-09-2016 05:05:00 13.4 C 93 % 12.29 C
3231 12-09-2016 05:10:00 13.4 C 93 % 12.29 C
3232 12-09-2016 05:15:00 13.4 C 93 % 12.29 C
3233 12-09-2016 05:20:00 13.4 C 93 % 12.29 C
3234 12-09-2016 05:25:00 13.4 C 93 % 12.29 C
3235 12-09-2016 05:30:00 13.3 C 93 % 12.19 C
3236 12-09-2016 05:35:00 13.3 C 93 % 12.19 C
3237 12-09-2016 05:40:00 13.3 C 93 % 12.19 C
3238 12-09-2016 05:45:00 13.2 C 93 % 12.09 C
3239 12-09-2016 05:50:00 13.2 C 93 % 12.09 C
3240 12-09-2016 05:55:00 13.2 C 93 % 12.09 C
3241 12-09-2016 06:00:00 13.2 C 93 % 12.09 C
3242 12-09-2016 06:05:00 13.1 C 93 % 11.99 C
3243 12-09-2016 06:10:00 13.1 C 93 % 11.99 C
3244 12-09-2016 06:15:00 13.1 C 94 % 12.16 C
3245 12-09-2016 06:20:00 13 C 94 % 12.06 C
3246 12-09-2016 06:25:00 12.9 C 94 % 11.96 C
3247 12-09-2016 06:30:00 12.9 C 93 % 11.8 C
3248 12-09-2016 06:35:00 12.9 C 94 % 11.96 C
3249 12-09-2016 06:40:00 12.8 C 94 % 11.86 C
3250 12-09-2016 06:45:00 12.8 C 94 % 11.86 C
Sensor: Nr:Datum:Temp:Feuchte:Taupunkt:
Aussen-T/F 3251 12-09-2016 06:50:00 12.9 C 94 % 11.96 C
3252 12-09-2016 06:55:00 12.9 C 94 % 11.96 C
3253 12-09-2016 07:00:00 12.9 C 94 % 11.96 C
3254 12-09-2016 07:05:00 12.9 C 94 % 11.96 C
3255 12-09-2016 07:10:00 12.9 C 94 % 11.96 C
3256 12-09-2016 07:15:00 12.8 C 94 % 11.86 C
3257 12-09-2016 07:20:00 12.8 C 94 % 11.86 C
3258 12-09-2016 07:25:00 12.9 C 94 % 11.96 C
3259 12-09-2016 07:30:00 12.9 C 94 % 11.96 C
3260 12-09-2016 07:35:00 12.8 C 94 % 11.86 C
3261 12-09-2016 07:40:00 12.9 C 94 % 11.96 C
3262 12-09-2016 07:45:00 12.9 C 94 % 11.96 C
3263 12-09-2016 07:50:00 12.9 C 94 % 11.96 C
3264 12-09-2016 07:55:00 13 C 95 % 12.22 C
3265 12-09-2016 08:00:00 13.1 C 95 % 12.32 C
3266 12-09-2016 08:05:00 13.1 C 95 % 12.32 C
3267 12-09-2016 08:10:00 13.2 C 95 % 12.42 C
3268 12-09-2016 08:15:00 13.2 C 95 % 12.42 C
3269 12-09-2016 08:20:00 13.3 C 95 % 12.52 C
3270 12-09-2016 08:25:00 13.3 C 95 % 12.52 C
3271 12-09-2016 08:30:00 13.3 C 95 % 12.52 C
3272 12-09-2016 08:35:00 13.4 C 95 % 12.62 C
3273 12-09-2016 08:40:00 13.4 C 95 % 12.62 C
3274 12-09-2016 08:45:00 13.6 C 95 % 12.81 C
3275 12-09-2016 08:50:00 13.7 C 95 % 12.91 C
Sensor: Nr:Datum:Temp:Feuchte:Taupunkt:
Aussen-T/F 3276 12-09-2016 08:55:00 13.7 C 95 % 12.91 C
3277 12-09-2016 09:00:00 13.8 C 95 % 13.01 C
3278 12-09-2016 09:05:00 13.8 C 95 % 13.01 C
3279 12-09-2016 09:10:00 13.9 C 95 % 13.11 C
3280 12-09-2016 09:15:00 14 C 95 % 13.21 C
3281 12-09-2016 09:20:00 14.1 C 95 % 13.31 C
3282 12-09-2016 09:25:00 14.2 C 95 % 13.41 C
3283 12-09-2016 09:30:00 14.3 C 95 % 13.51 C
3284 12-09-2016 09:35:00 14.4 C 95 % 13.61 C
3285 12-09-2016 09:40:00 14.5 C 95 % 13.71 C
3286 12-09-2016 09:45:00 14.6 C 95 % 13.81 C
3287 12-09-2016 09:50:00 14.7 C 95 % 13.91 C
3288 12-09-2016 09:55:00 14.8 C 95 % 14.01 C
3289 12-09-2016 10:00:00 14.9 C 95 % 14.11 C
3290 12-09-2016 10:05:00 15.1 C 95 % 14.31 C
3291 12-09-2016 10:10:00 15.2 C 95 % 14.4 C
3292 12-09-2016 10:15:00 15.3 C 95 % 14.5 C
3293 12-09-2016 10:20:00 15.4 C 95 % 14.6 C
3294 12-09-2016 10:25:00 15.6 C 95 % 14.8 C
3295 12-09-2016 10:30:00 15.7 C 95 % 14.9 C
3296 12-09-2016 10:35:00 15.8 C 95 % 15 C
3297 12-09-2016 10:40:00 16 C 94 % 15.03 C
3298 12-09-2016 10:45:00 16.2 C 94 % 15.23 C
3299 12-09-2016 10:50:00 16.3 C 94 % 15.33 C
3300 12-09-2016 10:55:00 16.5 C 94 % 15.53 C
Sensor: Nr:Datum:Temp:Feuchte:Taupunkt:
Aussen-T/F 3301 12-09-2016 11:00:00 16.8 C 93 % 15.66 C
3302 12-09-2016 11:05:00 17 C 92 % 15.69 C
3303 12-09-2016 11:10:00 17.3 C 91 % 15.82 C
3304 12-09-2016 11:15:00 17.5 C 89 % 15.67 C
3305 12-09-2016 11:20:00 17.8 C 89 % 15.96 C
3306 12-09-2016 11:25:00 18 C 88 % 15.98 C
3307 12-09-2016 11:30:00 18.3 C 87 % 16.1 C
3308 12-09-2016 11:35:00 18.6 C 87 % 16.39 C
3309 12-09-2016 11:40:00 18.9 C 86 % 16.51 C
3310 12-09-2016 11:45:00 19.1 C 85 % 16.52 C
3311 12-09-2016 11:50:00 19.3 C 85 % 16.72 C
3312 12-09-2016 11:55:00 19.5 C 85 % 16.91 C
3313 12-09-2016 12:00:00 19.7 C 84 % 16.92 C
3314 12-09-2016 12:05:00 19.9 C 84 % 17.12 C
3315 12-09-2016 12:10:00 20.2 C 84 % 17.41 C
3316 12-09-2016 12:15:00 20.4 C 83 % 17.42 C
3317 12-09-2016 12:20:00 20.7 C 82 % 17.52 C
3318 12-09-2016 12:25:00 21 C 83 % 18 C
3319 12-09-2016 12:30:00 21.2 C 83 % 18.2 C
3320 12-09-2016 12:35:00 21.3 C 81 % 17.91 C
3321 12-09-2016 12:40:00 21.6 C 81 % 18.2 C
3322 12-09-2016 12:45:00 21.8 C 80 % 18.2 C
3323 12-09-2016 12:50:00 22.1 C 81 % 18.69 C
3324 12-09-2016 12:55:00 22.2 C 79 % 18.38 C
3325 12-09-2016 13:00:00 22.3 C 81 % 18.88 C
Sensor: Nr:Datum:Temp:Feuchte:Taupunkt:
Aussen-T/F 3326 12-09-2016 13:05:00 22.5 C 79 % 18.67 C
3327 12-09-2016 13:10:00 22.7 C 79 % 18.87 C
3328 12-09-2016 13:15:00 22.9 C 80 % 19.26 C
3329 12-09-2016 13:20:00 23.1 C 80 % 19.46 C
3330 12-09-2016 13:25:00 23.3 C 78 % 19.25 C
3331 12-09-2016 13:30:00 23.5 C 78 % 19.44 C
3332 12-09-2016 13:35:00 23.8 C 79 % 19.94 C
3333 12-09-2016 13:40:00 23.9 C 74 % 18.98 C
3334 12-09-2016 13:45:00 24.3 C 76 % 19.8 C
3335 12-09-2016 13:50:00 24.5 C 75 % 19.78 C
3336 12-09-2016 13:55:00 24.8 C 73 % 19.63 C
3337 12-09-2016 14:00:00 25 C 74 % 20.04 C
3338 12-09-2016 14:05:00 25.2 C 66 % 18.39 C
3339 12-09-2016 14:10:00 25.7 C 66 % 18.87 C
3340 12-09-2016 14:15:00 26.2 C 65 % 19.1 C
3341 12-09-2016 14:20:00 26.8 C 61 % 18.65 C
3342 12-09-2016 14:25:00 27.4 C 60 % 18.95 C
3343 12-09-2016 14:30:00 27.6 C 59 % 18.86 C
3344 12-09-2016 14:35:00 27.7 C 57 % 18.41 C
3345 12-09-2016 14:40:00 27.9 C 57 % 18.59 C
3346 12-09-2016 14:45:00 28.2 C 58 % 19.15 C
3347 12-09-2016 14:50:00 28.3 C 53 % 17.8 C
3348 12-09-2016 14:55:00 28.6 C 52 % 17.78 C
3349 12-09-2016 15:00:00 28.9 C 50 % 17.43 C
3350 12-09-2016 15:05:00 29 C 55 % 19.04 C
Sensor: Nr:Datum:Temp:Feuchte:Taupunkt:
Aussen-T/F 3351 12-09-2016 15:10:00 29 C 49 % 17.2 C
3352 12-09-2016 15:15:00 29.2 C 48 % 17.06 C
3353 12-09-2016 15:20:00 29.3 C 48 % 17.15 C
3354 12-09-2016 15:25:00 29.4 C 46 % 16.57 C
3355 12-09-2016 15:30:00 29.6 C 47 % 17.09 C
3356 12-09-2016 15:35:00 29.6 C 46 % 16.75 C
3357 12-09-2016 15:40:00 29.7 C 46 % 16.84 C
3358 12-09-2016 15:45:00 29.8 C 47 % 17.27 C
3359 12-09-2016 15:50:00 29.8 C 46 % 16.93 C
3360 12-09-2016 15:55:00 29.9 C 46 % 17.02 C
3361 12-09-2016 16:00:00 30 C 45 % 16.77 C
3362 12-09-2016 16:05:00 30 C 42 % 15.69 C
3363 12-09-2016 16:10:00 30.1 C 42 % 15.77 C
3364 12-09-2016 16:15:00 30.1 C 43 % 16.14 C
3365 12-09-2016 16:20:00 30.2 C 42 % 15.86 C
3366 12-09-2016 16:25:00 30.4 C 44 % 16.77 C
3367 12-09-2016 16:30:00 30.3 C 43 % 16.32 C
3368 12-09-2016 16:35:00 30.4 C 47 % 17.82 C
3369 12-09-2016 16:40:00 30.5 C 48 % 18.24 C
3370 12-09-2016 16:45:00 30.4 C 48 % 18.15 C
3371 12-09-2016 16:50:00 30.3 C 44 % 16.68 C
3372 12-09-2016 16:55:00 30.6 C 43 % 16.59 C
3373 12-09-2016 17:00:00 30.9 C 49 % 18.94 C
3374 12-09-2016 17:05:00 31.1 C 43 % 17.04 C
3375 12-09-2016 17:10:00 31.3 C 42 % 16.85 C
Sensor: Nr:Datum:Temp:Feuchte:Taupunkt:
Aussen-T/F 3376 12-09-2016 17:15:00 31.3 C 48 % 18.97 C
3377 12-09-2016 17:20:00 31.2 C 47 % 18.54 C
3378 12-09-2016 17:25:00 30.9 C 49 % 18.94 C
3379 12-09-2016 17:30:00 30.6 C 51 % 19.3 C
3380 12-09-2016 17:35:00 30.3 C 52 % 19.34 C
3381 12-09-2016 17:40:00 30 C 51 % 18.75 C
3382 12-09-2016 17:45:00 29.8 C 52 % 18.88 C
3383 12-09-2016 17:50:00 29.5 C 52 % 18.61 C
3384 12-09-2016 17:55:00 29.1 C 53 % 18.54 C
3385 12-09-2016 18:00:00 28.8 C 53 % 18.26 C
3386 12-09-2016 18:05:00 28.4 C 54 % 18.19 C
3387 12-09-2016 18:10:00 28.2 C 55 % 18.3 C
3388 12-09-2016 18:15:00 28 C 56 % 18.4 C
3389 12-09-2016 18:20:00 27.8 C 56 % 18.22 C
3390 12-09-2016 18:25:00 27.6 C 56 % 18.03 C
3391 12-09-2016 18:30:00 27.3 C 57 % 18.03 C
3392 12-09-2016 18:35:00 27.1 C 58 % 18.12 C
3393 12-09-2016 18:40:00 26.9 C 59 % 18.21 C
3394 12-09-2016 18:45:00 26.9 C 59 % 18.21 C
3395 12-09-2016 18:50:00 26.8 C 59 % 18.11 C
3396 12-09-2016 18:55:00 26.7 C 59 % 18.02 C
3397 12-09-2016 19:00:00 26.6 C 59 % 17.93 C
3398 12-09-2016 19:05:00 26.4 C 59 % 17.74 C
3399 12-09-2016 19:10:00 26.3 C 61 % 18.18 C
3400 12-09-2016 19:15:00 26 C 61 % 17.9 C
Sensor: Nr:Datum:Temp:Feuchte:Taupunkt:
Aussen-T/F 3401 12-09-2016 19:20:00 25.7 C 62 % 17.87 C
3402 12-09-2016 19:25:00 25.3 C 63 % 17.75 C
3403 12-09-2016 19:30:00 25 C 64 % 17.72 C
3404 12-09-2016 19:35:00 24.6 C 65 % 17.58 C
3405 12-09-2016 19:40:00 24.3 C 66 % 17.54 C
3406 12-09-2016 19:45:00 24 C 68 % 17.73 C
3407 12-09-2016 19:50:00 23.7 C 68 % 17.44 C
3408 12-09-2016 19:55:00 23.5 C 69 % 17.48 C
3409 12-09-2016 20:00:00 23.3 C 69 % 17.29 C
3410 12-09-2016 20:05:00 23.1 C 69 % 17.1 C
3411 12-09-2016 20:10:00 23 C 70 % 17.23 C
3412 12-09-2016 20:15:00 22.9 C 70 % 17.14 C
3413 12-09-2016 20:20:00 22.8 C 70 % 17.04 C
3414 12-09-2016 20:25:00 22.8 C 71 % 17.27 C
3415 12-09-2016 20:30:00 22.7 C 71 % 17.17 C
3416 12-09-2016 20:35:00 22.6 C 72 % 17.3 C
3417 12-09-2016 20:40:00 22.5 C 72 % 17.2 C
3418 12-09-2016 20:45:00 22.4 C 72 % 17.1 C
3419 12-09-2016 20:50:00 22.4 C 73 % 17.32 C
3420 12-09-2016 20:55:00 22.3 C 73 % 17.23 C
3421 12-09-2016 21:00:00 22.3 C 73 % 17.23 C
3422 12-09-2016 21:05:00 22.3 C 73 % 17.23 C
3423 12-09-2016 21:10:00 22.3 C 73 % 17.23 C
3424 12-09-2016 21:15:00 22.2 C 74 % 17.34 C
3425 12-09-2016 21:20:00 22.1 C 74 % 17.25 C
Sensor: Nr:Datum:Temp:Feuchte:Taupunkt:
Aussen-T/F 3426 12-09-2016 21:25:00 21.9 C 75 % 17.27 C
3427 12-09-2016 21:30:00 21.7 C 75 % 17.07 C
3428 12-09-2016 21:35:00 21.6 C 76 % 17.19 C
3429 12-09-2016 21:40:00 21.6 C 76 % 17.19 C
3430 12-09-2016 21:45:00 21.5 C 76 % 17.09 C
3431 12-09-2016 21:50:00 21.4 C 77 % 17.2 C
3432 12-09-2016 21:55:00 21.2 C 77 % 17.01 C
3433 12-09-2016 22:00:00 21.2 C 78 % 17.21 C
3434 12-09-2016 22:05:00 21.1 C 78 % 17.11 C
3435 12-09-2016 22:10:00 20.9 C 78 % 16.92 C
3436 12-09-2016 22:15:00 20.8 C 79 % 17.02 C
3437 12-09-2016 22:20:00 20.7 C 79 % 16.93 C
3438 12-09-2016 22:25:00 20.5 C 80 % 16.93 C
3439 12-09-2016 22:30:00 20.3 C 80 % 16.74 C
3440 12-09-2016 22:35:00 20.2 C 81 % 16.84 C
3441 12-09-2016 22:40:00 20 C 81 % 16.64 C
3442 12-09-2016 22:45:00 19.8 C 82 % 16.64 C
3443 12-09-2016 22:50:00 19.7 C 82 % 16.54 C
3444 12-09-2016 22:55:00 19.6 C 83 % 16.63 C
3445 12-09-2016 23:00:00 19.4 C 83 % 16.44 C
3446 12-09-2016 23:05:00 19.4 C 84 % 16.63 C
3447 12-09-2016 23:10:00 19.3 C 84 % 16.53 C
3448 12-09-2016 23:15:00 19.2 C 84 % 16.43 C
3449 12-09-2016 23:20:00 19.1 C 85 % 16.52 C
3450 12-09-2016 23:25:00 18.9 C 85 % 16.32 C
Sensor: Nr:Datum:Temp:Feuchte:Taupunkt:
Aussen-T/F 3451 12-09-2016 23:30:00 18.8 C 85 % 16.23 C
3452 12-09-2016 23:35:00 18.8 C 86 % 16.41 C
3453 12-09-2016 23:40:00 18.7 C 86 % 16.31 C
3454 12-09-2016 23:45:00 18.6 C 86 % 16.21 C
3455 12-09-2016 23:50:00 18.5 C 86 % 16.11 C
3456 12-09-2016 23:55:00 18.4 C 86 % 16.02 C
3457 13-09-2016 00:00:00 18.3 C 86 % 15.92 C
3458 13-09-2016 00:05:00 18.3 C 87 % 16.1 C
3459 13-09-2016 00:10:00 18.3 C 88 % 16.28 C
3460 13-09-2016 00:15:00 18.3 C 87 % 16.1 C
3461 13-09-2016 00:20:00 18.2 C 87 % 16 C
3462 13-09-2016 00:25:00 18.1 C 88 % 16.08 C
3463 13-09-2016 00:30:00 18.1 C 88 % 16.08 C
3464 13-09-2016 00:35:00 18.1 C 88 % 16.08 C
3465 13-09-2016 00:40:00 18.1 C 88 % 16.08 C
3466 13-09-2016 00:45:00 18 C 88 % 15.98 C
3467 13-09-2016 00:50:00 18 C 88 % 15.98 C
3468 13-09-2016 00:55:00 17.9 C 88 % 15.88 C
3469 13-09-2016 01:00:00 17.9 C 88 % 15.88 C
3470 13-09-2016 01:05:00 17.8 C 88 % 15.79 C
3471 13-09-2016 01:10:00 17.7 C 88 % 15.69 C
3472 13-09-2016 01:15:00 17.7 C 89 % 15.86 C
3473 13-09-2016 01:20:00 17.7 C 89 % 15.86 C
3474 13-09-2016 01:25:00 17.7 C 89 % 15.86 C
3475 13-09-2016 01:30:00 17.7 C 89 % 15.86 C
Sensor: Nr:Datum:Temp:Feuchte:Taupunkt:
Aussen-T/F 3476 13-09-2016 01:35:00 17.6 C 89 % 15.77 C
3477 13-09-2016 01:40:00 17.6 C 89 % 15.77 C
3478 13-09-2016 01:45:00 17.6 C 89 % 15.77 C
3479 13-09-2016 01:50:00 17.5 C 89 % 15.67 C
3480 13-09-2016 01:55:00 17.4 C 90 % 15.74 C
3481 13-09-2016 02:00:00 17.4 C 90 % 15.74 C
3482 13-09-2016 02:05:00 17.4 C 90 % 15.74 C
3483 13-09-2016 02:10:00 17.3 C 90 % 15.64 C
3484 13-09-2016 02:15:00 17.3 C 90 % 15.64 C
3485 13-09-2016 02:20:00 17.3 C 90 % 15.64 C
3486 13-09-2016 02:25:00 17.2 C 90 % 15.55 C
3487 13-09-2016 02:30:00 17.1 C 90 % 15.45 C
3488 13-09-2016 02:35:00 17.1 C 90 % 15.45 C
3489 13-09-2016 02:40:00 17 C 90 % 15.35 C
3490 13-09-2016 02:45:00 17 C 91 % 15.52 C
3491 13-09-2016 02:50:00 16.9 C 91 % 15.42 C
3492 13-09-2016 02:55:00 16.9 C 91 % 15.42 C
3493 13-09-2016 03:00:00 16.8 C 91 % 15.32 C
3494 13-09-2016 03:05:00 16.8 C 91 % 15.32 C
3495 13-09-2016 03:10:00 16.7 C 91 % 15.22 C
3496 13-09-2016 03:15:00 16.7 C 91 % 15.22 C
3497 13-09-2016 03:20:00 16.7 C 92 % 15.39 C
3498 13-09-2016 03:25:00 16.6 C 92 % 15.3 C
3499 13-09-2016 03:30:00 16.5 C 92 % 15.2 C
3500 13-09-2016 03:35:00 16.4 C 92 % 15.1 C
Sensor: Nr:Datum:Temp:Feuchte:Taupunkt:
Aussen-T/F 3501 13-09-2016 03:40:00 16.4 C 92 % 15.1 C
3502 13-09-2016 03:45:00 16.4 C 92 % 15.1 C
3503 13-09-2016 03:50:00 16.4 C 93 % 15.27 C
3504 13-09-2016 03:55:00 16.4 C 92 % 15.1 C
3505 13-09-2016 04:00:00 16.3 C 92 % 15 C
3506 13-09-2016 04:05:00 16.3 C 92 % 15 C
3507 13-09-2016 04:10:00 16.3 C 92 % 15 C
3508 13-09-2016 04:15:00 16.2 C 93 % 15.07 C
3509 13-09-2016 04:20:00 16.2 C 93 % 15.07 C
3510 13-09-2016 04:25:00 16.2 C 93 % 15.07 C
3511 13-09-2016 04:30:00 16.2 C 93 % 15.07 C
3512 13-09-2016 04:35:00 16.1 C 92 % 14.8 C
3513 13-09-2016 04:40:00 15.9 C 92 % 14.6 C
3514 13-09-2016 04:45:00 15.9 C 93 % 14.77 C
3515 13-09-2016 04:50:00 15.9 C 93 % 14.77 C
3516 13-09-2016 04:55:00 15.9 C 93 % 14.77 C
3517 13-09-2016 05:00:00 15.9 C 93 % 14.77 C
3518 13-09-2016 05:05:00 15.9 C 93 % 14.77 C
3519 13-09-2016 05:10:00 15.8 C 93 % 14.67 C
3520 13-09-2016 05:15:00 15.7 C 93 % 14.57 C
3521 13-09-2016 05:20:00 15.7 C 93 % 14.57 C
3522 13-09-2016 05:25:00 15.7 C 93 % 14.57 C
3523 13-09-2016 05:30:00 15.7 C 94 % 14.74 C
3524 13-09-2016 05:35:00 15.7 C 94 % 14.74 C
3525 13-09-2016 05:40:00 15.7 C 94 % 14.74 C
Sensor: Nr:Datum:Temp:Feuchte:Taupunkt:
Aussen-T/F 3526 13-09-2016 05:45:00 15.7 C 94 % 14.74 C
3527 13-09-2016 05:50:00 15.7 C 94 % 14.74 C
3528 13-09-2016 05:55:00 15.6 C 94 % 14.64 C
3529 13-09-2016 06:00:00 15.6 C 94 % 14.64 C
3530 13-09-2016 06:05:00 15.6 C 94 % 14.64 C
3531 13-09-2016 06:10:00 15.4 C 93 % 14.27 C
3532 13-09-2016 06:15:00 15.3 C 94 % 14.34 C
3533 13-09-2016 06:20:00 15.3 C 94 % 14.34 C
3534 13-09-2016 06:25:00 15.3 C 94 % 14.34 C
3535 13-09-2016 06:30:00 15.2 C 94 % 14.24 C
3536 13-09-2016 06:35:00 15.2 C 94 % 14.24 C
3537 13-09-2016 06:40:00 15.3 C 95 % 14.5 C
3538 13-09-2016 06:45:00 15.3 C 94 % 14.34 C
3539 13-09-2016 06:50:00 15.3 C 94 % 14.34 C
3540 13-09-2016 06:55:00 15.3 C 94 % 14.34 C
3541 13-09-2016 07:00:00 15.2 C 94 % 14.24 C
3542 13-09-2016 07:05:00 15.1 C 94 % 14.14 C
3543 13-09-2016 07:10:00 15.2 C 94 % 14.24 C
3544 13-09-2016 07:15:00 15.1 C 94 % 14.14 C
3545 13-09-2016 07:20:00 15 C 94 % 14.04 C
3546 13-09-2016 07:25:00 14.9 C 94 % 13.94 C
3547 13-09-2016 07:30:00 15 C 95 % 14.21 C
3548 13-09-2016 07:35:00 15.1 C 95 % 14.31 C
3549 13-09-2016 07:40:00 15.2 C 95 % 14.4 C
3550 13-09-2016 07:45:00 15.3 C 95 % 14.5 C
Sensor: Nr:Datum:Temp:Feuchte:Taupunkt:
Aussen-T/F 3551 13-09-2016 07:50:00 15.4 C 95 % 14.6 C
3552 13-09-2016 07:55:00 15.4 C 95 % 14.6 C
3553 13-09-2016 08:00:00 15.3 C 95 % 14.5 C
3554 13-09-2016 08:05:00 15.4 C 95 % 14.6 C
3555 13-09-2016 08:10:00 15.4 C 95 % 14.6 C
3556 13-09-2016 08:15:00 15.4 C 95 % 14.6 C
3557 13-09-2016 08:20:00 15.3 C 95 % 14.5 C
3558 13-09-2016 08:25:00 15.4 C 95 % 14.6 C
3559 13-09-2016 08:30:00 15.4 C 95 % 14.6 C
3560 13-09-2016 08:35:00 15.5 C 95 % 14.7 C
3561 13-09-2016 08:40:00 15.6 C 95 % 14.8 C
3562 13-09-2016 08:45:00 15.6 C 95 % 14.8 C
3563 13-09-2016 08:50:00 15.7 C 95 % 14.9 C
3564 13-09-2016 08:55:00 15.7 C 96 % 15.06 C
3565 13-09-2016 09:00:00 15.8 C 96 % 15.16 C
3566 13-09-2016 09:05:00 15.9 C 96 % 15.26 C
3567 13-09-2016 09:10:00 16 C 96 % 15.36 C
3568 13-09-2016 09:15:00 16.1 C 96 % 15.46 C
3569 13-09-2016 09:20:00 16.2 C 96 % 15.56 C
3570 13-09-2016 09:25:00 16.3 C 96 % 15.66 C
3571 13-09-2016 09:30:00 16.3 C 96 % 15.66 C
3572 13-09-2016 09:35:00 16.5 C 96 % 15.86 C
3573 13-09-2016 09:40:00 16.6 C 96 % 15.96 C
3574 13-09-2016 09:45:00 16.7 C 96 % 16.06 C
3575 13-09-2016 09:50:00 16.8 C 96 % 16.16 C
Sensor: Nr:Datum:Temp:Feuchte:Taupunkt:
Aussen-T/F 3576 13-09-2016 09:55:00 16.9 C 96 % 16.26 C
3577 13-09-2016 10:00:00 17 C 96 % 16.36 C
3578 13-09-2016 10:05:00 17.1 C 96 % 16.46 C
3579 13-09-2016 10:10:00 17.2 C 96 % 16.56 C
3580 13-09-2016 10:15:00 17.3 C 96 % 16.66 C
3581 13-09-2016 10:20:00 17.4 C 96 % 16.76 C
3582 13-09-2016 10:25:00 17.6 C 96 % 16.95 C
3583 13-09-2016 10:30:00 17.7 C 96 % 17.05 C
3584 13-09-2016 10:35:00 17.8 C 96 % 17.15 C
3585 13-09-2016 10:40:00 17.9 C 96 % 17.25 C
3586 13-09-2016 10:45:00 18.1 C 95 % 17.29 C
3587 13-09-2016 10:50:00 18.2 C 95 % 17.39 C
3588 13-09-2016 10:55:00 18.4 C 95 % 17.58 C
3589 13-09-2016 11:00:00 18.6 C 94 % 17.62 C
3590 13-09-2016 11:05:00 18.8 C 94 % 17.81 C
3591 13-09-2016 11:10:00 19.1 C 94 % 18.11 C
3592 13-09-2016 11:15:00 19.3 C 93 % 18.14 C
3593 13-09-2016 11:20:00 19.5 C 93 % 18.34 C
3594 13-09-2016 11:25:00 19.7 C 92 % 18.36 C
3595 13-09-2016 11:30:00 20 C 92 % 18.66 C
3596 13-09-2016 11:35:00 20.2 C 91 % 18.68 C
3597 13-09-2016 11:40:00 20.4 C 90 % 18.7 C
3598 13-09-2016 11:45:00 20.7 C 90 % 19 C
3599 13-09-2016 11:50:00 20.9 C 90 % 19.2 C
3600 13-09-2016 11:55:00 21.2 C 89 % 19.31 C
Sensor: Nr:Datum:Temp:Feuchte:Taupunkt:
Aussen-T/F 3601 13-09-2016 12:00:00 21.5 C 88 % 19.43 C
3602 13-09-2016 12:05:00 21.8 C 87 % 19.54 C
3603 13-09-2016 12:10:00 22.3 C 85 % 19.65 C
3604 13-09-2016 12:15:00 22.8 C 83 % 19.76 C
3605 13-09-2016 12:20:00 23.3 C 81 % 19.85 C
3606 13-09-2016 12:25:00 23.7 C 81 % 20.24 C
3607 13-09-2016 12:30:00 23.9 C 80 % 20.24 C
3608 13-09-2016 12:35:00 24.1 C 78 % 20.02 C
3609 13-09-2016 12:40:00 24.3 C 78 % 20.22 C
3610 13-09-2016 12:45:00 24.5 C 78 % 20.41 C
3611 13-09-2016 12:50:00 24.7 C 76 % 20.18 C
3612 13-09-2016 12:55:00 24.9 C 74 % 19.94 C
3613 13-09-2016 13:00:00 25.1 C 68 % 18.78 C
3614 13-09-2016 13:05:00 25.4 C 70 % 19.53 C
3615 13-09-2016 13:10:00 25.8 C 68 % 19.44 C
3616 13-09-2016 13:15:00 26.1 C 63 % 18.5 C
3617 13-09-2016 13:20:00 26.5 C 63 % 18.88 C
3618 13-09-2016 13:25:00 27.1 C 62 % 19.19 C
3619 13-09-2016 13:30:00 27.4 C 60 % 18.95 C
3620 13-09-2016 13:35:00 27.7 C 59 % 18.96 C
3621 13-09-2016 13:40:00 27.9 C 61 % 19.68 C
3622 13-09-2016 13:45:00 28.1 C 59 % 19.33 C
3623 13-09-2016 13:50:00 28.2 C 53 % 17.71 C
3624 13-09-2016 13:55:00 28.4 C 55 % 18.49 C
3625 13-09-2016 14:00:00 28.5 C 51 % 17.38 C
Sensor: Nr:Datum:Temp:Feuchte:Taupunkt:
Aussen-T/F 3626 13-09-2016 14:05:00 28.7 C 55 % 18.76 C
3627 13-09-2016 14:10:00 28.7 C 51 % 17.56 C
3628 13-09-2016 14:15:00 28.8 C 48 % 16.69 C
3629 13-09-2016 14:20:00 29.1 C 52 % 18.24 C
3630 13-09-2016 14:25:00 29.3 C 47 % 16.82 C
3631 13-09-2016 14:30:00 29.3 C 48 % 17.15 C
3632 13-09-2016 14:35:00 29.3 C 49 % 17.48 C
3633 13-09-2016 14:40:00 29.2 C 47 % 16.73 C
3634 13-09-2016 14:45:00 29.2 C 47 % 16.73 C
3635 13-09-2016 14:50:00 29.2 C 52 % 18.33 C
3636 13-09-2016 14:55:00 29.2 C 45 % 16.04 C
3637 13-09-2016 15:00:00 29.4 C 44 % 15.87 C
3638 13-09-2016 15:05:00 29.4 C 49 % 17.57 C
3639 13-09-2016 15:10:00 29.3 C 47 % 16.82 C
3640 13-09-2016 15:15:00 29.2 C 53 % 18.63 C
3641 13-09-2016 15:20:00 29.1 C 46 % 16.3 C
3642 13-09-2016 15:25:00 29.2 C 52 % 18.33 C
3643 13-09-2016 15:30:00 29.3 C 48 % 17.15 C
3644 13-09-2016 15:35:00 29.4 C 46 % 16.57 C
3645 13-09-2016 15:40:00 29.5 C 52 % 18.61 C
3646 13-09-2016 15:45:00 29.4 C 48 % 17.24 C
3647 13-09-2016 15:50:00 29.6 C 53 % 19 C
3648 13-09-2016 15:55:00 29.5 C 48 % 17.33 C
3649 13-09-2016 16:00:00 29.4 C 52 % 18.51 C
3650 13-09-2016 16:05:00 29.2 C 48 % 17.06 C
Sensor: Nr:Datum:Temp:Feuchte:Taupunkt:
Aussen-T/F 3651 13-09-2016 16:10:00 29.4 C 45 % 16.23 C
3652 13-09-2016 16:15:00 29.7 C 51 % 18.48 C
3653 13-09-2016 16:20:00 29.7 C 51 % 18.48 C
3654 13-09-2016 16:25:00 29.7 C 54 % 19.39 C
3655 13-09-2016 16:30:00 29.4 C 50 % 17.89 C
3656 13-09-2016 16:35:00 29.4 C 55 % 19.41 C
3657 13-09-2016 16:40:00 29.3 C 50 % 17.8 C
3658 13-09-2016 16:45:00 29.4 C 56 % 19.7 C
3659 13-09-2016 16:50:00 29.5 C 54 % 19.21 C
3660 13-09-2016 16:55:00 29.8 C 51 % 18.57 C
3661 13-09-2016 17:00:00 30.1 C 52 % 19.16 C
3662 13-09-2016 17:05:00 30.3 C 52 % 19.34 C
3663 13-09-2016 17:10:00 30.5 C 46 % 17.57 C
3664 13-09-2016 17:15:00 30.7 C 53 % 20.02 C
3665 13-09-2016 17:20:00 30.8 C 45 % 17.49 C
3666 13-09-2016 17:25:00 31.1 C 49 % 19.12 C
3667 13-09-2016 17:30:00 31.2 C 51 % 19.86 C
3668 13-09-2016 17:35:00 31.3 C 47 % 18.63 C
3669 13-09-2016 17:40:00 31.3 C 50 % 19.63 C
3670 13-09-2016 17:45:00 31.1 C 50 % 19.44 C
3671 13-09-2016 17:50:00 30.9 C 47 % 18.27 C
3672 13-09-2016 17:55:00 31 C 50 % 19.35 C
3673 13-09-2016 18:00:00 30.8 C 50 % 19.17 C
3674 13-09-2016 18:05:00 30.3 C 50 % 18.71 C
3675 13-09-2016 18:10:00 30.3 C 52 % 19.34 C
Sensor: Nr:Datum:Temp:Feuchte:Taupunkt:
Aussen-T/F 3676 13-09-2016 18:15:00 30.1 C 52 % 19.16 C
3677 13-09-2016 18:20:00 29.7 C 52 % 18.79 C
3678 13-09-2016 18:25:00 29.2 C 54 % 18.93 C
3679 13-09-2016 18:30:00 28.8 C 55 % 18.86 C
3680 13-09-2016 18:35:00 28.4 C 55 % 18.49 C
3681 13-09-2016 18:40:00 28.2 C 55 % 18.3 C
3682 13-09-2016 18:45:00 27.9 C 56 % 18.31 C
3683 13-09-2016 18:50:00 27.7 C 56 % 18.12 C
3684 13-09-2016 18:55:00 27.6 C 57 % 18.31 C
3685 13-09-2016 19:00:00 27.3 C 59 % 18.58 C
3686 13-09-2016 19:05:00 27.2 C 59 % 18.49 C
3687 13-09-2016 19:10:00 26.9 C 60 % 18.48 C
3688 13-09-2016 19:15:00 26.7 C 60 % 18.29 C
3689 13-09-2016 19:20:00 26.4 C 61 % 18.27 C
3690 13-09-2016 19:25:00 26.1 C 62 % 18.25 C
3691 13-09-2016 19:30:00 25.8 C 63 % 18.22 C
3692 13-09-2016 19:35:00 25.5 C 63 % 17.94 C
3693 13-09-2016 19:40:00 25.2 C 63 % 17.65 C
3694 13-09-2016 19:45:00 24.9 C 63 % 17.37 C
3695 13-09-2016 19:50:00 24.6 C 63 % 17.09 C
3696 13-09-2016 19:55:00 24.4 C 63 % 16.9 C
3697 13-09-2016 20:00:00 24.3 C 62 % 16.55 C
3698 13-09-2016 20:05:00 24.2 C 62 % 16.46 C
3699 13-09-2016 20:10:00 24.2 C 63 % 16.71 C
3700 13-09-2016 20:15:00 24 C 64 % 16.77 C
Sensor: Nr:Datum:Temp:Feuchte:Taupunkt:
Aussen-T/F 3701 13-09-2016 20:20:00 23.8 C 65 % 16.83 C
3702 13-09-2016 20:25:00 23.6 C 65 % 16.64 C
3703 13-09-2016 20:30:00 23.4 C 66 % 16.69 C
3704 13-09-2016 20:35:00 23.2 C 66 % 16.5 C
3705 13-09-2016 20:40:00 23 C 68 % 16.78 C
3706 13-09-2016 20:45:00 22.8 C 68 % 16.59 C
3707 13-09-2016 20:50:00 22.7 C 69 % 16.72 C
3708 13-09-2016 20:55:00 22.5 C 69 % 16.53 C
3709 13-09-2016 21:00:00 22.3 C 70 % 16.56 C
3710 13-09-2016 21:05:00 22.2 C 71 % 16.69 C
3711 13-09-2016 21:10:00 21.9 C 72 % 16.62 C
3712 13-09-2016 21:15:00 21.8 C 72 % 16.53 C
3713 13-09-2016 21:20:00 21.7 C 72 % 16.43 C
3714 13-09-2016 21:25:00 21.6 C 73 % 16.55 C
3715 13-09-2016 21:30:00 21.4 C 74 % 16.57 C
3716 13-09-2016 21:35:00 21.2 C 75 % 16.59 C
3717 13-09-2016 21:40:00 21 C 75 % 16.4 C
3718 13-09-2016 21:45:00 20.8 C 75 % 16.21 C
3719 13-09-2016 21:50:00 20.7 C 76 % 16.32 C
3720 13-09-2016 21:55:00 20.6 C 76 % 16.22 C
3721 13-09-2016 22:00:00 20.4 C 76 % 16.03 C
3722 13-09-2016 22:05:00 20.3 C 76 % 15.93 C
3723 13-09-2016 22:10:00 20.2 C 77 % 16.04 C
3724 13-09-2016 22:15:00 20.2 C 77 % 16.04 C
3725 13-09-2016 22:20:00 20.1 C 77 % 15.94 C
Sensor: Nr:Datum:Temp:Feuchte:Taupunkt:
Aussen-T/F 3726 13-09-2016 22:25:00 20.1 C 77 % 15.94 C
3727 13-09-2016 22:30:00 19.9 C 77 % 15.75 C
3728 13-09-2016 22:35:00 19.8 C 78 % 15.85 C
3729 13-09-2016 22:40:00 19.6 C 78 % 15.66 C
3730 13-09-2016 22:45:00 19.4 C 79 % 15.66 C
3731 13-09-2016 22:50:00 19.3 C 79 % 15.57 C
3732 13-09-2016 22:55:00 19.3 C 80 % 15.76 C
3733 13-09-2016 23:00:00 19.3 C 80 % 15.76 C
3734 13-09-2016 23:05:00 19.3 C 80 % 15.76 C
3735 13-09-2016 23:10:00 19.2 C 80 % 15.67 C
3736 13-09-2016 23:15:00 19.1 C 80 % 15.57 C
3737 13-09-2016 23:20:00 19 C 81 % 15.67 C
3738 13-09-2016 23:25:00 18.8 C 81 % 15.47 C
3739 13-09-2016 23:30:00 18.7 C 81 % 15.37 C
3740 13-09-2016 23:35:00 18.7 C 81 % 15.37 C
3741 13-09-2016 23:40:00 18.6 C 81 % 15.28 C
3742 13-09-2016 23:45:00 18.4 C 82 % 15.27 C
3743 13-09-2016 23:50:00 18.4 C 82 % 15.27 C
3744 13-09-2016 23:55:00 18.4 C 82 % 15.27 C
3745 14-09-2016 00:00:00 18.3 C 82 % 15.17 C
3746 14-09-2016 00:05:00 18.3 C 82 % 15.17 C
3747 14-09-2016 00:10:00 18.3 C 82 % 15.17 C
3748 14-09-2016 00:15:00 18.2 C 83 % 15.27 C
3749 14-09-2016 00:20:00 18.2 C 83 % 15.27 C
3750 14-09-2016 00:25:00 18.1 C 83 % 15.17 C
Sensor: Nr:Datum:Temp:Feuchte:Taupunkt:
Aussen-T/F 3751 14-09-2016 00:30:00 18 C 83 % 15.07 C
3752 14-09-2016 00:35:00 17.9 C 83 % 14.97 C
3753 14-09-2016 00:40:00 17.8 C 84 % 15.06 C
3754 14-09-2016 00:45:00 17.8 C 84 % 15.06 C
3755 14-09-2016 00:50:00 17.7 C 85 % 15.15 C
3756 14-09-2016 00:55:00 17.6 C 85 % 15.05 C
3757 14-09-2016 01:00:00 17.6 C 85 % 15.05 C
3758 14-09-2016 01:05:00 17.5 C 85 % 14.95 C
3759 14-09-2016 01:10:00 17.5 C 86 % 15.13 C
3760 14-09-2016 01:15:00 17.4 C 86 % 15.03 C
3761 14-09-2016 01:20:00 17.4 C 86 % 15.03 C
3762 14-09-2016 01:25:00 17.4 C 86 % 15.03 C
3763 14-09-2016 01:30:00 17.3 C 86 % 14.94 C
3764 14-09-2016 01:35:00 17.2 C 86 % 14.84 C
3765 14-09-2016 01:40:00 17.2 C 87 % 15.02 C
3766 14-09-2016 01:45:00 17.1 C 87 % 14.92 C
3767 14-09-2016 01:50:00 17.1 C 87 % 14.92 C
3768 14-09-2016 01:55:00 17.1 C 87 % 14.92 C
3769 14-09-2016 02:00:00 17.1 C 88 % 15.1 C
3770 14-09-2016 02:05:00 17 C 88 % 15 C
3771 14-09-2016 02:10:00 17 C 88 % 15 C
3772 14-09-2016 02:15:00 16.9 C 88 % 14.9 C
3773 14-09-2016 02:20:00 16.9 C 89 % 15.08 C
3774 14-09-2016 02:25:00 16.8 C 89 % 14.98 C
3775 14-09-2016 02:30:00 16.8 C 89 % 14.98 C
Sensor: Nr:Datum:Temp:Feuchte:Taupunkt:
Aussen-T/F 3776 14-09-2016 02:35:00 16.7 C 89 % 14.88 C
3777 14-09-2016 02:40:00 16.6 C 89 % 14.78 C
3778 14-09-2016 02:45:00 16.6 C 90 % 14.95 C
3779 14-09-2016 02:50:00 16.5 C 90 % 14.85 C
3780 14-09-2016 02:55:00 16.4 C 90 % 14.76 C
3781 14-09-2016 03:00:00 16.3 C 90 % 14.66 C
3782 14-09-2016 03:05:00 16.3 C 90 % 14.66 C
3783 14-09-2016 03:10:00 16.2 C 90 % 14.56 C
3784 14-09-2016 03:15:00 16.2 C 90 % 14.56 C
3785 14-09-2016 03:20:00 16.1 C 90 % 14.46 C
3786 14-09-2016 03:25:00 16 C 90 % 14.36 C
3787 14-09-2016 03:30:00 15.9 C 90 % 14.26 C
3788 14-09-2016 03:35:00 15.9 C 91 % 14.43 C
3789 14-09-2016 03:40:00 15.9 C 91 % 14.43 C
3790 14-09-2016 03:45:00 15.9 C 91 % 14.43 C
3791 14-09-2016 03:50:00 15.9 C 91 % 14.43 C
3792 14-09-2016 03:55:00 15.9 C 91 % 14.43 C
3793 14-09-2016 04:00:00 15.9 C 91 % 14.43 C
3794 14-09-2016 04:05:00 15.9 C 91 % 14.43 C
3795 14-09-2016 04:10:00 15.8 C 92 % 14.5 C
3796 14-09-2016 04:15:00 15.8 C 92 % 14.5 C
3797 14-09-2016 04:20:00 15.8 C 92 % 14.5 C
3798 14-09-2016 04:25:00 15.8 C 92 % 14.5 C
3799 14-09-2016 04:30:00 15.7 C 92 % 14.4 C
3800 14-09-2016 04:35:00 15.7 C 92 % 14.4 C
Sensor: Nr:Datum:Temp:Feuchte:Taupunkt:
Aussen-T/F 3801 14-09-2016 04:40:00 15.7 C 92 % 14.4 C
3802 14-09-2016 04:45:00 15.7 C 92 % 14.4 C
3803 14-09-2016 04:50:00 15.6 C 92 % 14.31 C
3804 14-09-2016 04:55:00 15.6 C 92 % 14.31 C
3805 14-09-2016 05:00:00 15.4 C 92 % 14.11 C
3806 14-09-2016 05:05:00 15.4 C 92 % 14.11 C
3807 14-09-2016 05:10:00 15.3 C 92 % 14.01 C
3808 14-09-2016 05:15:00 15.3 C 92 % 14.01 C
3809 14-09-2016 05:20:00 15.3 C 92 % 14.01 C
3810 14-09-2016 05:25:00 15.3 C 93 % 14.18 C
3811 14-09-2016 05:30:00 15.3 C 92 % 14.01 C
3812 14-09-2016 05:35:00 15.2 C 93 % 14.08 C
3813 14-09-2016 05:40:00 15.2 C 93 % 14.08 C
3814 14-09-2016 05:45:00 15.2 C 93 % 14.08 C
3815 14-09-2016 05:50:00 15.1 C 93 % 13.98 C
3816 14-09-2016 05:55:00 15.1 C 93 % 13.98 C
3817 14-09-2016 06:00:00 15.1 C 93 % 13.98 C
3818 14-09-2016 06:05:00 15 C 93 % 13.88 C
3819 14-09-2016 06:10:00 15 C 93 % 13.88 C
3820 14-09-2016 06:15:00 14.9 C 93 % 13.78 C
3821 14-09-2016 06:20:00 14.9 C 93 % 13.78 C
3822 14-09-2016 06:25:00 14.8 C 93 % 13.68 C
3823 14-09-2016 06:30:00 14.9 C 94 % 13.94 C
3824 14-09-2016 06:35:00 14.8 C 93 % 13.68 C
3825 14-09-2016 06:40:00 14.7 C 93 % 13.58 C
Sensor: Nr:Datum:Temp:Feuchte:Taupunkt:
Aussen-T/F 3826 14-09-2016 06:45:00 14.7 C 93 % 13.58 C
3827 14-09-2016 06:50:00 14.6 C 93 % 13.48 C
3828 14-09-2016 06:55:00 14.6 C 94 % 13.65 C
3829 14-09-2016 07:00:00 14.7 C 94 % 13.74 C
3830 14-09-2016 07:05:00 14.6 C 94 % 13.65 C
3831 14-09-2016 07:10:00 14.6 C 94 % 13.65 C
3832 14-09-2016 07:15:00 14.5 C 94 % 13.55 C
3833 14-09-2016 07:20:00 14.5 C 94 % 13.55 C
3834 14-09-2016 07:25:00 14.4 C 94 % 13.45 C
3835 14-09-2016 07:30:00 14.4 C 94 % 13.45 C
3836 14-09-2016 07:35:00 14.4 C 94 % 13.45 C
3837 14-09-2016 07:40:00 14.4 C 94 % 13.45 C
3838 14-09-2016 07:45:00 14.4 C 94 % 13.45 C
3839 14-09-2016 07:50:00 14.5 C 94 % 13.55 C
3840 14-09-2016 07:55:00 14.6 C 95 % 13.81 C
3841 14-09-2016 08:00:00 14.7 C 95 % 13.91 C
3842 14-09-2016 08:05:00 14.9 C 95 % 14.11 C
3843 14-09-2016 08:10:00 15 C 95 % 14.21 C
3844 14-09-2016 08:15:00 15 C 95 % 14.21 C
3845 14-09-2016 08:20:00 15.1 C 95 % 14.31 C
3846 14-09-2016 08:25:00 15.1 C 95 % 14.31 C
3847 14-09-2016 08:30:00 15 C 95 % 14.21 C
3848 14-09-2016 08:35:00 15 C 95 % 14.21 C
3849 14-09-2016 08:40:00 15.1 C 95 % 14.31 C
3850 14-09-2016 08:45:00 15.1 C 95 % 14.31 C
Sensor: Nr:Datum:Temp:Feuchte:Taupunkt:
Aussen-T/F 3851 14-09-2016 08:50:00 15.2 C 95 % 14.4 C
3852 14-09-2016 08:55:00 15.2 C 95 % 14.4 C
3853 14-09-2016 09:00:00 15.2 C 95 % 14.4 C
3854 14-09-2016 09:05:00 15.3 C 95 % 14.5 C
3855 14-09-2016 09:10:00 15.4 C 95 % 14.6 C
3856 14-09-2016 09:15:00 15.5 C 95 % 14.7 C
3857 14-09-2016 09:20:00 15.6 C 95 % 14.8 C
3858 14-09-2016 09:25:00 15.7 C 95 % 14.9 C
3859 14-09-2016 09:30:00 15.8 C 95 % 15 C
3860 14-09-2016 09:35:00 15.9 C 95 % 15.1 C
3861 14-09-2016 09:40:00 16.1 C 95 % 15.3 C
3862 14-09-2016 09:45:00 16.2 C 95 % 15.4 C
3863 14-09-2016 09:50:00 16.3 C 95 % 15.5 C
3864 14-09-2016 09:55:00 16.5 C 95 % 15.7 C
3865 14-09-2016 10:00:00 16.6 C 95 % 15.8 C
3866 14-09-2016 10:05:00 16.8 C 95 % 15.99 C
3867 14-09-2016 10:10:00 16.9 C 95 % 16.09 C
3868 14-09-2016 10:15:00 17.1 C 94 % 16.13 C
3869 14-09-2016 10:20:00 17.2 C 94 % 16.23 C
3870 14-09-2016 10:25:00 17.4 C 94 % 16.42 C
3871 14-09-2016 10:30:00 17.7 C 93 % 16.55 C
3872 14-09-2016 10:35:00 17.9 C 92 % 16.58 C
3873 14-09-2016 10:40:00 18.2 C 91 % 16.71 C
3874 14-09-2016 10:45:00 18.4 C 91 % 16.9 C
3875 14-09-2016 10:50:00 18.7 C 90 % 17.03 C
Sensor: Nr:Datum:Temp:Feuchte:Taupunkt:
Aussen-T/F 3876 14-09-2016 10:55:00 18.9 C 90 % 17.22 C
3877 14-09-2016 11:00:00